[[{"header":{"parameterUnit":"m.s-1","parameterCategory":1,"la1":30.6,"la2":29.2853,"lo1":-89.7004,"lo2":-87.6739,"dx":0.0162,"dy":0.0183,"nx":112,"ny":82,"refTime":"2022-12-07T06:00:00:Z","depth":0,"parameterNumber":2,"parameterNumberName":"U-component_of_WINDS"},"data":[0.0,0.0,0.0,0.0,0.0,0.0,0.0,0.0,0.0,0.0,0.0,0.0,0.0,0.0,0.0,0.0,0.0,0.0,0.0,0.0,0.0,0.0,0.0,0.0,0.0,0.0,0.0,0.0,0.0,0.0,0.0,0.0,0.0,0.0,0.0,0.0,0.0,0.0,0.0,0.0,0.0,0.0,0.0,0.0,0.0,0.0,0.0,0.0,0.0,0.0,0.0,0.0,0.0,0.0,0.0,0.0,0.0,0.0,0.0,0.0,0.0,0.0,0.0,0.0,0.0,0.0,0.0,0.0,0.0,0.0,0.0,0.0,0.0,0.0,0.0,0.0,0.0,0.0,0.0,0.0,0.0,0.0,0.0,0.0,0.0,0.0,0.0,0.0,0.0,0.0,-1.1579,-0.8346,-0.6171,-0.496,-0.502,-0.5936,-0.6816,-0.7565,0.0,0.0,0.0,0.0,0.0,0.0,0.0,0.0,0.0,0.0,0.0,0.0,0.0,0.0,0.0,0.0,0.0,0.0,0.0,0.0,0.0,0.0,0.0,0.0,0.0,0.0,0.0,0.0,0.0,0.0,0.0,0.0,0.0,0.0,0.0,0.0,0.0,0.0,0.0,0.0,0.0,0.0,0.0,0.0,0.0,0.0,0.0,0.0,0.0,0.0,0.0,0.0,0.0,0.0,0.0,0.0,0.0,0.0,0.0,0.0,0.0,0.0,0.0,0.0,0.0,0.0,0.0,0.0,0.0,0.0,0.0,0.0,0.0,0.0,0.0,0.0,0.0,0.0,0.0,0.0,0.0,0.0,0.0,0.0,0.0,0.0,0.0,0.0,0.0,0.0,0.0,0.0,0.0,0.0,0.0,0.0,0.0,0.0,0.0,0.0,0.0,0.0,0.0,0.0,-0.8436,-0.6054,-0.349,-0.2079,-0.2447,-0.3822,-0.5268,-0.6606,0.0,0.0,0.0,0.0,0.0,0.0,0.0,0.0,0.0,0.0,0.0,0.0,0.0,0.0,0.0,0.0,0.0,0.0,0.0,0.0,0.0,0.0,0.0,0.0,0.0,0.0,0.0,0.0,0.0,0.0,0.0,0.0,0.0,0.0,0.0,0.0,0.0,0.0,0.0,0.0,0.0,0.0,0.0,0.0,0.0,0.0,0.0,0.0,0.0,0.0,0.0,0.0,0.0,0.0,0.0,0.0,0.0,0.0,0.0,0.0,0.0,0.0,0.0,0.0,0.0,0.0,0.0,0.0,0.0,0.0,0.0,0.0,0.0,0.0,0.0,0.0,0.0,0.0,0.0,0.0,0.0,0.0,0.0,0.0,0.0,0.0,0.0,0.0,0.0,0.0,0.0,0.0,0.0,0.0,0.0,0.0,0.0,0.0,0.0,0.0,0.0,0.0,0.0,-0.8858,-0.6177,-0.4559,-0.2099,-0.0662,-0.0856,-0.222,-0.355,-0.4696,-0.5416,0.0,0.0,0.0,0.0,0.0,0.0,0.0,0.0,0.0,0.0,0.0,0.0,0.0,0.0,0.0,0.0,0.0,0.0,0.0,0.0,0.0,0.0,0.0,0.0,0.0,0.0,0.0,0.0,0.0,0.0,0.0,0.0,0.0,0.0,0.0,0.0,0.0,0.0,0.0,0.0,0.0,0.0,0.0,0.0,0.0,0.0,0.0,0.0,0.0,0.0,0.0,0.0,0.0,0.0,0.0,0.0,0.0,0.0,0.0,0.0,0.0,0.0,0.0,0.0,0.0,0.0,0.0,0.0,0.0,0.0,0.0,0.0,0.0,0.0,0.0,0.0,0.0,0.0,0.0,0.0,0.0,0.0,0.0,0.0,0.0,0.0,0.0,0.0,0.0,0.0,0.0,0.0,0.0,0.0,0.0,0.0,0.0,0.0,0.0,0.0,0.0,0.0,-0.6826,-0.4686,-0.3336,-0.1099,0.0301,0.0301,-0.0922,-0.2068,-0.2977,-0.4025,0.0,0.0,0.0,0.0,0.0,0.0,0.0,0.0,0.0,0.0,0.0,0.0,0.0,0.0,0.0,0.0,0.0,0.0,0.0,0.0,0.0,0.0,0.0,0.0,0.0,0.0,0.0,0.0,0.0,0.0,0.0,0.0,0.0,0.0,0.0,0.0,0.0,0.0,0.0,0.0,0.0,0.0,0.0,0.0,0.0,0.0,0.0,0.0,0.0,0.0,0.0,0.0,0.0,0.0,0.0,0.0,0.0,0.0,0.0,0.0,0.0,0.0,0.0,0.0,0.0,0.0,0.0,0.0,0.0,0.0,0.0,0.0,0.0,0.0,0.0,0.0,0.0,0.0,0.0,0.0,0.0,0.0,0.0,0.0,0.0,0.0,0.0,0.0,0.0,0.0,0.0,0.0,0.0,0.0,0.0,0.0,0.0,0.0,0.0,0.0,0.0,0.0,-0.4997,-0.4181,-0.2225,-0.0098,0.1204,0.1204,0.0033,-0.114,-0.2216,-0.3334,0.0,0.0,0.0,0.0,0.0,0.0,0.0,0.0,0.0,0.0,0.0,0.0,0.0,0.0,0.0,0.0,0.0,0.0,0.0,0.0,0.0,0.0,0.0,0.0,0.0,0.0,0.0,0.0,0.0,0.0,0.0,0.0,0.0,0.0,0.0,0.0,0.0,0.0,0.0,0.0,0.0,0.0,0.0,0.0,0.0,0.0,0.0,0.0,0.0,0.0,0.0,0.0,0.0,0.0,0.0,0.0,0.0,0.0,0.0,0.0,0.0,0.0,0.0,0.0,0.0,0.0,0.0,0.0,0.0,0.0,0.0,0.0,0.0,0.0,0.0,0.0,0.0,0.0,0.0,0.0,0.0,0.0,0.0,0.0,0.0,0.0,0.0,0.0,0.0,0.0,0.0,0.0,0.0,0.0,0.0,0.0,0.0,0.0,0.0,0.0,0.0,0.0,-0.3891,-0.2999,-0.1322,0.033,0.1206,0.094,0.0,-0.0835,-0.1359,0.0,0.0,0.0,0.0,0.0,0.0,0.0,0.0,0.0,0.0,0.0,0.0,0.0,0.0,0.0,0.0,0.0,0.0,0.0,0.0,0.0,0.0,0.0,0.0,0.0,0.0,0.0,0.0,0.0,0.0,0.0,0.0,0.0,0.0,0.0,0.0,0.0,0.0,0.0,0.0,0.0,0.0,0.0,0.0,0.0,0.0,0.0,0.0,0.0,0.0,0.0,0.0,0.0,0.0,0.0,0.0,0.0,0.0,0.0,0.0,0.0,0.0,0.0,0.0,0.0,0.0,0.0,0.0,0.0,0.0,0.0,0.0,0.0,0.0,0.0,0.0,0.0,0.0,0.0,0.0,0.0,0.0,0.0,0.0,0.0,0.0,0.0,0.0,0.0,0.0,0.0,0.0,0.0,0.0,0.0,0.0,0.0,0.0,0.0,0.0,0.0,0.0,-0.3905,-0.3496,-0.2528,-0.0684,0.0466,0.1005,0.0738,-0.0133,-0.0725,-0.0974,0.0,0.0,0.0,0.0,0.0,0.0,0.0,0.0,0.0,0.0,0.0,0.0,0.0,0.0,0.0,0.0,0.0,0.0,0.0,0.0,0.0,0.0,0.0,0.0,0.0,0.0,0.0,0.0,0.0,0.0,0.0,0.0,0.0,0.0,0.0,0.0,0.0,0.0,0.0,0.0,0.0,0.0,0.0,0.0,0.0,0.0,0.0,0.0,0.0,0.0,0.0,0.0,0.0,0.0,0.0,0.0,0.0,0.0,0.0,0.0,0.0,0.0,0.0,0.0,0.0,0.0,0.0,0.0,0.0,0.0,0.0,0.0,0.0,0.0,0.0,0.0,0.0,0.0,0.0,0.0,0.0,0.0,0.0,0.0,0.0,0.0,0.0,0.0,0.0,0.0,0.0,0.0,0.0,0.0,0.0,0.0,0.0,0.0,0.0,0.0,0.0,0.0,-0.3905,-0.3893,-0.29,-0.0263,0.0434,0.0705,0.0702,-0.0167,-0.0814,0.0,0.0,0.0,0.0,0.0,0.0,0.0,0.0,0.0,0.0,0.0,0.0,0.0,0.0,0.0,0.0,0.0,0.0,0.0,0.0,0.0,0.0,0.0,0.0,0.0,0.0,0.0,0.0,0.0,0.0,0.0,0.0,0.0,0.0,0.0,0.0,0.0,0.0,0.0,0.0,0.0,0.0,0.0,0.0,0.0,0.0,0.0,0.0,0.0,0.0,0.0,0.0,0.0,0.0,0.0,0.0,0.0,0.0,0.0,0.0,0.0,0.0,0.0,0.0,0.0,0.0,0.0,0.0,0.0,0.0,0.0,0.0,0.0,0.0,0.0,0.0,0.0,0.0,0.0,0.0,0.0,0.0,0.0,0.0,0.0,0.0,0.0,0.0,0.0,0.0,0.0,0.0,0.0,0.0,0.0,0.0,0.0,0.0,0.0,0.0,0.0,0.0,0.0,-0.3821,-0.3619,-0.254,-0.0233,0.0669,0.1005,0.0738,0.0435,0.0219,0.0079,0.0,0.0,0.0,0.0,0.0,0.0,0.0,0.0,0.0,0.0,0.0,0.0,0.0,0.0,0.0,0.0,0.0,0.0,0.0,0.0,0.0,0.0,0.0,0.0,0.0,0.0,0.0,0.0,0.0,0.0,0.0,0.0,0.0,0.0,0.0,0.0,0.0,0.0,0.0,0.0,0.0,0.0,0.0,0.0,0.0,0.0,0.0,0.0,0.0,0.0,0.0,0.0,0.0,0.0,0.0,0.0,0.0,0.0,0.0,0.0,0.0,0.0,0.0,0.0,0.0,0.0,0.0,0.0,0.0,0.0,0.0,0.0,0.0,0.0,0.0,0.0,0.0,0.0,0.0,0.0,0.0,0.0,0.0,0.0,0.0,0.0,0.0,0.0,0.0,0.0,0.0,0.0,0.0,0.0,0.0,0.0,0.0,0.0,0.0,0.0,0.0,0.0,-0.2087,-0.2716,-0.2252,0.0266,0.1,0.1333,0.1464,0.1326,0.1083,0.0751,0.0,0.0,0.0,0.0,0.0,0.0,0.0,0.0,0.0,0.0,0.0,0.0,0.0,0.0,0.0,0.0,0.0,0.0,0.0,0.0,0.0,0.0,0.0,0.0,0.0,0.0,0.0,0.0,0.0,0.0,0.0,0.0,0.0,0.0,0.0,0.0,0.0,0.0,0.0,0.0,0.0,0.0,0.0,0.0,0.0,0.0,0.0,0.0,0.0,0.0,0.0,0.0,0.0,0.0,0.0,0.0,0.0,0.0,0.0,0.0,0.0,0.0,0.0,0.0,0.0,0.0,0.0,0.0,0.0,0.0,0.0,0.0,0.0,0.0,0.0,0.0,0.0,0.0,0.0,0.0,0.0,0.0,0.0,0.0,0.0,0.0,0.0,0.0,0.0,0.0,0.0,0.0,0.0,0.0,0.0,0.0,0.0,0.0,0.0,0.0,0.0,0.0,0.0776,-0.1228,-0.1719,0.115,0.1522,0.1882,0.2751,0.2417,0.1895,0.1276,0.0,0.0,0.0,0.0,0.0,0.0,0.0,0.0,0.0,0.0,0.0,0.0,0.0,0.0,0.0,0.0,0.0,0.0,0.0,0.0,0.0,0.0,0.0,0.0,0.0,0.0,0.0,0.0,0.0,0.0,0.0,0.0,0.0,0.0,0.0,0.0,0.0,0.0,0.0,0.0,0.0,0.0,0.0,0.0,0.0,0.0,0.0,0.0,0.0,0.0,0.0,0.0,0.0,0.0,0.0,0.0,0.0,0.0,0.0,0.0,-0.9003,-0.732,0.0,0.0,0.0,0.0,0.0,0.0,0.0,0.0,0.0,0.0,0.0,0.0,0.0,0.0,0.0,0.0,0.0,0.0,0.0,0.0,0.0,0.0,0.0,0.0,0.0,0.0,0.0,0.0,0.0,0.0,0.0,0.0,0.0,0.0,0.0,0.0,0.0,0.0,0.0,0.0,0.2877,0.1128,0.0615,0.2576,0.3135,0.367,0.4487,0.3914,0.3529,0.3644,0.2906,0.0,0.0,0.0,0.0,0.0,0.0,0.0,0.0,0.0,0.0,0.0,0.0,0.0,0.0,0.0,0.0,0.0,0.0,0.0,0.0,0.0,0.0,0.0,0.0,0.0,0.0,0.0,0.0,0.0,0.0,0.0,0.0,0.0,0.0,0.0,0.0,0.0,0.0,0.0,0.0,0.0,0.0,0.0,0.0,0.0,0.0,0.0,0.0,0.0,0.0,0.0,0.0,0.0,0.0,0.0,0.0,0.0,0.0,0.0,-0.9459,-0.8337,0.0,0.0,0.0,0.0,0.0,0.0,0.0,0.0,0.0,0.0,0.0,0.0,0.0,0.0,0.0,0.0,0.0,0.0,0.0,0.0,0.0,0.0,0.0,0.0,0.0,0.0,0.0,0.0,0.0,0.0,0.0,0.0,0.0,0.0,0.0,0.0,0.0,0.0,0.0,0.0,0.3759,0.2431,0.2136,0.3663,0.4234,0.4934,0.5929,0.5472,0.5284,0.5638,0.4575,0.0,0.0,0.0,0.0,0.0,0.0,0.0,0.0,0.0,0.0,0.0,0.0,0.0,0.0,0.0,0.0,0.0,0.0,0.0,0.0,0.0,0.0,0.0,0.0,0.0,0.0,0.0,0.0,0.0,0.0,0.0,0.0,0.0,0.0,0.0,0.0,0.0,0.0,0.0,0.0,0.0,0.0,0.0,0.0,0.0,0.0,0.0,0.0,0.0,0.0,0.0,0.0,0.0,-1.0486,-1.051,-1.0835,-0.9181,-0.8998,-0.9927,-0.8916,-0.8574,-0.8549,-0.6732,0.0,0.0,0.0,0.0,0.0,0.0,0.0,0.0,0.0,0.0,0.0,0.0,0.0,0.0,0.0,0.0,0.0,0.0,0.0,0.0,0.0,0.0,0.3384,0.0,0.2287,0.6334,0.057,0.0,0.0,0.0,0.0,0.0,0.0,0.0,0.0,0.0,0.0,0.0,0.4549,0.3678,0.3612,0.4741,0.5267,0.5975,0.7114,0.6854,0.6773,0.7172,0.5676,0.4721,0.0,0.0,0.0,0.0,0.0,0.0,0.0,0.0,0.0,0.0,0.0,0.0,0.0,0.0,0.0,0.0,0.0,0.0,0.0,0.0,0.0,0.0,0.0,0.0,0.0,0.0,0.0,0.0,0.0,0.0,0.0,0.0,-0.9499,-0.8466,0.0,0.0,0.0,0.0,0.0,0.0,0.0,0.0,0.0,0.0,0.0,0.0,0.0,-1.0065,-0.9996,-1.0218,-1.0285,-1.0233,-1.1124,-1.1301,-1.0815,-1.0606,-1.0298,-0.9892,-0.9453,0.0,-0.8357,-0.9179,0.0,0.0,0.0,0.0,0.0,0.0,0.0,0.0,0.0,0.0,0.0,0.0,0.0,0.0,0.0,0.0,0.0,0.0,0.0,0.0,0.0,0.0,-0.6694,-0.6991,-0.2803,0.041,0.0,-0.456,-0.5624,-0.5626,-0.4425,-0.2903,0.0,0.0,0.0,0.0,0.0,0.0,0.6646,0.6185,0.5967,0.6196,0.6605,0.717,0.798,0.7414,0.7306,0.8009,0.6904,0.5995,0.5459,0.4944,0.0,0.0,0.0,0.0,0.0,0.0,0.0,0.0,0.0,0.0,0.0,0.0,0.0,0.0,0.0,0.0,0.0,0.0,0.0,0.0,0.0,0.0,0.0,0.0,0.0,0.0,0.0,0.0,0.0,-0.8964,-0.8222,-0.7811,-0.7589,-0.6991,0.0,0.0,0.0,0.0,0.0,0.0,0.0,0.0,0.0,-1.003,-1.0201,-1.0579,-1.1265,-1.1364,-1.1429,-1.1512,-1.1516,-1.1293,-1.0836,-1.0703,-1.026,-0.9581,-0.9235,-0.8728,-0.8191,-0.8942,-0.8083,-0.6125,0.0,0.0,0.0,0.0,-0.468,-0.5436,-0.6037,-0.6943,-0.8109,-0.9688,0.0,0.0,0.0,0.0,0.0,0.0,0.0,-1.0822,0.0,0.0,-0.7167,-0.8964,-0.4585,-0.1013,-0.4726,-0.544,-0.5566,-0.6353,-0.6278,-0.5528,-0.3741,-0.0714,0.0,0.0,0.0,0.7886,0.739,0.7206,0.7052,0.6871,0.699,0.7316,0.7868,0.7627,0.7744,0.849,0.7444,0.6757,0.672,0.6008,0.5264,0.0,0.0,0.0,0.0,0.0,0.0,0.0,0.0,0.0,0.0,0.0,0.0,0.0,0.0,0.0,0.0,0.0,0.0,0.0,0.0,0.0,0.0,0.0,0.0,0.0,0.0,0.0,0.0,-0.9609,-0.8304,-0.7726,-0.8015,-0.7721,0.0,0.0,0.0,0.0,0.0,0.0,-0.9399,-0.9508,-1.0043,-1.1096,-1.1123,-1.1578,-1.2521,-1.2751,-1.2868,-1.2838,-1.2164,-1.1661,-1.1264,-1.0948,-1.0428,-0.9746,-0.9482,-0.9023,-0.8481,-0.8234,-0.8008,-0.7597,-0.5173,-0.414,-0.4009,-0.4103,-0.3908,-0.3787,-0.5027,-0.576,-0.6428,-0.8301,-0.9322,-0.962,-0.8595,0.0,0.0,0.0,0.0,-1.2365,-1.2658,-0.9843,-0.7742,-1.0997,-0.6747,-0.306,-0.7174,-0.6437,-0.5263,-0.6242,-0.7305,-0.7452,-0.5606,-0.1758,0.0,0.3339,0.6015,0.7774,0.7636,0.7451,0.7161,0.6674,0.6507,0.6678,0.7326,0.7384,0.7801,0.8734,0.7875,0.7502,0.7883,0.7084,0.6703,0.6841,0.0,0.0,0.0,0.0,0.0,0.0,0.0,0.0,0.0,0.0,0.0,0.0,0.0,0.0,0.0,0.0,0.0,0.0,0.0,0.0,0.0,0.0,0.0,0.0,0.0,0.0,0.0,0.0,0.0,-0.9421,-1.0045,0.0,0.0,0.0,0.0,-1.1102,-1.0599,-1.0403,-1.0784,-1.0975,-1.147,-1.2294,-1.3526,-1.3946,-1.3446,-1.4444,-1.4454,-1.346,-1.341,-1.3008,-1.2334,-1.2051,-1.1484,-1.0739,-1.0844,-1.0366,-0.9401,-0.7812,-0.6606,-0.5705,-0.5302,-0.4782,-0.4413,-0.5479,-0.502,-0.4121,-0.5843,-0.6449,-0.6361,-0.5601,-0.7037,-0.9152,-0.9719,-0.9426,0.0,0.0,-1.1109,-1.1286,-1.2938,-1.2604,-1.2316,-1.4246,-1.0854,-0.7991,-1.0845,-0.8163,-0.5393,-0.6068,-0.7537,-0.8021,-0.6104,0.0,-0.195,0.141,0.4255,0.6436,0.754,0.6924,0.6101,0.538,0.489,0.5137,0.6359,0.652,0.7191,0.8695,0.8439,0.8382,0.8723,0.8678,0.8141,0.7013,0.7829,0.0,0.0,0.0,0.0,0.0,0.0,0.0,0.0,0.0,0.0,0.0,0.0,0.0,0.0,0.0,0.0,0.0,0.0,0.0,0.0,0.0,0.0,0.0,0.0,0.0,0.0,0.0,0.0,-1.1195,-1.2527,0.0,-1.1511,-1.1572,-1.1829,-1.2172,-1.2863,-1.3119,-1.2785,-1.2543,-1.2796,-1.3612,-1.3785,-1.4153,-1.4712,-1.5608,-1.5608,-1.4712,-1.3714,-1.2876,-1.215,-1.0849,-1.0164,-1.0005,-0.9668,-0.9244,-0.8666,-0.7453,-0.6983,-0.6884,-0.5672,-0.4746,-0.4009,-0.3246,-0.2647,-0.2331,-0.2947,-0.3538,-0.3809,-0.2294,-0.3437,-0.6198,-1.0486,-1.0756,-0.9985,-1.2008,-1.2446,-1.236,-1.2732,-1.2934,-1.3258,-1.4175,-1.3053,-1.2115,-1.3316,-1.1365,-0.9461,-0.9764,-0.9482,-0.8726,-0.7159,-0.503,-0.2321,0.1256,0.4281,0.6319,0.6731,0.6293,0.5408,0.4061,0.4029,0.4528,0.5533,0.615,0.7082,0.8382,0.8365,0.8561,0.9155,0.8926,0.8594,0.8175,0.8035,0.7126,0.0,0.0,0.0,0.0,0.0,0.0,0.0,0.0,0.0,0.0,0.0,0.0,0.0,0.0,0.0,0.0,0.0,0.0,0.0,0.0,0.0,0.0,0.0,0.0,0.0,-1.199,-1.3274,-1.2617,-1.443,-1.5168,-1.3686,-1.4144,-1.4497,-1.4445,-1.525,-1.5521,-1.4922,-1.4118,-1.4107,-1.4955,-1.4602,-1.4746,-1.5425,-1.6234,-1.6234,-1.5425,-1.4065,-1.2986,-1.2185,-1.058,-0.9817,-0.9788,-0.9625,-0.9329,-0.8726,-0.5462,-0.4192,-0.4157,-0.3272,-0.2991,-0.2961,-0.1753,-0.112,-0.0843,-0.0856,-0.1267,-0.1378,0.1006,-0.1061,-0.5413,-1.0498,-1.1353,-1.0952,-1.2598,-1.3022,-1.2938,-1.2669,-1.2816,-1.2693,-1.1221,-1.2573,-1.3651,-1.1663,-1.1869,-1.2223,-1.1394,-0.9838,-0.849,-0.7815,-0.562,-0.2882,0.0292,0.2835,0.4581,0.5161,0.4771,0.4009,0.2909,0.2801,0.3303,0.4451,0.504,0.5937,0.7318,0.7377,0.7657,0.8327,0.8058,0.7829,0.7703,0.6941,0.5779,0.4199,0.0,0.0,0.0,0.0,0.0,0.0,0.0,0.0,0.0,0.0,0.0,0.0,0.0,0.0,0.0,0.0,0.0,0.0,0.0,0.0,0.0,0.0,0.0,-1.1091,-1.4022,-1.554,-1.3818,-1.5834,-1.7062,-1.6272,-1.6821,-1.7468,-1.804,-1.7762,-1.7388,-1.7035,-1.5694,-1.5372,-1.6257,-1.6058,-1.5837,-1.5575,-1.6354,-1.6354,-1.5524,-1.4496,-1.3483,-1.249,-1.1378,-1.0663,-1.0276,-1.0745,-1.0524,-0.9249,-0.1701,0.2085,0.3048,0.2137,0.0626,-0.1001,-0.1091,-0.0641,-0.0,-0.0,-0.0,0.0511,0.3516,-0.0522,-0.7087,-0.9922,-1.1471,-1.2359,-1.2761,-1.284,-1.2802,-1.2766,-1.2351,-1.075,-0.5904,-0.9507,-1.2334,-0.6154,-0.9517,-1.2994,-1.0485,-0.8361,-0.7209,-0.7909,-0.6117,-0.3831,-0.159,-0.019,0.0,0.2926,0.2417,0.1905,0.192,0.1193,0.1379,0.311,0.3082,0.3729,0.5512,0.5477,0.5643,0.6185,0.6065,0.5799,0.5407,0.4567,0.3638,0.2584,0.0,0.0,0.0,0.0,0.0,0.0,0.0,0.0,0.0,0.0,0.0,0.0,0.0,0.0,0.0,0.0,0.0,0.0,0.0,0.0,0.0,-1.426,-1.6015,-1.4909,-1.6735,-1.8236,-1.8319,-2.0029,-2.1035,-2.0679,-2.0299,-2.0029,-1.9883,-1.9405,-1.8492,-1.7134,-1.6388,-1.5951,-1.588,-1.5254,-1.5509,-1.6784,-1.7614,-1.7374,-1.6147,-1.4987,-1.3912,-1.2872,-1.1107,-1.0507,-1.0649,-0.7154,-0.3129,0.1043,0.3194,0.766,1.2777,0.9256,0.7077,0.5727,0.3985,0.1929,-0.0,-0.0,-0.0,-0.148,-1.0543,-0.9867,-0.698,-1.4794,-1.5558,-1.3891,-1.4689,-1.3968,-1.2723,-1.1809,-0.9079,-0.7225,-0.9885,-0.812,-0.6567,-0.9185,-0.8887,-0.8042,-0.7819,-0.5899,-0.4796,-0.6436,-0.5435,-0.3475,-0.075,0.0729,0.1705,0.2199,0.2032,0.1547,0.0637,0.0646,0.1137,0.2186,0.2236,0.2693,0.3804,0.3536,0.351,0.3957,0.3654,0.3296,0.2908,0.1422,0.1108,0.0,0.0,0.0,0.0,0.0,0.0,0.0,0.0,0.0,0.0,0.0,0.0,0.0,0.0,0.0,0.0,0.0,0.0,0.0,0.0,0.0,0.0,-1.6453,-1.8391,-1.8955,-2.0174,-2.1109,-2.1332,-2.2438,-2.2913,-2.2288,-2.1861,-2.1292,-2.0431,-1.9888,-1.9262,-1.8512,-1.4385,-1.0981,-0.8708,-1.0145,-1.1464,-1.2552,-1.5964,-1.7262,-1.6416,-1.5313,-1.4235,-1.3167,-1.1415,-1.0141,-0.8944,-0.1392,0.64,1.3611,1.2408,1.4522,0.0,0.0,0.0,0.0,0.0,0.4843,0.0422,0.3296,0.6199,0.586,-1.0839,-1.077,-0.5912,-1.5476,-1.672,-1.5001,-1.5546,-1.4775,-1.3364,-1.1528,-0.8974,-0.6776,-0.6388,-0.4756,-0.3481,-0.4223,-0.4372,-0.4358,-0.4307,-0.372,0.0,-0.3411,-0.3306,-0.2472,-0.032,0.0849,0.1703,0.2365,0.245,0.2104,0.1198,0.1384,0.1602,0.1648,0.1491,0.0,0.0,0.0,0.0868,0.0918,0.0694,0.0,0.0,0.0,0.0,0.0,0.0,0.0,0.0,0.3982,0.5272,0.0,0.0,0.0,0.0,0.0,0.0,0.0,0.0,0.0,0.0,0.0,0.0,0.0,0.0,0.0,0.0,-1.7872,-1.9435,-2.2494,-2.338,-2.355,-2.303,-2.3528,-2.3463,-2.2297,-2.2349,-2.191,-2.0582,-2.016,-2.0119,-2.0634,-1.0835,0.0,0.0,0.0,-0.5179,-0.5976,-1.3214,-1.6799,-1.6629,-1.4873,-1.3522,-1.2556,-1.0488,-0.8166,-0.5168,0.4866,1.5262,2.4936,2.2097,2.0781,2.0187,1.6657,1.4383,1.3119,1.3261,0.8368,0.2436,0.7431,0.0,0.0,-0.3724,-0.7168,-0.5338,-1.3365,-1.5399,-1.4912,-1.4814,-1.4362,-1.3377,-1.0956,-0.9658,-0.7132,0.0219,-0.0587,-0.1491,0.4003,0.1553,-0.1471,-0.0588,-0.1625,-0.1918,0.0269,-0.0514,-0.1009,0.0265,0.0957,0.1793,0.3227,0.3469,0.3321,0.2845,0.0,0.0,0.1452,0.0897,0.0393,-0.0108,-0.1123,-0.1894,-0.2292,-0.2389,-0.2407,-0.2335,-0.1952,-0.1609,-0.131,0.0067,0.1179,0.2117,0.3523,0.5097,0.0,0.0,0.0,0.0,0.0,0.0,0.0,0.0,0.0,0.0,0.0,0.0,0.0,0.0,0.0,-1.6944,-1.9555,-2.1616,-2.2248,-2.2911,-2.316,-2.2731,-2.3878,-2.4321,-2.3376,-2.3752,-2.3749,-2.298,-2.305,-2.2828,-2.2214,-0.8195,-0.2131,-0.634,-0.0611,-0.0199,-0.5927,-1.4661,-1.8524,-1.7555,-1.1124,0.0,-0.7542,-0.1478,0.1592,0.2352,0.6622,1.3582,2.1672,1.9453,1.8963,1.9355,1.7277,1.5827,1.4903,1.4984,1.3956,1.1477,0.444,0.3725,0.4438,-0.4626,-0.8804,-1.0452,-1.125,-1.093,0.0,-0.9388,-0.8589,-0.7686,-0.6482,-0.352,-0.1154,-0.228,0.0986,0.3832,0.1878,0.1558,0.16,0.1356,0.1042,0.1139,0.2018,0.1044,0.0902,0.3075,0.3563,0.3935,0.4569,0.5021,0.4967,0.4128,0.4186,0.3586,0.1921,0.0755,-0.0206,-0.101,-0.2234,-0.317,-0.3613,-0.4269,-0.4115,-0.311,-0.3331,-0.2729,-0.1286,0.0142,0.148,0.268,0.3914,0.504,0.0,0.0,0.0,0.0,0.0,0.0,0.0,0.0,0.0,0.0,0.0,-1.1245,-1.177,0.0,-1.5799,-1.6563,-1.8545,-2.0005,-2.0079,-2.092,-2.1777,-2.25,-2.3801,-2.4348,-2.3569,-2.4115,-2.411,-2.3118,-2.273,-2.0345,-1.5259,-0.3879,0.4406,0.8572,0.9476,0.6117,-0.178,-0.9877,-1.5792,-1.9427,-1.3426,-0.5926,0.2628,0.3375,0.6998,1.2636,1.1643,1.4646,2.0221,1.9786,1.9409,1.9086,1.8264,1.73,1.6177,1.4734,1.4024,1.2899,0.6701,0.4605,0.3894,-0.066,-0.3061,-0.4464,-0.6269,-0.7249,-0.7613,-0.6936,-0.721,-0.715,-0.4817,-0.2113,-0.0032,-0.0135,0.335,0.6027,0.3762,0.3361,0.3356,0.3098,0.2218,0.2134,0.3921,0.4095,0.4302,0.5165,0.5813,0.6294,0.6558,0.6829,0.6729,0.6061,0.594,0.5067,0.302,0.0899,-0.0859,-0.2207,-0.2911,-0.3467,-0.3942,-0.4118,-0.3816,-0.2969,-0.2951,-0.2261,-0.0865,0.0332,0.1515,0.2665,0.371,0.47,0.0,0.0,0.0,0.0,0.0,0.0,0.0,-1.0784,-1.0913,-1.2192,-1.2742,-1.295,-1.2827,-1.4038,-1.5243,-1.5699,-1.6651,-1.7462,-1.7786,-1.8826,-2.0177,-2.1823,-2.3267,-2.3896,-2.3283,-2.3876,-2.3847,-2.2765,-2.1689,-1.7951,-1.0767,-0.2234,0.7767,1.9376,1.8119,1.2036,0.1154,-0.494,-1.2455,-2.1187,-1.5506,-0.5351,0.8308,0.6034,1.061,2.0102,1.6433,1.6423,1.9039,1.9783,1.9432,1.8396,1.8266,1.7321,1.5836,1.3773,1.2751,1.1978,0.9264,0.7484,0.6005,0.3538,0.3001,0.2718,-0.061,-0.2914,-0.4381,-0.4325,-0.5378,-0.5868,-0.324,-0.1395,0.052,0.3309,0.5572,0.6922,0.6504,0.5371,0.4393,0.4227,0.3025,0.2924,0.576,0.744,0.8225,0.7806,0.8507,0.9089,0.916,0.9175,0.8868,0.8082,0.7725,0.6513,0.3918,0.1298,-0.098,-0.2812,-0.2819,-0.3056,-0.3624,-0.328,-0.2901,-0.2474,-0.2081,-0.1393,-0.0444,0.0464,0.1349,0.2209,0.3046,0.4003,-1.0649,-0.9826,-1.0087,-1.1338,-1.1734,-1.2521,0.0,-1.463,-1.3904,-1.4951,-1.4922,-1.4472,-1.3644,-1.3899,-1.4252,-1.4324,-1.504,-1.5973,-1.7142,-1.8128,-1.9045,-1.9844,-2.1848,-2.301,-2.2649,-2.3171,-2.3458,-2.3306,-2.1878,-2.0998,-2.0993,-0.9175,-0.2132,-0.1499,1.5439,1.5547,-0.3206,-0.5641,-1.1847,-2.1687,-1.1049,-0.4965,-0.2708,0.726,1.387,1.7437,1.7491,1.7221,1.6784,1.609,1.6019,1.6237,1.5295,1.3626,1.1943,1.3014,1.3406,1.2619,0.7355,0.5162,0.4512,0.3491,0.2495,0.2095,0.3882,0.3833,0.2931,0.1673,0.2059,0.2494,0.0833,0.2271,0.4381,0.5465,0.6689,0.761,0.7602,0.624,0.48,0.4024,0.4237,0.5226,0.7251,0.9943,1.1999,1.2466,1.2728,1.2849,1.2668,1.265,1.1784,0.9593,0.9019,0.7306,0.3593,0.2038,0.0464,-0.142,-0.1402,-0.1742,-0.2706,-0.2691,-0.2471,-0.2075,-0.1617,-0.1143,-0.066,0.0373,0.0977,0.1103,0.1716,0.2727,-1.4612,-1.3542,-1.2931,-1.4097,-1.4438,-1.4745,-1.5746,-1.5263,-1.4822,-1.5582,-1.4959,-1.4043,-1.3134,-1.2912,-1.2743,-1.231,-1.3133,-1.4017,-1.4541,-1.6367,-1.7915,-1.8753,-2.1085,-2.2676,-2.2776,-2.3647,-2.3809,-2.2839,-2.1352,-1.837,-1.3578,-0.6344,-0.0527,0.3424,1.3115,1.0906,-0.4407,-0.526,-1.1243,-2.2278,-1.5009,-0.9195,-0.4712,0.0282,0.598,1.2098,1.5246,1.6138,1.5372,1.518,1.4183,1.2752,1.2531,1.0985,0.8937,0.9399,0.9259,0.8316,0.4691,0.4122,0.5087,0.5785,0.5651,0.5647,0.7566,0.6792,0.5111,0.4289,0.3632,0.3225,0.3763,0.4788,0.6107,0.7843,0.8405,0.8415,0.793,0.6395,0.5088,0.5137,0.556,0.6773,0.9481,1.1737,1.3593,1.4894,1.4375,1.3693,1.3264,1.2949,1.2033,1.0216,0.8641,0.6982,0.5156,0.3485,0.2048,0.0815,0.0319,-0.0367,-0.1295,-0.1515,-0.17,-0.1865,-0.175,-0.122,-0.0292,-0.0263,0.0134,0.0889,0.08,0.1044,-1.5903,-1.5311,-1.4775,-1.587,-1.6519,-1.6747,-1.6272,-1.5873,-1.5627,-1.5723,-1.4775,-1.3657,-1.2735,-1.2251,-1.1802,-1.1217,-1.1937,-1.2764,-1.346,-1.5556,-1.7532,-1.8794,-2.1171,-2.2873,-2.3234,-2.3936,-2.3863,-2.27,-2.0629,-1.6406,-0.9402,-0.5183,-0.0338,0.5425,0.921,0.58,-0.5218,-0.4456,-0.9702,-2.0877,-1.721,-1.2198,-0.6175,-0.2805,0.2121,0.8247,1.2589,1.4213,1.3701,1.2797,1.1366,0.9673,0.955,0.828,0.6458,0.6186,0.5678,0.4919,0.3346,0.4185,0.6237,0.7901,0.874,0.9258,1.0268,0.904,0.7059,0.6014,0.5046,0.4476,0.5358,0.6482,0.7768,0.9258,0.9712,0.9498,0.8414,0.6973,0.6026,0.6363,0.6963,0.8364,1.1287,1.3173,1.4714,1.6206,1.5467,1.4525,1.3924,1.2938,1.1704,1.0306,0.8341,0.6865,0.6228,0.4803,0.3368,0.2186,0.1532,0.0671,-0.0551,-0.0808,-0.137,-0.2201,-0.2314,-0.1858,-0.0921,-0.1427,-0.1067,0.009,-0.0312,-0.0488,-1.2415,-1.3,-1.3935,-1.5592,-1.7274,-1.8382,-1.7778,-1.7321,-1.6759,-1.5814,-1.491,-1.3946,-1.2888,-1.2277,-1.1865,-1.1773,-1.1805,-1.2696,-1.5093,-1.654,-1.8172,-2.0368,-2.2363,-2.3675,-2.3951,-2.3537,-2.3286,-2.3363,-1.9886,-1.7001,-1.5233,-0.9502,-0.5699,-0.451,0.273,0.2427,-0.6283,-0.3302,-0.6728,-1.6457,-1.4257,-1.198,-0.9358,0.2527,0.7685,0.7467,1.0392,1.1618,1.1274,0.735,0.645,0.7482,0.6149,0.5167,0.447,0.446,0.4436,0.4301,0.4254,0.5624,0.7662,0.9098,1.0498,1.167,1.1738,1.124,1.0046,0.7278,0.7945,0.8768,0.518,0.7141,0.9875,0.9128,1.024,1.1032,0.9273,0.8346,0.7802,0.7443,0.8539,1.0159,1.2187,1.4235,1.5784,1.6411,1.6471,1.622,1.5605,1.3426,1.1376,0.9973,0.8711,0.7398,0.6037,0.5603,0.4403,0.1984,0.1912,0.1051,-0.1004,-0.1104,-0.1799,-0.3227,-0.3279,-0.323,-0.3224,-0.3111,-0.264,-0.1893,-0.1818,-0.1739,-1.4225,-1.5041,-1.6038,-1.7769,-1.8146,-1.7958,-1.7472,-1.6692,-1.5844,-1.5085,-1.3781,-1.2735,-1.2591,-1.2401,-1.2349,-1.2571,-1.3155,-1.4133,-1.574,-1.7427,-1.9118,-2.0953,-2.2865,-2.4225,-2.4695,-2.4366,-2.3911,-2.338,-2.0074,-1.7084,-1.4715,-0.9398,-0.4927,-0.1769,0.082,-0.0264,-0.5363,-0.6072,-1.0346,-1.8054,-1.3652,-0.9495,-0.5316,0.2126,0.6954,0.946,0.8926,0.8484,0.7942,0.6676,0.5552,0.4746,0.5321,0.4736,0.3704,0.4204,0.4365,0.4351,0.4351,0.644,0.9003,0.8989,0.9688,1.0356,0.9864,0.9259,0.8435,0.6983,0.7101,0.7723,0.7835,0.8648,0.9834,1.1247,1.1425,1.1139,1.0334,0.9627,0.9346,1.013,1.0985,1.2252,1.4246,1.5496,1.6281,1.6466,1.6522,1.6138,1.5193,1.339,1.1848,1.0887,0.8709,0.7255,0.7036,0.541,0.3853,0.2627,0.1287,-0.0156,-0.161,-0.2646,-0.3586,-0.4492,-0.4603,-0.4397,-0.389,-0.3852,-0.343,-0.2761,-0.3585,-0.3989,-1.5612,-1.6567,-1.7342,-1.8918,-1.8839,-1.8194,-1.7522,-1.6696,-1.5935,-1.5436,-1.3896,-1.2736,-1.2945,-1.2981,-1.3157,-1.3702,-1.4851,-1.6062,-1.7188,-1.8846,-2.0367,-2.1562,-2.3331,-2.4561,-2.479,-2.468,-2.4308,-2.3564,-2.0235,-1.6719,-1.3276,-0.8622,-0.3838,0.1008,0.0385,-0.1083,-0.3324,-0.6592,-1.1576,-1.8198,-1.297,-0.8813,-0.5512,0.1103,0.5504,0.7913,0.7378,0.6702,0.5949,0.5647,0.5093,0.4504,0.4953,0.5008,0.4837,0.4805,0.4976,0.5198,0.5186,0.6849,0.9051,0.9341,0.9923,1.0458,1.0281,0.9872,0.9363,0.8351,0.8298,0.8659,0.9475,0.9884,1.0491,1.2122,1.2147,1.1709,1.1271,1.0948,1.1081,1.1902,1.2732,1.3776,1.533,1.6095,1.6423,1.6194,1.6194,1.5842,1.49,1.3303,1.1895,1.0837,0.8734,0.7145,0.6491,0.4954,0.3398,0.1972,0.0591,-0.0862,-0.242,-0.3649,-0.4722,-0.5604,-0.5987,-0.5779,-0.5077,-0.4988,-0.4496,-0.3538,-0.458,-0.5091,-1.6482,-1.7443,-1.7859,-1.9068,-1.943,-1.9161,-1.8063,-1.7516,-1.7111,-1.6683,-1.5188,-1.3936,-1.385,-1.3953,-1.4322,-1.5147,-1.6761,-1.8263,-1.929,-2.0666,-2.1717,-2.2125,-2.3693,-2.461,-2.4307,-2.4414,-2.4282,-2.3776,-2.0187,-1.5969,-1.1354,-0.7419,-0.2651,0.3172,0.117,-0.0168,-0.0439,-0.5093,-1.0486,-1.6417,-1.2064,-0.9717,-0.9004,-0.0153,0.3793,0.3724,0.575,0.6267,0.549,0.4505,0.5042,0.6513,0.5194,0.5905,0.7517,0.614,0.6046,0.6637,0.6607,0.7074,0.7964,1.0023,1.1173,1.1922,1.2608,1.2822,1.255,1.1206,1.1273,1.1449,1.0148,1.0822,1.1814,1.1864,1.2403,1.2715,1.2021,1.2395,1.287,1.287,1.3861,1.4914,1.5531,1.6095,1.6238,1.5632,1.5487,1.5264,1.4698,1.3109,1.1422,0.9796,0.8622,0.6984,0.4631,0.4316,0.3042,0.0111,-0.0111,-0.1112,-0.3398,-0.4158,-0.5198,-0.6642,-0.7289,-0.7289,-0.6588,-0.6373,-0.56,-0.4256,-0.4859,-0.517,-1.8448,-1.9235,-1.981,-2.0309,-2.0324,-2.0048,-1.9342,-1.915,-1.8626,-1.6875,-1.5718,-1.4589,-1.3199,-1.4717,-1.6201,-1.6153,-1.8003,-1.9588,-1.9986,-2.0575,-2.1172,-2.1807,-2.303,-2.3858,-2.3916,-2.3338,-2.2571,-2.16,-1.8532,-1.5039,-1.1241,-0.6951,-0.1564,0.5016,0.1821,0.0591,0.1752,-0.757,-1.1831,-1.0861,-1.0647,-0.7334,-0.1341,0.0278,0.4062,0.9144,0.5976,0.5887,0.7891,0.7643,0.7818,0.8223,0.8357,0.8608,0.8834,0.7877,0.7499,0.7343,0.6794,0.7416,0.8515,0.9082,1.0351,1.1769,1.1926,1.2033,1.1926,1.1554,1.1282,1.1116,1.124,1.1516,1.195,1.251,1.2774,1.2832,1.2666,1.3112,1.3663,1.4122,1.5174,1.6083,1.6238,1.6008,1.562,1.497,1.4114,1.348,1.329,1.1974,1.0507,0.912,0.7289,0.569,0.4477,0.3385,0.1721,-0.0666,-0.1335,-0.2611,-0.4882,-0.5647,-0.6465,-0.7396,-0.7074,-0.6804,-0.6588,-0.5504,-0.4783,-0.446,-0.5646,-0.6207,-1.983,-2.0728,-2.1309,-2.1112,-2.112,-2.0793,-1.9179,-1.886,-1.8274,-1.5967,-1.4685,-1.3564,-1.2153,-1.443,-1.6422,-1.6146,-1.932,-2.1692,-2.1421,-2.2085,-2.2517,-2.2382,-2.2954,-2.3472,-2.3731,-2.2554,-2.1273,-2.0051,-1.7005,-1.3726,-1.0211,-0.6138,-0.1282,0.4545,0.163,-0.0061,-0.0237,-0.7919,-1.078,-0.8788,-0.8417,-0.5199,0.0378,0.1324,0.4657,0.9649,0.7255,0.7352,0.9291,0.9408,0.9957,1.0684,1.0413,1.0613,1.0895,0.9604,0.9152,0.8989,0.8063,0.8782,1.0021,0.9375,1.03,1.1778,1.215,1.2434,1.2561,1.2297,1.215,1.215,1.2236,1.2304,1.2363,1.2774,1.2881,1.2881,1.2881,1.3563,1.4468,1.5332,1.6064,1.6423,1.6139,1.582,1.5196,1.4,1.2944,1.1978,1.1098,1.0327,0.9299,0.7923,0.6392,0.4929,0.355,0.2389,0.0778,-0.1445,-0.2282,-0.3395,-0.4999,-0.6041,-0.6637,-0.674,-0.6961,-0.6745,-0.6091,-0.5332,-0.4787,-0.4515,-0.5937,-0.6588,-2.0916,-2.1816,-2.2057,-2.1541,-2.1756,-2.1366,-1.8552,-1.8037,-1.7386,-1.4638,-1.3168,-1.2034,-1.102,-1.3411,-1.5611,-1.5766,-2.0202,-2.3467,-2.2994,-2.4074,-2.4488,-2.3325,-2.3227,-2.3374,-2.3581,-2.1999,-2.0357,-1.8901,-1.5496,-1.2024,-0.8653,-0.4987,-0.116,0.2804,0.1482,-0.0624,-0.3348,-0.6663,-0.8061,-0.7639,-0.5759,-0.3356,-0.0334,0.2585,0.5524,0.8389,0.9095,1.0013,1.0924,1.1056,1.2052,1.3451,1.2192,1.2406,1.3159,1.1456,1.1044,1.1106,0.9971,1.0762,1.2049,1.0624,1.1124,1.2382,1.3115,1.3699,1.3909,1.3296,1.3467,1.3637,1.3065,1.2871,1.2812,1.2812,1.2812,1.2812,1.2812,1.3736,1.4926,1.6064,1.625,1.6095,1.5588,1.5353,1.4642,1.2898,1.1862,1.0589,0.8672,0.8416,0.7929,0.6592,0.5688,0.4326,0.2228,0.1388,0.0,-0.2228,-0.2954,-0.3732,-0.4736,-0.5878,-0.6253,-0.5814,-0.6848,-0.6794,-0.5487,-0.5433,-0.5058,-0.4515,-0.5823,-0.648,-2.1942,-2.1651,-2.121,-2.1361,-2.1756,-2.1551,-1.9494,-1.9547,-1.8774,-1.4373,-1.3261,-1.2466,-1.0331,-1.2021,-1.4429,-1.65,-1.9294,-2.1884,-2.3823,-2.4334,-2.4282,-2.3653,-2.3604,-2.349,-2.3128,-2.1644,-1.9806,-1.776,-1.3525,-0.974,-0.6807,-0.2718,0.0193,0.1578,0.3396,0.2747,-0.0665,-0.395,-0.4189,-0.1582,-0.3829,-0.2087,0.3055,0.3645,0.6815,1.1791,1.1353,1.3125,1.621,1.5662,1.5605,1.5895,1.5578,1.5123,1.445,1.3515,1.2983,1.2698,1.1875,1.2589,1.3666,1.2708,1.3442,1.4838,1.5565,1.5556,1.5174,1.456,1.4107,1.3637,1.3065,1.2626,1.2407,1.2407,1.2407,1.2407,1.2407,1.3214,1.419,1.488,1.5017,1.4971,1.488,1.3961,1.2984,1.2055,1.0386,0.8659,0.7165,0.6983,0.6651,0.5806,0.4494,0.3056,0.1443,0.0611,-0.0778,-0.2952,-0.3289,-0.4226,-0.615,-0.5873,-0.6195,-0.7283,-0.6357,-0.5756,-0.5487,-0.4948,-0.4625,-0.4515,-0.5328,-0.5706,-2.1512,-2.1171,-2.0845,-2.0576,-2.0993,-2.0746,-1.7954,-1.7607,-1.6625,-1.2136,-1.1267,-1.084,-0.926,-1.1352,-1.3525,-1.4185,-1.8375,-2.1801,-2.2559,-2.4296,-2.5211,-2.4465,-2.3867,-2.3502,-2.3335,-2.108,-1.8975,-1.7347,-1.2206,-0.8027,-0.5451,-0.0564,0.2554,0.3304,0.3704,0.3309,0.2054,-0.0889,-0.1589,0.0,-0.0246,0.1644,0.5301,0.7078,0.9972,1.3466,1.3525,1.4869,1.6978,1.661,1.6666,1.709,1.7047,1.6517,1.5639,1.5044,1.4864,1.4798,1.3802,1.4576,1.5912,1.546,1.5561,1.5928,1.6307,1.6432,1.6268,1.5255,1.5023,1.4789,1.377,1.2992,1.2402,1.2402,1.2232,1.2222,1.2916,1.3446,1.3956,1.456,1.4698,1.4503,1.3831,1.3205,1.2318,1.0931,0.9231,0.7606,0.6225,0.5358,0.4761,0.4443,0.3395,0.2115,0.0666,-0.0167,-0.1333,-0.3176,-0.3735,-0.4453,-0.5445,-0.5492,-0.5651,-0.6041,-0.5706,-0.5324,-0.5003,-0.468,-0.4519,-0.4519,-0.5164,-0.5706,-2.0744,-2.0601,-2.0524,-1.9967,-2.0269,-1.9765,-1.6302,-1.5501,-1.4319,-1.016,-0.9403,-0.931,-0.8682,-1.073,-1.2456,-1.221,-1.7118,-2.1128,-2.1566,-2.4156,-2.5831,-2.5359,-2.427,-2.3544,-2.3405,-2.0712,-1.8398,-1.6966,-1.1022,-0.6185,-0.3388,0.1361,0.4106,0.4338,0.3245,0.2783,0.3091,0.1045,0.0263,0.087,0.2708,0.4918,0.7463,1.0261,1.2622,1.4483,1.538,1.6249,1.6978,1.6903,1.7247,1.7852,1.7852,1.7468,1.6925,1.6438,1.6534,1.6802,1.5725,1.6447,1.7841,1.7773,1.7311,1.6761,1.6912,1.7079,1.7022,1.5749,1.5658,1.568,1.444,1.3415,1.276,1.276,1.2382,1.2351,1.3504,1.3662,1.3742,1.4201,1.4179,1.3737,1.2773,1.2327,1.158,0.9843,0.8311,0.686,0.5446,0.399,0.301,0.2899,0.2173,0.1169,-0.0111,-0.1055,-0.2166,-0.3456,-0.4125,-0.457,-0.4736,-0.5058,-0.5109,-0.4732,-0.5109,-0.5003,-0.4519,-0.4519,-0.4519,-0.4519,-0.5058,-0.5655,-2.0289,-2.0044,-1.9865,-2.0169,-2.007,-1.9126,-1.6175,-1.5501,-1.4319,-1.016,-0.9403,-0.9472,-0.94,-0.9745,-1.0849,-1.3298,-1.5167,-1.7969,-2.2701,-2.3961,-2.4854,-2.6049,-2.4976,-2.3793,-2.286,-2.0855,-1.8678,-1.636,-0.9595,-0.3719,0.0531,0.279,0.3261,0.1737,0.2264,0.1867,0.0403,0.0134,0.1198,0.354,0.2967,0.5284,1.0053,1.1049,1.2847,1.5312,1.6757,1.7786,1.8501,1.8489,1.8543,1.8608,1.8608,1.8555,1.8382,1.7686,1.7915,1.8382,1.762,1.7904,1.8608,1.8596,1.8218,1.787,1.8585,1.797,1.6961,1.6327,1.568,1.5029,1.4291,1.3783,1.3519,1.3519,1.3157,1.2932,1.3413,1.3244,1.3017,1.3065,1.253,1.2003,1.1904,1.0864,0.9791,0.8947,0.7581,0.6136,0.4696,0.3222,0.2063,0.1397,0.0669,-0.0111,-0.0943,-0.2279,-0.3453,-0.4349,-0.446,-0.4787,-0.5378,-0.4897,-0.4842,-0.5378,-0.4897,-0.457,-0.4519,-0.4519,-0.4519,-0.4519,-0.457,-0.4948,-1.9358,-1.9225,-1.909,-1.9001,-1.8693,-1.7755,-1.5228,-1.4186,-1.2846,-0.9717,-0.9159,-0.9293,-0.9367,-0.9491,-0.9968,-1.118,-1.3413,-1.5697,-1.7827,-1.9756,-2.1569,-2.321,-2.2399,-2.194,-2.2626,-2.0899,-1.7901,-1.3674,-0.9302,-0.5567,-0.2839,0.1056,0.3306,0.3629,0.2983,0.2521,0.238,0.238,0.2578,0.3169,0.5928,0.8101,0.9712,1.2514,1.4317,1.5408,1.7423,1.8447,1.8715,1.8715,1.898,1.9307,1.8874,1.8715,1.8661,1.8394,1.8447,1.8661,1.8382,1.8447,1.8715,1.8715,1.8254,1.7931,1.9115,1.8802,1.7942,1.7262,1.6526,1.5784,1.5071,1.4317,1.363,1.3385,1.3149,1.3041,1.3101,1.2998,1.2782,1.2281,1.1946,1.1626,1.1196,1.0265,0.9334,0.8602,0.7198,0.564,0.4051,0.3008,0.1882,0.0578,-0.0226,-0.0947,-0.1725,-0.2728,-0.368,-0.446,-0.4519,-0.4625,-0.4893,-0.4625,-0.4625,-0.4893,-0.4625,-0.4519,-0.4519,-0.4519,-0.4736,-0.5109,-0.5109,-0.571,-1.8653,-1.8722,-1.8629,-1.8333,-1.7874,-1.6901,-1.462,-1.3311,-1.1903,-0.9407,-0.9011,-0.9119,-0.9218,-0.9385,-0.9534,-0.9625,-1.1782,-1.3772,-1.4719,-1.6727,-1.8768,-2.0584,-2.0132,-2.0131,-2.124,-1.995,-1.733,-1.3182,-1.0629,-0.8559,-0.683,-0.2731,0.0588,0.2814,0.1716,0.1588,0.2768,0.2768,0.2838,0.3043,0.7017,0.9068,0.9593,1.3525,1.5389,1.5753,1.8012,1.8874,0.0,1.8715,1.8992,1.9423,1.8661,1.8661,1.898,1.8768,1.8715,1.8715,1.8715,1.8555,1.8394,1.8394,1.8004,1.7797,1.8821,1.8608,1.8015,1.7688,1.6922,1.6036,1.5517,1.484,1.4194,1.3849,1.3691,1.3488,1.3157,1.3003,1.2639,1.1839,1.1327,1.0876,1.0379,0.9453,0.8457,0.7763,0.6703,0.5438,0.379,0.2944,0.1952,0.0538,-0.0759,-0.1712,-0.2179,-0.3121,-0.3959,-0.446,-0.4519,-0.4519,-0.4519,-0.4519,-0.4519,-0.4519,-0.4519,-0.4519,-0.4519,-0.4677,-0.5058,-0.5487,-0.5706,-0.6524,-1.8279,-1.8697,-1.8676,-1.8608,-1.8038,-1.6901,-1.462,-1.3311,-1.1903,-0.9407,-0.9011,-0.9099,-0.9099,-0.9321,-0.95,-0.9508,-1.032,-1.2049,-1.5233,-1.6114,-1.7117,-1.9007,-1.9026,-1.8745,-1.8304,-1.7823,-1.7126,-1.6132,-1.3996,-1.1986,-1.0228,-0.86,-0.6096,-0.2657,-0.2526,-0.1735,0.0,0.0067,0.1332,0.3923,0.4863,0.7108,1.0499,1.3717,1.5625,1.6546,1.8785,1.9371,0.0,1.8715,1.8715,1.8661,1.7895,1.8489,1.9695,1.898,1.8715,1.8715,1.8715,1.8232,1.7633,1.7633,1.7633,1.7578,1.7633,1.709,1.6652,1.7413,1.6518,1.541,1.541,1.541,1.54,1.54,1.5078,1.4542,1.3741,1.32,1.2639,1.1839,1.0472,0.9446,0.9388,0.8111,0.6883,0.6113,0.5992,0.5449,0.3992,0.3011,0.2213,0.1354,-0.0982,-0.2395,-0.2244,-0.3624,-0.4519,-0.4519,-0.4519,-0.4519,-0.4519,-0.4519,-0.4519,-0.4519,-0.4519,-0.4519,-0.4519,-0.5164,-0.5487,-0.5542,-0.6253,-0.6966,-1.5921,-1.62,-1.6098,-1.5529,-1.477,-1.3842,-1.2608,-1.1551,-1.0454,-0.9168,-0.8936,-0.9022,-0.9199,-0.9312,-0.9789,-1.1077,-1.1526,-1.226,-1.3849,-1.5104,-1.6461,-1.8135,-2.0211,-2.1102,-2.0102,-1.9765,-1.9294,-1.839,-1.6709,-1.5031,-1.3566,-1.2435,-0.9813,-0.5431,-0.4742,-0.4164,-0.3643,-0.0654,0.0978,0.1304,0.5155,0.8196,1.0499,1.2574,1.4888,1.7269,1.8004,1.8447,1.8573,1.7306,1.733,1.8076,1.7459,1.8048,1.9208,1.8859,1.8715,1.8608,1.8112,1.7468,1.6877,1.6877,1.6528,1.6197,1.6698,1.6708,1.6425,1.6187,1.5738,1.541,1.541,1.541,1.541,1.541,1.4887,1.4141,1.3373,1.2617,1.1939,1.1109,1.0069,0.9321,0.9321,0.7933,0.6735,0.6544,0.5981,0.5213,0.4105,0.3195,0.2266,0.14,-0.0381,-0.1748,-0.2335,-0.3876,-0.4775,-0.4775,-0.4775,-0.4775,-0.4775,-0.4775,-0.4775,-0.4775,-0.4775,-0.4721,-0.4619,-0.4841,-0.5398,-0.6258,-0.702,-0.7723,-1.4299,-1.4683,-1.4602,-1.4034,-1.3274,-1.2477,-1.1674,-1.0726,-0.9794,-0.9044,-0.8891,-0.8968,-0.9179,-0.9257,-0.9698,-1.0913,-1.1159,-1.1855,-1.3726,-1.4816,-1.6199,-1.8352,-2.0243,-2.1297,-2.1064,-2.1041,-2.0903,-2.0651,-1.9196,-1.8007,-1.7144,-1.5563,-1.3316,-1.0302,-0.797,-0.6423,-0.5773,-0.208,-0.0326,-0.0459,0.4816,0.8254,0.9998,1.2598,1.4898,1.6972,1.739,1.763,0.0,1.6375,1.6417,1.7092,1.6735,1.7283,1.819,1.7905,1.7872,1.7731,1.668,1.6203,1.6036,1.5728,1.5517,1.5468,1.5921,1.6265,1.6379,1.5584,1.541,1.541,1.541,1.541,1.5294,1.4991,1.4569,1.3906,1.2818,1.2143,1.1593,1.0744,0.9652,0.8812,0.8812,0.7377,0.6203,0.6203,0.5752,0.516,0.4619,0.3747,0.286,0.1898,0.0326,-0.1166,-0.2481,-0.3732,-0.4549,-0.4857,-0.4918,-0.4918,-0.4918,-0.461,-0.4549,-0.4918,-0.4549,-0.4505,-0.4775,-0.5067,-0.5838,-0.7093,-0.7586,-0.8141,0.0,-1.3792,-1.3788,-1.3608,-1.3033,-1.2313,-1.1498,-1.0593,0.0,-0.9044,-0.8902,-0.8974,-0.9175,-0.9271,-0.9412,-0.9717,-0.9873,-1.1204,-1.478,-1.5473,-1.672,-1.9773,-1.9777,-2.0034,-2.1358,-2.1714,-2.2072,-2.2637,-2.1472,-2.066,-2.0548,-1.7924,-1.6364,-1.6084,-1.1578,-0.8392,-0.6711,-0.4022,-0.2187,-0.1056,0.4035,0.7463,0.9425,1.3339,1.5439,1.6007,1.6928,1.6764,1.5867,1.5836,1.5771,1.5706,1.5771,1.6192,1.6791,1.6377,1.6296,1.612,1.4594,1.4573,1.5108,1.4392,1.4628,1.5235,1.5294,1.5806,1.6265,1.5584,1.5352,1.5294,1.5294,1.5284,1.505,1.4264,1.4085,1.3597,1.2135,1.1772,1.1469,1.0744,0.9192,0.8027,0.8027,0.6535,0.5428,0.5428,0.5428,0.5428,0.5428,0.4553,0.368,0.2811,0.1136,-0.0668,-0.2476,-0.3253,-0.4019,-0.4887,-0.4952,-0.4952,-0.4952,-0.4142,-0.4081,-0.4952,-0.4133,-0.4128,-0.4935,-0.5638,-0.6665,-0.783,-0.7942,-0.8275,-1.0273,0.0,-1.1036,-1.0383,-1.0013,-0.9761,0.0,-0.9327,-0.9111,-0.8925,-0.899,-0.929,-1.0031,-0.9778,-1.0105,-1.2093,-1.2425,-1.3518,-1.6572,-1.8998,-2.1182,-2.318,-2.2903,-2.253,-2.2423,-2.2849,-2.3024,-2.271,-2.2392,-2.1485,-1.985,-1.8682,-1.6697,-1.3788,-1.1372,-0.9581,-0.8524,-0.527,-0.2235,0.0646,0.4495,0.8012,1.1092,1.265,1.4473,1.6325,1.538,1.5168,1.5422,1.5153,1.4605,1.3989,1.4678,1.4969,1.4969,1.4754,1.4634,1.4604,1.4287,1.3897,1.3545,1.3373,1.3433,1.3666,1.4332,1.504,1.5642,1.5468,1.4932,1.451,1.451,1.4034,1.3545,1.3312,1.281,1.2258,1.1888,1.1351,1.0807,1.0624,0.9192,0.8027,0.8027,0.6535,0.5428,0.5428,0.5428,0.5428,0.5428,0.4553,0.368,0.2811,0.1674,0.0268,-0.1474,-0.3043,-0.4333,-0.5192,-0.5257,-0.5257,-0.5257,-0.5058,-0.5058,-0.5257,-0.4947,-0.4826,-0.5081,-0.5811,-0.6611,-0.7443,-0.8096,-0.8837,-0.9109,-0.9725,-1.0225,-0.973,-0.9549,-0.9469,-0.9428,-0.9145,-0.8891,-0.8891,-0.8957,-0.9206,-0.9832,-1.0161,-1.0741,-1.1983,-1.3522,-1.5658,-1.8901,-2.1204,-2.3008,-2.4178,-2.3364,-2.2721,-2.2702,-2.3005,-2.3041,-2.2739,-2.2717,-2.2058,-2.0558,-1.8562,-1.615,-1.3301,-0.9833,-0.7949,-0.7906,-0.3699,-0.0259,0.2496,0.6325,0.937,1.1661,1.2498,1.372,1.5155,1.4477,1.4508,1.5049,1.4459,1.395,1.3459,1.3573,1.3555,1.3516,1.3584,1.3614,1.3562,1.3226,1.281,1.2512,1.2887,1.3009,1.3122,1.3965,1.451,1.4932,1.5294,1.5108,1.4688,1.4332,1.3906,1.3364,1.2634,1.2143,1.171,1.1351,1.0926,1.0498,1.011,0.9262,0.8355,0.7567,0.6593,0.5881,0.5491,0.5428,0.5428,0.5428,0.4553,0.368,0.2811,0.1876,0.0402,-0.1741,-0.2811,-0.3816,-0.4688,-0.516,-0.5428,-0.5428,-0.4957,-0.4755,-0.4755,-0.5462,-0.5804,-0.5804,-0.6656,-0.7358,-0.7985,-0.8471,-0.9079,-0.9315,-1.0214,-1.0854,-1.0169,-1.0082,-1.011,-0.9886,-0.9337,-0.8891,-0.8891,-0.8913,-0.9114,-0.9683,-1.0674,-1.1458,-1.1652,-1.4515,-1.7893,-2.1267,-2.2637,-2.3585,-2.4324,-2.2978,-2.2173,-2.2664,-2.2724,-2.2622,-2.2435,-2.2323,-2.1839,-2.081,-1.747,-1.459,-1.2365,-0.7432,-0.4794,-0.4893,-0.0706,0.2567,0.4915,0.864,1.0911,1.1943,1.2663,1.3186,1.3504,1.3892,0.0,1.4468,1.3889,1.3544,1.3246,1.2555,1.2319,1.236,1.2712,1.2879,1.2887,1.2081,1.1834,1.1888,1.2451,1.2642,1.2826,1.3726,1.4025,1.4204,1.5108,1.5294,1.505,1.4213,1.3906,1.3476,1.1958,1.1648,1.1406,1.0744,1.0624,1.0364,0.9658,0.9274,0.8613,0.7177,0.6654,0.6268,0.5491,0.5428,0.5428,0.5428,0.4553,0.368,0.2811,0.1741,0.0134,-0.2275,-0.2744,-0.3211,-0.3949,-0.4888,-0.5428,-0.5428,-0.4619,-0.4215,-0.4215,-0.5734,-0.6527,-0.6527,-0.7502,-0.8244,-0.8668,-0.8977,-0.9417,-1.1248,-1.2803,-1.309,-0.9893,-0.9576,-0.9869,-0.9213,-0.8976,-0.8891,-0.8891,-0.9001,-0.9684,-1.1651,-1.1907,-1.258,-1.4931,-1.7888,-2.0696,-2.3021,-2.3856,-2.4625,-2.5735,-2.4364,-2.3146,-2.2727,-2.2724,-2.2248,-2.1092,-2.046,-1.9204,-1.7033,-1.4554,-1.1144,-0.6611,-0.4134,-0.1233,0.2351,0.2361,0.4742,0.9439,0.9988,1.1128,1.281,1.289,1.2987,1.3116,0.0,1.3218,1.3348,1.3886,1.3331,1.2058,1.1943,1.1882,1.1889,1.1935,1.2451,1.2887,1.2081,1.1834,1.171,1.117,1.0989,1.1233,1.2704,1.3191,1.3485,1.4991,1.4932,1.4213,1.3364,1.2696,1.1958,1.0982,1.0807,1.0744,1.0624,1.0624,1.0561,1.0428,0.9192,0.8091,0.7832,0.6597,0.5557,0.5428,0.5428,0.5428,0.5428,0.4553,0.368,0.2811,0.1202,-0.0267,-0.1406,-0.2945,-0.3882,-0.4015,-0.4888,-0.5428,-0.5428,-0.5292,-0.516,-0.516,-0.5488,-0.5624,-0.5624,-0.7181,-0.8071,-0.8163,-0.9648,-1.076,-1.0178,-1.1248,-1.1959,-1.1449,-1.3075,-1.4716,-1.4377,-1.3988,-1.3362,-1.2162,-1.1967,-1.2109,-1.2385,-1.358,-1.5745,-1.9571,-2.0508,-2.1441,-2.3604,-2.2936,-2.2652,-2.3936,-2.2561,-2.1515,-2.1605,-2.1934,-2.1736,-2.0793,-1.9999,-1.8326,-1.5511,-1.1819,-0.7963,-0.3734,-0.0536,0.2732,0.616,0.6229,0.7659,1.047,1.0884,1.1544,1.2328,1.2296,1.2549,1.3009,0.0,1.3906,1.4273,1.3786,1.3122,1.2389,1.1476,1.1406,1.1834,1.1834,1.2328,1.2826,1.1593,1.1163,1.117,1.1226,1.1226,1.1531,1.3183,1.3674,1.3906,1.505,1.5108,1.4569,1.3312,1.2757,1.2151,1.0863,1.0624,1.0498,0.9977,0.9919,0.9588,0.8667,0.8215,0.7702,0.6728,0.6338,0.5943,0.5491,0.5428,0.5428,0.5428,0.4151,0.2941,0.207,0.0334,-0.1271,-0.2611,-0.3547,-0.4215,-0.4755,-0.516,-0.5428,-0.5428,-0.5428,-0.5428,-0.5428,-0.5881,-0.6071,-0.6141,-0.7832,-0.8683,-0.8748,-1.004,-1.0807,-0.9552,-1.0233,-1.135,-1.3616,-1.5494,-1.7134,-1.8352,-1.7676,-1.6492,-1.5474,-1.5271,-1.4937,-1.3854,-1.5815,-1.8776,-2.2536,-2.2145,-2.202,-2.3875,-2.2342,-2.1434,-2.2439,-2.1417,-2.0752,-2.1141,-2.1501,-2.126,-2.0229,-1.907,-1.6935,-1.3501,-0.8995,-0.4858,-0.1129,0.2649,0.5881,0.8544,0.9302,1.0136,1.1114,1.1571,1.1896,1.2081,1.2081,1.2451,1.307,1.3846,1.4569,1.4991,1.3614,1.3009,1.2826,1.1233,1.1233,1.2081,1.2081,1.2451,1.2826,1.1608,1.1052,1.0989,1.1834,1.2081,1.232,1.3786,1.4094,1.4154,1.5108,1.5118,1.4569,1.3312,1.2887,1.2328,1.0926,1.0624,1.0364,0.9466,0.9274,0.8812,0.7307,0.7372,0.7246,0.5947,0.6075,0.6137,0.5491,0.5226,0.5103,0.5068,0.3513,0.2031,0.1019,-0.061,-0.236,-0.4154,-0.435,-0.4619,-0.5359,-0.5428,-0.5428,-0.5428,-0.5428,-0.5428,-0.5428,-0.6075,-0.6396,-0.6396,-0.8156,-0.9011,-0.9005,-1.011,-1.0681,-1.1468,-1.2584,-1.3684,-1.592,-1.3532,-1.191,-1.6779,-1.5714,-1.4463,-1.7033,-1.7574,-1.754,-1.7422,-1.89,-2.0455,-2.1409,-2.2433,-2.3396,-2.4111,-2.3705,-2.3353,-2.3328,-2.3314,-2.3116,-2.2634,-2.203,-2.084,-1.8735,-1.661,-1.3634,-0.9548,-0.5833,-0.185,0.2568,0.4793,0.7153,0.9921,1.0517,1.1468,1.2818,1.2143,1.2205,1.2887,1.2887,1.2948,1.307,1.3846,1.4204,1.4213,1.3373,1.3009,1.2826,1.1233,1.1538,1.2887,1.2887,1.2948,1.3009,1.2887,1.2328,1.1834,1.2634,1.2887,1.307,1.3965,1.3666,1.3433,1.4932,1.4332,1.313,1.3009,1.2451,1.1648,1.0807,1.0624,1.0364,0.9466,0.9274,0.9011,0.8091,0.7307,0.6785,0.6654,0.6009,0.5491,0.5428,0.4686,0.4121,0.4089,0.2504,0.0983,0.0,-0.1621,-0.3303,-0.5169,-0.5292,-0.5362,-0.5428,-0.5428,-0.5428,-0.5428,-0.5428,-0.5428,-0.5428,-0.5491,-0.5491,-0.5491,-0.7246,-0.8091,-0.8156,-0.9843,-1.0982,-0.9958,-1.1525,-1.3293,-1.4927,-1.4138,-1.4318,-1.9428,-1.9829,-1.9551,-2.1106,-2.0806,-2.0043,-1.9239,-2.0352,-2.1405,-2.1446,-2.1583,-2.1887,-2.2555,-2.1895,-2.1557,-2.2253,-2.2405,-2.2185,-2.1532,-2.1212,-1.994,-1.7358,-1.4812,-1.1387,-0.6736,-0.2463,0.1445,0.4886,0.7466,0.951,1.116,1.1838,1.2949,1.4558,1.3215,1.2696,1.3009,1.3545,1.3734,1.3786,1.4628,1.4688,1.4145,1.3304,1.2696,1.2266,1.2151,1.2458,1.307,1.3545,1.3734,1.3666,1.3183,1.2451,1.2012,1.3304,1.3061,1.2512,1.3786,1.3974,1.3795,1.3906,1.3494,1.3009,1.3009,1.2389,1.1586,1.08,1.0624,1.0364,0.9466,0.9462,0.9107,0.7631,0.7104,0.6768,0.6101,0.5688,0.5226,0.4619,0.4211,0.379,0.3273,0.1556,0.0,-0.0939,-0.3228,-0.488,-0.5446,-0.5018,-0.4639,-0.4558,-0.509,-0.5428,-0.5428,-0.5428,-0.5428,-0.5428,-0.5428,-0.5428,-0.5428,-0.712,-0.8027,-0.8027,-0.9779,-1.0744,-0.9603,-1.0831,-1.2494,-1.394,-1.4234,-1.5471,-2.0397,-2.1554,-2.2049,-2.3761,-2.2718,-2.1166,-2.0048,-2.0382,-2.0831,-2.0685,-2.0746,-2.087,-2.1096,-2.0926,-2.0925,-2.1366,-2.1785,-2.1653,-2.0735,-1.9994,-1.8331,-1.5381,-1.2208,-0.8351,-0.352,0.0656,0.4182,0.7026,0.9611,1.1403,1.2164,1.3279,1.4396,1.5441,1.4595,1.4162,1.4153,1.4335,1.4403,1.4454,1.4565,1.4332,1.3786,1.294,1.2328,1.1834,1.2389,1.294,1.3425,1.3726,1.3965,1.4145,1.3554,1.2879,1.2443,1.4085,1.3657,1.2749,1.3846,1.4025,1.3734,1.3122,1.2642,1.2274,1.2573,1.202,1.1226,1.0358,1.0238,1.0039,0.919,0.9186,0.8879,0.7298,0.7095,0.6822,0.5863,0.5293,0.4813,0.4191,0.3559,0.2905,0.2359,0.0872,-0.0587,-0.1905,-0.4031,-0.5303,-0.5173,-0.431,-0.3716,-0.3577,-0.4191,-0.4569,-0.4556,-0.4821,-0.4957,-0.4957,-0.5226,-0.5557,-0.5815,-0.7312,-0.8156,-0.842,-0.9907,-1.0624,-1.1062,-1.1099,-1.1561,-1.3412,-1.3357,-1.4076,-1.873,-1.9531,-2.0416,-2.434,-2.2847,-2.0646,-1.9821,-1.896,-1.8479,-1.8838,-1.9982,-2.0664,-1.9998,-2.152,-2.2224,-2.0923,-2.19,-2.2118,-2.0709,-1.8626,-1.5948,-1.2599,-0.8527,-0.4279,0.022,0.3325,0.6226,0.9135,1.1175,1.2545,1.3134,1.4959,1.5707,1.533,1.6275,1.6675,1.6655,1.5445,1.4879,1.4852,1.3534,1.3017,1.2948,1.2143,1.1834,1.1834,1.1834,1.2818,1.4103,1.3321,1.3563,1.4222,1.4213,1.3674,1.3252,1.4874,1.4874,1.4213,1.4213,1.3614,1.3017,1.3017,1.1856,1.0814,1.1593,1.1178,1.0371,0.9536,0.9396,0.9298,0.856,0.8541,0.8348,0.7495,0.7283,0.7003,0.5943,0.4934,0.421,0.421,0.2542,0.1248,0.128,0.0529,-0.0756,-0.2717,-0.3843,-0.44,-0.422,-0.3268,-0.2687,-0.2685,-0.2685,-0.2694,-0.2686,-0.3549,-0.4018,-0.4015,-0.4891,-0.5818,-0.6719,-0.7567,-0.842,-0.9338,-1.0174,-1.0624,-0.9066,-1.0989,-1.3132,-1.2501,-1.4442,-1.6794,-1.776,-1.8902,-2.0099,-2.1189,-2.0126,-1.852,-1.6923,-1.7137,-1.7555,-1.7563,-1.8393,-1.9191,-1.9728,-2.0388,-2.0793,-2.0796,-2.1048,-2.042,-1.8378,-1.6098,-1.2874,-0.8472,-0.4591,-0.0724,0.3179,0.6296,0.8692,1.0232,1.2245,1.3678,1.4584,1.5765,1.6683,1.7207,1.7484,1.6967,1.5716,1.5332,1.4681,1.3853,1.4117,1.3425,1.2143,1.1896,1.1977,1.2322,1.3505,1.448,1.516,1.5501,1.577,1.5909,1.5603,1.5004,1.4461,1.5145,1.4076,1.2674,1.3422,1.3058,1.2353,1.2014,1.1954,1.1829,1.0728,1.0264,1.0019,0.9567,0.9452,0.9276,0.8551,0.8548,0.8486,0.7475,0.7406,0.6895,0.5205,0.4478,0.3702,0.2397,0.1031,-0.0225,-0.1617,-0.201,-0.2397,-0.3014,-0.3322,-0.3444,-0.3289,-0.2463,-0.1852,-0.1746,-0.1163,-0.1372,-0.2625,-0.3615,-0.4077,-0.3998,-0.5036,-0.5602,-0.5815,-0.7246,-0.8239,-0.8721,-0.9995,-1.0668,-1.0701,-1.2317,-1.3915,-1.3483,-1.4623,-1.6021,-1.6574,-1.8058,-1.9033,-1.8081,-1.6997,-1.5841,-1.4751,-1.5336,-1.6215,-1.699,-1.7924,-1.874,-1.9397,-1.9687,-1.9883,-1.9978,-1.9864,-1.8827,-1.6283,-1.3466,-0.9806,-0.5095,-0.1365,0.2151,0.5613,0.8009,0.9707,1.0783,1.3063,1.453,1.4948,1.6426,1.7347,1.7764,1.793,1.7244,1.5779,1.5692,1.5136,1.4247,1.4081,1.3392,1.2274,1.2469,1.2838,1.3498,1.4656,1.5504,1.6055,1.6529,1.6665,1.6699,1.6416,1.5709,1.5019,1.5504,1.4187,1.2563,1.3218,1.2938,1.2248,1.1574,1.1485,1.1328,1.0221,0.9597,0.9211,0.8658,0.8557,0.8514,0.8151,0.8198,0.8193,0.7601,0.753,0.7001,0.4963,0.4152,0.3064,0.1121,-0.0454,-0.1613,-0.2418,-0.289,-0.2968,-0.2579,-0.2501,-0.2488,-0.2377,-0.1533,-0.0915,-0.0826,-0.03,-0.0675,-0.2172,-0.3156,-0.3817,-0.4179,-0.5123,-0.5747,-0.5981,-0.7034,-0.7826,-0.8358,-0.9718,-1.0388,-1.3946,-1.3974,-1.3891,-1.5177,-1.4028,-1.3152,-1.5245,-1.6649,-1.6967,-1.5121,-1.3617,-1.2702,-1.2989,-1.3481,-1.4594,-1.6688,-1.8067,-1.8834,-1.8884,-1.9244,-1.931,-1.865,-1.8454,-1.7191,-1.4249,-1.0758,-0.6822,-0.23,0.1328,0.4683,0.7706,0.8893,0.9895,1.0783,1.3484,1.4787,1.4599,1.6688,1.7678,1.7451,1.7755,1.7501,1.6697,1.6324,1.5924,1.5414,1.3825,1.3144,1.3205,1.3626,1.4245,1.5069,1.5496,1.6139,1.6846,1.6846,1.6846,1.6782,1.6807,1.6075,1.5228,1.5817,1.4853,1.3467,1.3372,1.3034,1.2427,1.1559,1.0723,0.9945,0.9735,0.9027,0.8108,0.7124,0.709,0.7343,0.7368,0.7509,0.7629,0.7629,0.7629,0.7011,0.4916,0.3748,0.234,0.0078,-0.1948,-0.2891,-0.188,-0.2503,-0.2657,-0.1567,-0.1489,-0.1489,-0.1489,-0.0549,0.0,0.0,-0.0079,-0.0628,-0.1723,-0.2474,-0.3429,-0.4506,-0.5265,-0.6033,-0.6825,-0.6894,-0.7313,-0.8157,-0.9226,-0.9817,-0.9587,-1.0692,-1.2005,-1.2291,-1.2742,-1.32,-1.357,-1.2783,-1.2117,-1.2555,-1.082,-0.9372,-1.0143,-1.1265,-1.277,-1.4888,-1.6372,-1.7409,-1.7852,-1.7989,-1.7993,-1.7841,-1.6988,-1.5305,-1.2508,-0.856,-0.4217,0.0512,0.4438,0.737,0.8898,0.9959,1.0559,1.0783,1.2164,1.3584,1.5047,1.5545,1.6471,1.7871,1.7239,1.7207,1.7647,1.683,1.6053,1.5312,1.4435,1.4204,1.4524,1.4907,1.5375,1.5926,1.6712,1.73,1.7734,1.7734,1.7734,1.7686,1.7353,1.7048,1.6708,1.5762,1.481,1.3827,1.3309,1.2618,1.1881,1.1155,1.0765,1.0251,0.8627,0.8107,0.7501,0.5679,0.6289,0.7162,0.6634,0.6619,0.6641,0.6641,0.6641,0.5935,0.3826,0.3279,0.1871,-0.1871,-0.3513,-0.3984,-0.289,-0.2968,-0.2423,-0.0549,-0.0314,-0.0314,-0.0314,-0.0157,0.0,0.0,-0.0784,-0.1723,-0.2735,-0.2939,-0.3505,-0.4482,-0.5427,-0.5947,-0.6033,-0.6738,-0.7233,-0.7662,-0.8392,-0.9276,-0.9676,-1.0706,-1.1471,-1.1249,-1.1781,-1.2374,-1.2262,-1.1178,-1.0236,-1.038,-0.8939,-0.7946,-0.883,-1.0321,-1.2019,-1.3821,-1.5501,-1.6568,-1.6493,-1.6501,-1.6425,-1.6151,-1.526,-1.3688,-1.1189,-0.7633,-0.3536,0.1273,0.4908,0.7564,0.9216,1.0265,1.0783,1.0783,1.2178,1.3418,1.445,1.495,1.5658,1.6655,1.6149,1.6428,1.7354,1.7088,1.6474,1.559,1.5011,1.4625,1.4478,1.4849,1.5384,1.6057,1.6747,1.7175,1.7354,1.7862,1.7716,1.7326,1.7118,1.6844,1.6505,1.5274,1.3977,1.2853,1.248,1.1572,1.0472,0.9595,0.8944,0.8263,0.6667,0.5906,0.5295,0.4215,0.5016,0.5983,0.561,0.555,0.5709,0.6183,0.6338,0.5628,0.3435,0.148,-0.0623,-0.2809,-0.4453,-0.4921,-0.3279,-0.3124,-0.2267,-0.0235,0.0,0.0,0.0,0.0,0.0,0.0,-0.102,-0.2035,-0.3046,-0.3593,-0.4349,-0.5369,-0.5764,-0.5989,-0.5911,-0.6346,-0.668,-0.6834,-0.8217,-0.893,-1.0438,-1.1108,-1.1213,-1.105,-1.1176,-1.1268,-1.108,-1.0349,-0.9488,-0.8549,-0.7746,-0.7451,-0.8105,-0.9643,-1.1204,-1.2547,-1.4248,-1.5148,-1.4473,-1.4458,-1.4294,-1.387,-1.326,-1.2054,-1.0016,-0.6999,-0.333,0.1145,0.4312,0.6903,0.8908,0.9814,1.0335,1.0565,1.2117,1.315,1.3673,1.4378,1.4879,1.5234,1.5234,1.5587,1.6341,1.6649,1.6455,1.5887,1.5279,1.4537,1.379,1.3982,1.4668,1.553,1.5922,1.6201,1.6428,1.7226,1.701,1.6349,1.6123,1.5834,1.5291,1.4024,1.2473,1.1131,1.0767,0.9764,0.8509,0.7487,0.6416,0.5422,0.4573,0.342,0.2572,0.2574,0.3276,0.3979,0.4373,0.4453,0.4686,0.555,0.5631,0.4924,0.3125,-0.0468,-0.3124,-0.3124,-0.4766,-0.5315,-0.3357,-0.2968,-0.2111,-0.0235,0.0,0.0,0.0,0.0,-0.0079,-0.0235,-0.1254,-0.2347,-0.3357,-0.4375,-0.5392,-0.6261,-0.6135,-0.6067,-0.6067,-0.6067,-0.6067,-0.6071,-0.8081,-0.8689,-0.7011,-0.8274,-0.9766,-1.0778,-1.1022,-1.0784,-0.9817,-0.9009,-0.826,-0.7469,-0.722,-0.7104,-0.7122,-0.7807,-0.8667,-0.9612,-1.056,-1.1193,-1.1069,-1.1164,-1.1219,-1.1132,-1.0765,-1.0053,-0.8814,-0.5486,-0.2054,0.1225,0.4382,0.6729,0.7931,0.8161,0.8613,0.9448,0.9744,1.1075,1.3673,1.3018,1.352,1.5234,1.5234,1.5234,1.5367,1.4474,1.4772,1.5838,1.4399,1.356,1.311,1.2614,1.3028,1.393,1.3968,1.4601,1.5376,1.5517,1.5517,1.5217,1.4292,1.3961,1.3472,1.0718,0.9617,0.9104,0.7401,0.6749,0.6395,0.5334,0.4325,0.3475,0.3346,0.1865,0.0388,0.0389,0.0545,0.109,0.2887,0.3279,0.3357,0.3515,0.2815,0.2115,0.188,-0.0937,-0.3124,-0.3124,-0.4139,-0.4453,-0.3279,-0.2347,-0.1333,-0.0157,0.0,0.0,0.0,0.0,-0.0392,-0.1333,-0.2347,-0.3357,-0.4453,-0.555,-0.618,-0.6261,-0.624,-0.623,-0.623,-0.623,-0.623,-0.6307,-0.7468,-0.8389,-0.7154,-0.8699,-1.0058,-1.0556,-1.071,-1.0471,-0.9449,-0.8848,-0.8295,-0.7412,-0.7142,-0.7117,-0.7007,-0.7511,-0.8066,-0.8447,-0.9186,-0.9603,-0.9196,-0.9622,-0.985,-0.961,-0.9433,-0.9051,-0.8221,-0.5603,-0.2698,0.0462,0.3552,0.605,0.7702,0.8313,0.9069,1.0115,0.9593,1.049,1.2879,1.1391,1.1081,1.1937,1.3034,1.3245,1.2635,1.2217,1.2655,1.3744,1.2487,1.1608,1.0876,1.0609,1.1083,1.1959,1.1959,1.2257,1.2708,1.3266,1.3129,1.2556,1.1462,1.1071,1.0698,0.8244,0.7052,0.6453,0.5552,0.4873,0.4108,0.2482,0.1705,0.1085,-0.0078,-0.109,-0.1711,-0.1714,-0.1715,-0.148,-0.0545,0.1015,0.2425,0.2968,0.2268,0.1568,0.1568,-0.1015,-0.3124,-0.3124,-0.453,-0.5002,-0.3279,-0.3203,-0.2738,-0.1097,-0.1409,-0.1721,-0.1721,-0.1721,-0.1956,-0.2425,-0.3437,-0.4217,-0.4686,-0.5709,-0.6338,-0.6338,-0.6338,-0.6338,-0.6338,-0.6338,-0.6338,-0.6338,-0.7936,-0.8542,-0.73,-0.8704,-0.9516,-1.0058,-1.0412,-1.0311,-0.9177,-0.8841,-0.8464,-0.743,-0.6969,-0.6785,-0.6983,-0.722,-0.7242,-0.7042,-0.7668,-0.7997,-0.7306,-0.7904,-0.8408,-0.8098,-0.8116,-0.7834,-0.7069,-0.528,-0.2945,0.0155,0.2791,0.5126,0.7322,0.8161,0.8988,1.0034,0.9593,1.0121,1.1922,1.0421,0.9669,0.9669,1.0914,1.1045,1.0364,0.9782,0.9999,1.0644,0.9579,0.8925,0.8523,0.8219,0.8883,0.9991,0.9991,1.014,1.0433,1.0819,1.0364,0.9404,0.8005,0.7384,0.6847,0.483,0.3857,0.3409,0.31,0.2724,0.1953,0.0078,-0.0624,-0.1169,-0.2731,-0.3513,-0.3826,-0.3591,-0.3513,-0.3435,-0.3124,-0.1249,0.0625,0.1403,0.0937,0.0391,0.0391,-0.1796,-0.3513,-0.3513,-0.4844,-0.5315,-0.3748,-0.3984,-0.3673,-0.2113,-0.2657,-0.3124,-0.3124,-0.3124,-0.3202,-0.3515,-0.4295,-0.4844,-0.5079,-0.5867,-0.6416,-0.6641,-0.6718,-0.6567,-0.6338,-0.6567,-0.674,-0.6854,-0.8846,-0.9412,-0.595,-0.6516,-0.6933,-0.9095,-1.0066,-1.0125,-0.8766,-0.8546,-0.8284,-0.7125,-0.6272,-0.5931,-0.6749,-0.6131,-0.5219,-0.4348,-0.5017,-0.5339,-0.4513,-0.5339,-0.6064,-0.6155,-0.6308,-0.6009,-0.4996,-0.3824,-0.1869,0.1243,0.2571,0.4137,0.6257,0.6416,0.6945,0.7931,0.8841,0.982,1.0858,1.0783,1.0714,1.0708,0.9895,0.9448,0.9291,0.7355,0.643,0.643,0.5416,0.5496,0.6283,0.5297,0.6153,0.7931,0.7931,0.8537,0.9286,0.8254,0.7295,0.6122,0.4146,0.2763,0.1533,-0.0541,-0.0544,0.0078,-0.0938,-0.0627,-0.0078,-0.1176,-0.2189,-0.2966,-0.3046,-0.4608,-0.5867,-0.4844,-0.4608,-0.4373,-0.3357,-0.2968,-0.281,-0.2809,-0.281,-0.2888,-0.2888,-0.3826,-0.4608,-0.4608,-0.4688,-0.4766,-0.4608,-0.3748,-0.3124,-0.3046,-0.3046,-0.3124,-0.3124,-0.3124,-0.3513,-0.453,-0.4686,-0.5157,-0.618,-0.6261,-0.6718,-0.7706,-0.7706,-0.7253,-0.6338,-0.7249,-0.7871,-0.8119,-1.0156,-1.1228,-0.5258,-0.5942,-0.6476,-0.7571,-0.8476,-0.8712,-0.7277,-0.7311,-0.7367,-0.6279,-0.578,-0.5578,-0.5903,-0.5663,-0.5292,-0.4957,-0.516,-0.5106,-0.4341,-0.4544,-0.4862,-0.5143,-0.5209,-0.5157,-0.4766,-0.3117,-0.1089,0.1399,0.3195,0.4766,0.6257,0.6338,0.6795,0.7783,0.7553,0.7855,0.8836,0.9518,0.982,0.982,0.9448,0.8993,0.8313,0.6831,0.5825,0.5143,0.4126,0.4283,0.522,0.4841,0.5544,0.6872,0.6872,0.6626,0.622,0.5112,0.4097,0.2932,0.085,-0.0155,-0.0696,-0.21,-0.2339,-0.1951,-0.1644,-0.1333,-0.1097,-0.1489,-0.2347,-0.3279,-0.3982,-0.5237,-0.6183,-0.5786,-0.5709,-0.5628,-0.5237,-0.4062,-0.3124,-0.3124,-0.3124,-0.3124,-0.3124,-0.3982,-0.4688,-0.4688,-0.5315,-0.5473,-0.4766,-0.4999,-0.4921,-0.4217,-0.4766,-0.5157,-0.5157,-0.5157,-0.5315,-0.5709,-0.6318,-0.6857,-0.7249,-0.7859,-0.8389,-0.877,-0.9341,-0.9185,-0.8237,-0.8618,-0.8875,-0.9232,-1.1307,-1.228,-0.4209,-0.4861,-0.5632,-0.6922,-0.7401,-0.762,-0.7655,-0.7336,-0.6894,-0.6623,-0.5702,-0.5145,-0.576,-0.5352,-0.4954,-0.4954,-0.4954,-0.4645,-0.3891,-0.3774,-0.3847,-0.4115,-0.4139,-0.3902,-0.3196,-0.1868,0.0,0.2489,0.39,0.0,0.6257,0.6338,0.6795,0.7783,0.7176,0.7249,0.8313,0.8993,0.9296,0.9296,0.8993,0.8466,0.7783,0.6374,0.5295,0.4608,0.3591,0.3748,0.4686,0.4295,0.4766,0.5709,0.5392,0.4606,0.3507,0.2488,0.1164,-0.0233,-0.2021,-0.2879,-0.3269,-0.3979,-0.3904,-0.3515,-0.2815,-0.2115,-0.1646,-0.2035,-0.2579,-0.3357,-0.4453,-0.5473,-0.6338,-0.6338,-0.6338,-0.6338,-0.6338,-0.5157,-0.4139,-0.4139,-0.4139,-0.4139,-0.4139,-0.4766,-0.5237,-0.5237,-0.5867,-0.6025,-0.5315,-0.5867,-0.6025,-0.5315,-0.5867,-0.6338,-0.6338,-0.6644,-0.6795,-0.6795,-0.7783,-0.8456,-0.8742,-0.9422,-1.0093,-1.0748,-1.1384,-1.1537,-1.1279,-1.0902,-1.0883,-1.1207,-1.2962,-1.3947,0.0,0.0,0.0,-0.7064,-0.6953,-0.6941,-0.9932,-0.8651,-0.708,-0.8134,-0.6143,-0.4748,-0.63,-0.5213,-0.402,-0.3954,-0.3954,-0.3757,-0.2956,-0.2835,-0.2886,-0.3029,-0.3046,-0.2261,-0.0234,0.0,0.1324,0.445,0.4766,0.5237,0.6261,0.6338,0.6718,0.7706,0.7783,0.8237,0.9221,0.9296,0.9301,0.9296,0.8389,0.7855,0.7783,0.577,0.4766,0.4763,0.3669,0.3748,0.4686,0.3591,0.3748,0.4608,0.3513,0.2415,0.1399,0.0311,-0.1399,-0.3341,-0.4445,-0.547,-0.6338,-0.6338,-0.5628,-0.4766,-0.4688,-0.3285,-0.188,-0.2812,-0.3124,-0.3357,-0.4453,-0.555,-0.6338,-0.6338,-0.6338,-0.6338,-0.6416,-0.6338,-0.6338,-0.6338,-0.6338,-0.6338,-0.6338,-0.6338,-0.6338,-0.6338,-0.6338,-0.6338,-0.6338,-0.6338,-0.6338,-0.6338,-0.6338,-0.6338,-0.6338,-0.7249,-0.7859,-0.7855,-0.8841,-0.9798,-1.0718,-1.0793,-1.1739,-1.3626,-1.3697,-1.4229,-1.5234,-1.4157,-1.3797,-1.4201,-1.5144,-1.6139,-0.2646,0.0,0.0,0.0,0.0,0.0,-0.6474,-0.6325,-0.6086,-0.6451,-0.5574,-0.4765,-0.4864,-0.4469,-0.3932,-0.3172,-0.3586,-0.3489,-0.1952,-0.1772,-0.1814,-0.2027,-0.2035,-0.1485,-0.0156,0.07,0.2178,0.0,0.5395,0.6022,0.6261,0.6338,0.6416,0.6718,0.6718,0.7176,0.8237,0.8922,0.9669,1.0415,1.011,0.9959,0.9884,0.7842,0.693,0.6853,0.5854,0.555,0.5709,0.3826,0.3748,0.4528,0.2725,0.1401,0.0233,-0.1553,-0.3112,-0.452,-0.6307,-0.7165,-0.7403,-0.7403,-0.7165,-0.6696,-0.5151,-0.4297,-0.3597,-0.2347,-0.3127,-0.453,-0.555,-0.6633,-0.7403,-0.7403,-0.7403,-0.7557,-0.8313,-0.7936,-0.7176,-0.6412,-0.6338,-0.6338,-0.6338,-0.6338,-0.6338,-0.6338,-0.6338,-0.6338,-0.6338,-0.6338,-0.6338,-0.6338,-0.6949,-0.7403,-0.7403,-0.8313,-0.9205,-0.9846,-1.0822,-1.1844,-1.2753,-1.3512,-1.4188,-1.4767,-1.5404,-1.5904,-1.621,-1.5201,-1.4881,-1.5225,-1.6139,-1.718,-0.2633,-0.2842,-0.3301,-0.4177,0.0,0.0,-0.6775,-0.6184,-0.559,-0.6906,-0.5928,-0.4857,-0.4862,-0.4229,-0.3476,-0.2908,-0.2865,-0.2528,-0.1453,-0.0966,-0.0763,-0.0939,-0.0941,-0.0313,0.1169,0.1869,0.3117,0.5234,0.5944,0.6338,0.6338,0.6338,0.6338,0.6338,0.6338,0.6795,0.7783,0.8765,0.982,1.0783,1.0783,1.0783,1.0783,0.914,0.8161,0.7783,0.7176,0.6721,0.618,0.4453,0.3904,0.3748,0.1247,-0.0389,-0.148,-0.3191,-0.4443,-0.5547,-0.6788,-0.748,-0.7783,-0.7783,-0.8084,-0.8156,-0.6465,-0.5687,-0.4985,-0.3359,-0.4057,-0.561,-0.6633,-0.7706,-0.8389,-0.8389,-0.8389,-0.8618,-0.9145,-0.8841,-0.8161,-0.7099,-0.6945,-0.6945,-0.6945,-0.6945,-0.7099,-0.748,-0.7557,-0.7581,-0.7733,-0.7602,-0.7581,-0.7733,-0.8132,-0.8389,-0.8389,-0.9367,-1.0323,-1.1249,-1.2298,-1.3461,-1.4798,-1.5483,-1.5939,-1.6367,-1.6932,-1.7207,-1.7207,-1.6645,-1.6413,-1.6634,-1.7149,-1.7731,-0.2757,-0.3035,-0.3716,-0.4894,-0.4286,0.0,-0.8426,-0.6771,-0.5233,-0.795,-0.6417,-0.4749,-0.5349,-0.4025,-0.2846,-0.2699,-0.194,-0.1327,-0.117,-0.0523,0.0,0.0,0.0,0.0784,0.2734,0.3046,0.3904,0.5944,0.6257,0.6338,0.649,0.6338,0.6338,0.6338,0.6412,0.6872,0.7783,0.8917,0.989,1.0783,1.0783,1.0783,1.0783,0.9669,0.8613,0.7783,0.7706,0.7099,0.6183,0.5002,0.3984,0.281,-0.0391,-0.2112,-0.3046,-0.4295,-0.5237,-0.5944,-0.6177,-0.6865,-0.7625,-0.7783,-0.8389,-0.8917,-0.7936,-0.7,-0.6063,-0.5226,-0.5681,-0.6594,-0.7693,-0.8689,-0.9448,-0.9448,-0.9448,-0.9523,-0.9599,-0.9523,-0.9221,-0.8309,-0.8008,-0.7936,-0.7936,-0.7936,-0.8237,-0.915,-0.9296,-0.9377,-0.9678,-0.9458,-0.9418,-0.9718,-0.9643,-0.9514,-0.9489,-1.046,-1.1477,-1.2451,-1.3353,-1.4728,-1.6706,-1.6775,-1.7139,-1.8008,-1.8008,-1.8008,-1.8008,-1.8008,-1.8008,-1.8008,-1.8008,-1.8008,-0.3263,-0.3007,-0.3113,-0.3148,-0.3325,0.0,-0.4247,-0.3907,-0.3753,-0.4728,-0.4183,-0.3473,-0.3141,-0.2995,-0.2567,-0.1486,-0.182,-0.1732,-0.0444,-0.0077,0.0,0.0,0.0,0.0471,0.1802,0.2657,0.3671,0.4924,0.5786,0.6644,0.748,0.6718,0.6338,0.6338,0.7099,0.7629,0.7783,0.9588,1.0634,1.0783,1.0783,1.0783,1.0708,0.8912,0.8012,0.7783,0.6949,0.649,0.618,0.4217,0.3279,0.2809,-0.0389,-0.1717,-0.2113,-0.3984,-0.4295,-0.3979,-0.5678,-0.6367,-0.6678,-0.7544,-0.7931,-0.7936,-0.6872,-0.6409,-0.6402,-0.7011,-0.7291,-0.7647,-0.8756,-0.9744,-1.049,-1.049,-1.049,-1.0714,-1.1545,-1.1093,-1.0484,-1.026,-0.9588,-0.8993,-0.8993,-0.8993,-0.9069,-0.9296,-0.9296,-0.9377,-0.9678,-0.9662,-0.9724,-1.0028,-1.0817,-1.1111,-1.0827,-1.1808,-1.3049,-1.4522,-1.4799,-1.5728,-1.7647,-1.7725,-1.7794,-1.8008,-1.8008,-1.8008,-1.8008,-1.8008,-1.8008,-1.8008,-1.8008,-1.8008,-0.3477,-0.3249,-0.3363,-0.3042,-0.3144,0.0,0.0,-0.3556,-0.3482,-0.4706,-0.4267,-0.3605,-0.3439,-0.2976,-0.2487,-0.1999,-0.2049,-0.1841,-0.0799,-0.0713,-0.0628,-0.0079,0.0,0.0,0.1489,0.2035,0.2969,0.4608,0.5709,0.6718,0.7783,0.7326,0.7249,0.7783,0.8313,0.8765,0.9286,1.0335,1.1087,1.1545,1.1545,1.1316,1.0783,0.9734,0.8761,0.7783,0.7249,0.6795,0.618,0.453,0.3591,0.2809,-0.039,-0.1563,-0.1802,-0.3359,-0.3591,-0.3278,-0.4281,-0.4969,-0.5582,-0.6678,-0.7371,-0.7753,-0.7774,-0.7783,-0.7936,-0.8389,-0.9256,-0.998,-1.0029,-1.1156,-1.2117,-1.1687,-1.1545,-1.1694,-1.2224,-1.1922,-1.1545,-1.1545,-1.1174,-1.0645,-1.0121,-1.004,-1.0196,-1.072,-1.0801,-1.0942,-1.1414,-1.1349,-1.1414,-1.181,-1.2228,-1.2359,-1.1991,-1.2885,-1.4022,-1.5117,-1.5658,-1.6507,-1.794,-1.8008,-1.8008,-1.8008,-1.8008,-1.8008,-1.8008,-1.8008,-1.8008,-1.8008,-1.8008,-1.8008,-0.3683,-0.357,-0.3872,-0.3306,-0.3261,-0.3553,0.0,0.0,0.0,-0.4909,-0.4318,-0.3615,-0.3841,-0.3066,-0.241,-0.26,-0.2405,-0.2014,-0.1339,-0.1503,0.0,-0.0362,-0.0456,0.0,0.0,0.108,0.2343,0.4836,0.5783,0.6795,0.8008,0.7936,0.8237,0.9296,0.9523,0.9965,1.0783,1.1013,1.1465,1.2305,1.2077,1.1465,1.049,1.0335,0.921,0.748,0.748,0.6942,0.5944,0.4844,0.3748,0.25,-0.0235,-0.1254,-0.1411,-0.2423,-0.2657,-0.25,-0.2734,-0.335,-0.4267,-0.5514,-0.674,-0.7884,-0.8969,-0.9583,-0.9884,-1.0099,-1.1421,-1.2597,-1.1803,-1.2705,-1.3528,-1.2732,-1.2445,-1.2305,-1.2305,-1.2305,-1.2305,-1.2305,-1.2305,-1.207,-1.1242,-1.1087,-1.1391,-1.215,-1.2305,-1.2525,-1.3133,-1.2993,-1.3066,-1.3661,-1.352,-1.3233,-1.2943,-1.3737,-1.4528,-1.5188,-1.607,-1.7001,-1.794,-1.8008,-1.8008,-1.8008,-1.8008,-1.8008,-1.8008,-1.8008,-1.8008,-1.8008,-1.8008,-1.8008,-0.4043,-0.3881,-0.4066,-0.2948,-0.3306,-0.364,-0.2583,0.0,-0.2617,-0.2481,0.0,-0.199,-0.2088,0.0,0.0,-0.1715,-0.2492,-0.265,-0.1161,-0.1722,-0.2032,-0.1268,-0.2075,0.0,0.0,-0.0657,0.1784,0.5745,0.6163,0.7099,0.8993,0.8313,0.8237,0.9296,1.019,1.0708,1.0783,1.1694,1.2224,1.2298,1.1391,1.0415,0.9448,0.8537,0.7553,0.649,0.649,0.5864,0.4766,0.3748,0.2657,0.1644,0.0312,-0.0156,-0.0314,-0.141,-0.1176,-0.0471,-0.1411,-0.1879,-0.2268,-0.4217,-0.6227,-0.7995,-0.8934,-1.0427,-1.2071,-1.2912,-1.395,-1.4799,-1.472,-1.4235,-1.3673,-1.36,-1.2879,-1.2305,-1.2305,-1.2305,-1.2305,-1.2305,-1.2305,-1.2224,-1.215,-1.215,-1.215,-1.2298,-1.2305,-1.2525,-1.3133,-1.318,-1.338,-1.3975,-1.4008,-1.3761,-1.3206,-1.3988,-1.4781,-1.5133,-1.607,-1.7001,-1.794,-1.8008,-1.8008,-1.8008,-1.8008,-1.8008,-1.8008,-1.8008,-1.8008,-1.8008,-1.8008,-1.8008,-0.3973,-0.3873,-0.4059,-0.3122,-0.3242,-0.3339,-0.2343,-0.2119,-0.211,-0.2024,0.0,0.0,0.0,0.0,0.0,0.0,-0.2293,-0.2461,-0.1546,-0.2399,-0.2564,-0.1144,0.0,0.0,0.0,0.0,0.0,0.0,0.4816,0.6316,0.918,0.8922,0.9372,1.1025,1.1471,1.1694,1.1694,1.2077,1.2305,1.2298,1.1316,1.0265,0.9296,0.8237,0.7253,0.6338,0.6338,0.6025,0.555,0.4453,0.375,0.3283,0.2184,0.1094,-0.0079,-0.0471,0.0,0.0863,0.0392,0.0235,-0.0157,-0.2888,-0.5594,-0.804,-0.96,-1.147,-1.3273,-1.426,-1.5209,-1.5886,-1.5305,-1.5296,-1.5226,-1.4665,-1.4235,-1.3947,-1.3947,-1.352,-1.3091,-1.3091,-1.2659,-1.2305,-1.2305,-1.2305,-1.2365,-1.2532,-1.2559,-1.2779,-1.3387,-1.346,-1.3621,-1.4041,-1.4088,-1.3848,-1.326,-1.4569,-1.5332,-1.5204,-1.6576,-1.7579,-1.8008,-1.8008,-1.8008,-1.8008,-1.8008,-1.8269,-1.8721,-1.8269,-1.8529,-1.9497,-1.8462,-1.8008,-0.3997,-0.394,-0.4053,-0.3063,-0.2922,-0.2856,-0.212,-0.1841,-0.1767,-0.185,-0.172,0.0,0.0,0.0,-0.1489,-0.164,0.0,-0.2025,-0.1611,-0.2359,-0.2465,-0.1158,0.0,0.0,0.0,0.0,0.0,0.0,0.0,0.0,0.914,0.9296,1.0196,1.2224,1.2305,1.2305,1.2305,1.2305,1.2305,1.2298,1.1545,1.0714,0.9669,0.8689,0.7629,0.6718,0.6416,0.6103,0.5786,0.5002,0.453,0.4217,0.3435,0.2343,0.1251,0.094,0.1332,0.2035,0.2035,0.1643,0.0704,-0.1872,-0.4958,-0.809,-1.0399,-1.2497,-1.4386,-1.5587,-1.6446,-1.6811,-1.6158,-1.6289,-1.6428,-1.5728,-1.5376,-1.5234,-1.5234,-1.4593,-1.4099,-1.4099,-1.3593,-1.3091,-1.3091,-1.2659,-1.2405,-1.2775,-1.2822,-1.2966,-1.3567,-1.3559,-1.3761,-1.4055,-1.4088,-1.3848,-1.326,-1.4949,-1.5997,-1.5991,-1.7226,-1.8008,-1.8008,-1.8008,-1.8008,-1.8008,-1.8202,-1.8654,-1.9299,-1.8911,-1.9365,-2.059,-1.9044,-1.8327,-0.4185,-0.4178,-0.4172,-0.2467,-0.2227,-0.2232,-0.1501,-0.1477,-0.1594,-0.1527,-0.1666,-0.1791,-0.1791,-0.1787,-0.1688,-0.1364,-0.1487,0.0,0.0,-0.1181,-0.1478,-0.1741,0.0,0.0,0.0,0.0,0.0,0.0,0.0,0.0,0.9125,0.9296,1.0196,1.2224,1.2305,1.2305,1.2305,1.2305,1.2305,1.2305,1.2305,1.1694,1.0714,0.9744,0.8694,0.7706,0.6718,0.5709,0.4766,0.4688,0.4062,0.3124,0.3124,0.3659,0.4339,0.335,0.3046,0.3046,0.3046,0.1716,-0.0156,-0.1244,-0.4404,-0.8232,-1.1169,-1.3482,-1.5517,-1.7364,-1.794,-1.794,-1.794,-1.7285,-1.6558,-1.6567,-1.586,-1.5234,-1.5234,-1.5163,-1.5163,-1.5163,-1.5163,-1.5092,-1.5092,-1.352,-1.2405,-1.2775,-1.2822,-1.2966,-1.3567,-1.3559,-1.3761,-1.4055,-1.4088,-1.3848,-1.326,-1.4949,-1.6516,-1.7852,-1.794,-1.8008,-1.8008,-1.8008,-1.8008,-1.8008,-1.8854,-1.9299,-1.9299,-2.0139,-2.0526,-2.059,-1.9694,-1.9243,0.0,0.0,-0.4864,-0.3274,-0.3089,-0.3003,-0.1725,-0.1586,-0.1662,-0.1411,-0.16,-0.1741,-0.1519,-0.1472,-0.14,0.0,0.0,0.0,0.0,-0.0978,-0.1114,0.0,0.0,0.0,0.0,0.0,0.0,0.0,0.0,0.0,0.0,0.8898,1.0196,1.2224,1.2305,1.2305,1.2305,1.2305,1.2305,1.2298,1.162,1.1162,1.0708,0.9064,0.8084,0.7783,0.6718,0.6103,0.5786,0.5786,0.555,0.5237,0.5237,0.5464,0.561,0.4508,0.4961,0.6036,0.5357,0.419,0.2557,-0.0621,-0.394,-0.737,-1.1004,-1.3554,-1.5587,-1.7442,-1.8008,-1.8008,-1.8008,-1.7794,-1.7501,-1.7501,-1.7285,-1.7079,-1.7079,-1.6576,-1.6149,-1.6149,-1.5658,-1.5234,-1.5234,-1.4657,-1.4137,-1.4019,-1.343,-1.3267,-1.3861,-1.3935,-1.3975,-1.4075,-1.4088,-1.3848,-1.326,-1.4622,-1.5922,-1.7019,-1.7647,-1.8008,-1.8008,-1.8008,-1.8269,-1.8854,-1.9177,-1.989,-2.1037,-2.0719,-2.1164,-2.2237,-2.1428,-2.0398,-0.5037,-0.5174,0.0,-0.3321,-0.3063,0.0,-0.159,-0.1459,-0.1612,-0.1625,-0.1745,-0.1883,-0.194,-0.1651,-0.1407,0.0,0.0,0.0,0.0,-0.0899,0.0,0.0,0.0,0.0,0.0,0.0,0.0,0.0,0.0,0.0,0.0,0.0,1.0196,1.2224,1.2305,1.2305,1.2305,1.2305,1.2305,1.2298,1.162,1.1316,1.1316,0.9588,0.8836,0.8836,0.7783,0.7403,0.7326,0.6945,0.6795,0.6795,0.6412,0.6718,0.7246,0.6133,0.6583,0.7664,0.6981,0.5588,0.3492,0.0078,-0.3619,-0.7338,-1.0991,-1.3761,-1.6009,-1.7579,-1.8008,-1.8008,-1.8008,-1.8008,-1.8008,-1.8008,-1.8008,-1.8008,-1.8008,-1.7501,-1.707,-1.707,-1.6576,-1.6272,-1.6404,-1.6147,-1.5663,-1.5085,-1.4476,-1.4216,-1.4734,-1.4487,-1.4248,-1.4248,-1.4015,-1.3811,-1.4079,-1.478,-1.5728,-1.7001,-1.7781,-1.8164,-1.8018,-1.8418,-1.8954,-1.954,-2.0194,-2.1133,-2.25,-2.2232,-2.2531,-2.3439,-2.2874,-2.1792]},{"header":{"parameterUnit":"m.s-1","parameterCategory":1,"la1":30.6,"la2":29.2853,"lo1":-89.7004,"lo2":-87.6739,"dx":0.0162,"dy":0.0183,"nx":112,"ny":82,"refTime":"2022-12-07T06:00:00:Z","depth":0,"parameterNumber":3,"parameterNumberName":"V-component_of_WINDS"},"data":[0.0,0.0,0.0,0.0,0.0,0.0,0.0,0.0,0.0,0.0,0.0,0.0,0.0,0.0,0.0,0.0,0.0,0.0,0.0,0.0,0.0,0.0,0.0,0.0,0.0,0.0,0.0,0.0,0.0,0.0,0.0,0.0,0.0,0.0,0.0,0.0,0.0,0.0,0.0,0.0,0.0,0.0,0.0,0.0,0.0,0.0,0.0,0.0,0.0,0.0,0.0,0.0,0.0,0.0,0.0,0.0,0.0,0.0,0.0,0.0,0.0,0.0,0.0,0.0,0.0,0.0,0.0,0.0,0.0,0.0,0.0,0.0,0.0,0.0,0.0,0.0,0.0,0.0,0.0,0.0,0.0,0.0,0.0,0.0,0.0,0.0,0.0,0.0,0.0,0.0,0.7306,0.831,1.1606,1.3721,1.3699,1.2877,1.0803,0.7179,0.0,0.0,0.0,0.0,0.0,0.0,0.0,0.0,0.0,0.0,0.0,0.0,0.0,0.0,0.0,0.0,0.0,0.0,0.0,0.0,0.0,0.0,0.0,0.0,0.0,0.0,0.0,0.0,0.0,0.0,0.0,0.0,0.0,0.0,0.0,0.0,0.0,0.0,0.0,0.0,0.0,0.0,0.0,0.0,0.0,0.0,0.0,0.0,0.0,0.0,0.0,0.0,0.0,0.0,0.0,0.0,0.0,0.0,0.0,0.0,0.0,0.0,0.0,0.0,0.0,0.0,0.0,0.0,0.0,0.0,0.0,0.0,0.0,0.0,0.0,0.0,0.0,0.0,0.0,0.0,0.0,0.0,0.0,0.0,0.0,0.0,0.0,0.0,0.0,0.0,0.0,0.0,0.0,0.0,0.0,0.0,0.0,0.0,0.0,0.0,0.0,0.0,0.0,0.0,0.866,1.1755,1.3743,1.4796,1.4621,1.3898,1.2043,0.8766,0.0,0.0,0.0,0.0,0.0,0.0,0.0,0.0,0.0,0.0,0.0,0.0,0.0,0.0,0.0,0.0,0.0,0.0,0.0,0.0,0.0,0.0,0.0,0.0,0.0,0.0,0.0,0.0,0.0,0.0,0.0,0.0,0.0,0.0,0.0,0.0,0.0,0.0,0.0,0.0,0.0,0.0,0.0,0.0,0.0,0.0,0.0,0.0,0.0,0.0,0.0,0.0,0.0,0.0,0.0,0.0,0.0,0.0,0.0,0.0,0.0,0.0,0.0,0.0,0.0,0.0,0.0,0.0,0.0,0.0,0.0,0.0,0.0,0.0,0.0,0.0,0.0,0.0,0.0,0.0,0.0,0.0,0.0,0.0,0.0,0.0,0.0,0.0,0.0,0.0,0.0,0.0,0.0,0.0,0.0,0.0,0.0,0.0,0.0,0.0,0.0,0.0,0.0,0.882,0.9982,1.3055,1.4477,1.5161,1.5073,1.4637,1.3021,0.99,0.8753,0.0,0.0,0.0,0.0,0.0,0.0,0.0,0.0,0.0,0.0,0.0,0.0,0.0,0.0,0.0,0.0,0.0,0.0,0.0,0.0,0.0,0.0,0.0,0.0,0.0,0.0,0.0,0.0,0.0,0.0,0.0,0.0,0.0,0.0,0.0,0.0,0.0,0.0,0.0,0.0,0.0,0.0,0.0,0.0,0.0,0.0,0.0,0.0,0.0,0.0,0.0,0.0,0.0,0.0,0.0,0.0,0.0,0.0,0.0,0.0,0.0,0.0,0.0,0.0,0.0,0.0,0.0,0.0,0.0,0.0,0.0,0.0,0.0,0.0,0.0,0.0,0.0,0.0,0.0,0.0,0.0,0.0,0.0,0.0,0.0,0.0,0.0,0.0,0.0,0.0,0.0,0.0,0.0,0.0,0.0,0.0,0.0,0.0,0.0,0.0,0.0,0.0,1.0026,1.1525,1.3762,1.4783,1.531,1.531,1.5069,1.3633,1.0646,1.0485,0.0,0.0,0.0,0.0,0.0,0.0,0.0,0.0,0.0,0.0,0.0,0.0,0.0,0.0,0.0,0.0,0.0,0.0,0.0,0.0,0.0,0.0,0.0,0.0,0.0,0.0,0.0,0.0,0.0,0.0,0.0,0.0,0.0,0.0,0.0,0.0,0.0,0.0,0.0,0.0,0.0,0.0,0.0,0.0,0.0,0.0,0.0,0.0,0.0,0.0,0.0,0.0,0.0,0.0,0.0,0.0,0.0,0.0,0.0,0.0,0.0,0.0,0.0,0.0,0.0,0.0,0.0,0.0,0.0,0.0,0.0,0.0,0.0,0.0,0.0,0.0,0.0,0.0,0.0,0.0,0.0,0.0,0.0,0.0,0.0,0.0,0.0,0.0,0.0,0.0,0.0,0.0,0.0,0.0,0.0,0.0,0.0,0.0,0.0,0.0,0.0,0.0,1.0535,1.357,1.4459,1.5,1.5304,1.5304,1.5117,1.3722,1.0771,0.9965,0.0,0.0,0.0,0.0,0.0,0.0,0.0,0.0,0.0,0.0,0.0,0.0,0.0,0.0,0.0,0.0,0.0,0.0,0.0,0.0,0.0,0.0,0.0,0.0,0.0,0.0,0.0,0.0,0.0,0.0,0.0,0.0,0.0,0.0,0.0,0.0,0.0,0.0,0.0,0.0,0.0,0.0,0.0,0.0,0.0,0.0,0.0,0.0,0.0,0.0,0.0,0.0,0.0,0.0,0.0,0.0,0.0,0.0,0.0,0.0,0.0,0.0,0.0,0.0,0.0,0.0,0.0,0.0,0.0,0.0,0.0,0.0,0.0,0.0,0.0,0.0,0.0,0.0,0.0,0.0,0.0,0.0,0.0,0.0,0.0,0.0,0.0,0.0,0.0,0.0,0.0,0.0,0.0,0.0,0.0,0.0,0.0,0.0,0.0,0.0,0.0,0.0,1.2064,1.3119,1.4745,1.5133,1.5324,1.5362,1.5137,1.3646,1.0498,0.0,0.0,0.0,0.0,0.0,0.0,0.0,0.0,0.0,0.0,0.0,0.0,0.0,0.0,0.0,0.0,0.0,0.0,0.0,0.0,0.0,0.0,0.0,0.0,0.0,0.0,0.0,0.0,0.0,0.0,0.0,0.0,0.0,0.0,0.0,0.0,0.0,0.0,0.0,0.0,0.0,0.0,0.0,0.0,0.0,0.0,0.0,0.0,0.0,0.0,0.0,0.0,0.0,0.0,0.0,0.0,0.0,0.0,0.0,0.0,0.0,0.0,0.0,0.0,0.0,0.0,0.0,0.0,0.0,0.0,0.0,0.0,0.0,0.0,0.0,0.0,0.0,0.0,0.0,0.0,0.0,0.0,0.0,0.0,0.0,0.0,0.0,0.0,0.0,0.0,0.0,0.0,0.0,0.0,0.0,0.0,0.0,0.0,0.0,0.0,0.0,0.0,1.3733,1.3399,1.3317,1.4926,1.5247,1.5338,1.5373,1.5195,1.3829,1.0855,0.0,0.0,0.0,0.0,0.0,0.0,0.0,0.0,0.0,0.0,0.0,0.0,0.0,0.0,0.0,0.0,0.0,0.0,0.0,0.0,0.0,0.0,0.0,0.0,0.0,0.0,0.0,0.0,0.0,0.0,0.0,0.0,0.0,0.0,0.0,0.0,0.0,0.0,0.0,0.0,0.0,0.0,0.0,0.0,0.0,0.0,0.0,0.0,0.0,0.0,0.0,0.0,0.0,0.0,0.0,0.0,0.0,0.0,0.0,0.0,0.0,0.0,0.0,0.0,0.0,0.0,0.0,0.0,0.0,0.0,0.0,0.0,0.0,0.0,0.0,0.0,0.0,0.0,0.0,0.0,0.0,0.0,0.0,0.0,0.0,0.0,0.0,0.0,0.0,0.0,0.0,0.0,0.0,0.0,0.0,0.0,0.0,0.0,0.0,0.0,0.0,0.0,1.3733,1.4405,1.4578,1.5056,1.5287,1.5374,1.5316,1.5292,1.4332,0.0,0.0,0.0,0.0,0.0,0.0,0.0,0.0,0.0,0.0,0.0,0.0,0.0,0.0,0.0,0.0,0.0,0.0,0.0,0.0,0.0,0.0,0.0,0.0,0.0,0.0,0.0,0.0,0.0,0.0,0.0,0.0,0.0,0.0,0.0,0.0,0.0,0.0,0.0,0.0,0.0,0.0,0.0,0.0,0.0,0.0,0.0,0.0,0.0,0.0,0.0,0.0,0.0,0.0,0.0,0.0,0.0,0.0,0.0,0.0,0.0,0.0,0.0,0.0,0.0,0.0,0.0,0.0,0.0,0.0,0.0,0.0,0.0,0.0,0.0,0.0,0.0,0.0,0.0,0.0,0.0,0.0,0.0,0.0,0.0,0.0,0.0,0.0,0.0,0.0,0.0,0.0,0.0,0.0,0.0,0.0,0.0,0.0,0.0,0.0,0.0,0.0,0.0,1.3777,1.4516,1.4783,1.5252,1.5317,1.5338,1.5373,1.5326,1.4334,1.2031,0.0,0.0,0.0,0.0,0.0,0.0,0.0,0.0,0.0,0.0,0.0,0.0,0.0,0.0,0.0,0.0,0.0,0.0,0.0,0.0,0.0,0.0,0.0,0.0,0.0,0.0,0.0,0.0,0.0,0.0,0.0,0.0,0.0,0.0,0.0,0.0,0.0,0.0,0.0,0.0,0.0,0.0,0.0,0.0,0.0,0.0,0.0,0.0,0.0,0.0,0.0,0.0,0.0,0.0,0.0,0.0,0.0,0.0,0.0,0.0,0.0,0.0,0.0,0.0,0.0,0.0,0.0,0.0,0.0,0.0,0.0,0.0,0.0,0.0,0.0,0.0,0.0,0.0,0.0,0.0,0.0,0.0,0.0,0.0,0.0,0.0,0.0,0.0,0.0,0.0,0.0,0.0,0.0,0.0,0.0,0.0,0.0,0.0,0.0,0.0,0.0,0.0,1.3966,1.4653,1.485,1.5232,1.526,1.5235,1.5203,1.5157,1.4569,1.3221,0.0,0.0,0.0,0.0,0.0,0.0,0.0,0.0,0.0,0.0,0.0,0.0,0.0,0.0,0.0,0.0,0.0,0.0,0.0,0.0,0.0,0.0,0.0,0.0,0.0,0.0,0.0,0.0,0.0,0.0,0.0,0.0,0.0,0.0,0.0,0.0,0.0,0.0,0.0,0.0,0.0,0.0,0.0,0.0,0.0,0.0,0.0,0.0,0.0,0.0,0.0,0.0,0.0,0.0,0.0,0.0,0.0,0.0,0.0,0.0,0.0,0.0,0.0,0.0,0.0,0.0,0.0,0.0,0.0,0.0,0.0,0.0,0.0,0.0,0.0,0.0,0.0,0.0,0.0,0.0,0.0,0.0,0.0,0.0,0.0,0.0,0.0,0.0,0.0,0.0,0.0,0.0,0.0,0.0,0.0,0.0,0.0,0.0,0.0,0.0,0.0,0.0,1.4217,1.4773,1.4803,1.5034,1.5119,1.5059,1.4845,1.4843,1.4899,1.4965,0.0,0.0,0.0,0.0,0.0,0.0,0.0,0.0,0.0,0.0,0.0,0.0,0.0,0.0,0.0,0.0,0.0,0.0,0.0,0.0,0.0,0.0,0.0,0.0,0.0,0.0,0.0,0.0,0.0,0.0,0.0,0.0,0.0,0.0,0.0,0.0,0.0,0.0,0.0,0.0,0.0,0.0,0.0,0.0,0.0,0.0,0.0,0.0,0.0,0.0,0.0,0.0,0.0,0.0,0.0,0.0,0.0,0.0,0.0,0.0,-0.2752,-0.134,0.0,0.0,0.0,0.0,0.0,0.0,0.0,0.0,0.0,0.0,0.0,0.0,0.0,0.0,0.0,0.0,0.0,0.0,0.0,0.0,0.0,0.0,0.0,0.0,0.0,0.0,0.0,0.0,0.0,0.0,0.0,0.0,0.0,0.0,0.0,0.0,0.0,0.0,0.0,0.0,1.3984,1.4742,1.4831,1.4797,1.4749,1.4584,1.4231,1.448,1.4699,1.4752,1.3819,0.0,0.0,0.0,0.0,0.0,0.0,0.0,0.0,0.0,0.0,0.0,0.0,0.0,0.0,0.0,0.0,0.0,0.0,0.0,0.0,0.0,0.0,0.0,0.0,0.0,0.0,0.0,0.0,0.0,0.0,0.0,0.0,0.0,0.0,0.0,0.0,0.0,0.0,0.0,0.0,0.0,0.0,0.0,0.0,0.0,0.0,0.0,0.0,0.0,0.0,0.0,0.0,0.0,0.0,0.0,0.0,0.0,0.0,0.0,-0.5684,-0.3888,0.0,0.0,0.0,0.0,0.0,0.0,0.0,0.0,0.0,0.0,0.0,0.0,0.0,0.0,0.0,0.0,0.0,0.0,0.0,0.0,0.0,0.0,0.0,0.0,0.0,0.0,0.0,0.0,0.0,0.0,0.0,0.0,0.0,0.0,0.0,0.0,0.0,0.0,0.0,0.0,1.3003,1.4148,1.4512,1.4425,1.441,1.4227,1.38,1.4071,1.4226,1.4132,1.4511,0.0,0.0,0.0,0.0,0.0,0.0,0.0,0.0,0.0,0.0,0.0,0.0,0.0,0.0,0.0,0.0,0.0,0.0,0.0,0.0,0.0,0.0,0.0,0.0,0.0,0.0,0.0,0.0,0.0,0.0,0.0,0.0,0.0,0.0,0.0,0.0,0.0,0.0,0.0,0.0,0.0,0.0,0.0,0.0,0.0,0.0,0.0,0.0,0.0,0.0,0.0,0.0,0.0,-0.6363,-0.7992,-1.0373,-0.8016,-0.7719,-0.9057,-0.8955,-0.7162,-0.417,-0.1741,0.0,0.0,0.0,0.0,0.0,0.0,0.0,0.0,0.0,0.0,0.0,0.0,0.0,0.0,0.0,0.0,0.0,0.0,0.0,0.0,0.0,0.0,1.2519,0.0,1.219,1.3662,0.9319,0.0,0.0,0.0,0.0,0.0,0.0,0.0,0.0,0.0,0.0,0.0,1.2166,1.3492,1.4095,1.4066,1.4087,1.3907,1.3449,1.3671,1.3733,1.3418,1.4137,1.4423,0.0,0.0,0.0,0.0,0.0,0.0,0.0,0.0,0.0,0.0,0.0,0.0,0.0,0.0,0.0,0.0,0.0,0.0,0.0,0.0,0.0,0.0,0.0,0.0,0.0,0.0,0.0,0.0,0.0,0.0,0.0,0.0,0.2657,0.2288,0.0,0.0,0.0,0.0,0.0,0.0,0.0,0.0,0.0,0.0,0.0,0.0,0.0,-0.524,-0.5888,-0.4846,-0.4606,-0.5214,-0.6552,-0.7695,-0.868,-0.9761,-1.0664,-1.138,-1.157,0.0,-0.624,-0.1909,0.0,0.0,0.0,0.0,0.0,0.0,0.0,0.0,0.0,0.0,0.0,0.0,0.0,0.0,0.0,0.0,0.0,0.0,0.0,0.0,0.0,0.0,0.4842,0.7367,0.9538,1.1047,0.0,1.0242,0.9991,1.1728,0.8684,0.4977,0.0,0.0,0.0,0.0,0.0,0.0,1.2835,1.3494,1.3805,1.3917,1.3771,1.3486,1.3023,1.3376,1.3457,1.3005,1.3624,1.3387,1.1979,1.3311,0.0,0.0,0.0,0.0,0.0,0.0,0.0,0.0,0.0,0.0,0.0,0.0,0.0,0.0,0.0,0.0,0.0,0.0,0.0,0.0,0.0,0.0,0.0,0.0,0.0,0.0,0.0,0.0,0.0,0.324,0.2632,0.2632,0.2087,0.1582,0.0,0.0,0.0,0.0,0.0,0.0,0.0,0.0,0.0,-0.4361,-0.5567,-0.6169,-0.6021,-0.6761,-0.7141,-0.7193,-0.8406,-0.9268,-0.9799,-1.0703,-1.1445,-1.2045,-1.2312,-1.1958,-1.1019,-0.8338,-0.5375,-0.2616,0.0,0.0,0.0,0.0,-0.591,-0.5907,-0.5111,-0.493,-0.4896,-0.3914,0.0,0.0,0.0,0.0,0.0,0.0,0.0,-0.0615,0.0,0.0,0.2072,0.599,0.5687,0.5672,0.9907,0.9713,0.9641,1.2742,1.2321,1.0289,0.6613,0.5422,0.0,0.0,0.0,1.1972,1.2421,1.3067,1.3548,1.3706,1.3646,1.3474,1.3159,1.3345,1.3278,1.2767,1.3292,1.3261,1.2442,1.2455,1.1617,0.0,0.0,0.0,0.0,0.0,0.0,0.0,0.0,0.0,0.0,0.0,0.0,0.0,0.0,0.0,0.0,0.0,0.0,0.0,0.0,0.0,0.0,0.0,0.0,0.0,0.0,0.0,0.0,0.3689,0.288,0.3141,0.276,0.2123,0.0,0.0,0.0,0.0,0.0,0.0,-0.3054,-0.5407,-0.6553,-0.6087,-0.7293,-0.7773,-0.7375,-0.8723,-0.9436,-0.9543,-1.0298,-1.0921,-1.1413,-1.1689,-1.2156,-1.2758,-1.2931,-1.3632,-1.4543,-1.2864,-0.9801,-0.629,-0.7153,-0.7664,-0.8084,-0.9269,-0.9859,-0.9865,-0.8577,-0.815,-0.7938,-0.6632,-0.6437,-0.6862,-0.7705,0.0,0.0,0.0,0.0,-0.1191,0.0968,0.0086,-0.0423,0.331,0.2047,0.1731,0.8074,0.8819,0.9208,1.2383,1.3812,1.3444,1.0113,0.9487,0.0,0.9052,1.1313,1.2874,1.234,1.2906,1.3468,1.376,1.3796,1.3693,1.3424,1.3459,1.3244,1.2649,1.3041,1.3192,1.2991,1.1967,1.1848,1.2798,0.0,0.0,0.0,0.0,0.0,0.0,0.0,0.0,0.0,0.0,0.0,0.0,0.0,0.0,0.0,0.0,0.0,0.0,0.0,0.0,0.0,0.0,0.0,0.0,0.0,0.0,0.0,0.0,0.0,0.4145,0.3582,0.0,0.0,0.0,0.0,-0.3368,-0.4999,-0.5886,-0.5885,-0.8121,-0.9205,-0.8729,-0.9693,-1.0604,-1.1383,-1.0256,-1.031,-1.1547,-1.1606,-1.2025,-1.2716,-1.3037,-1.3565,-1.4187,-1.4132,-1.4533,-1.4899,-1.1528,-1.0727,-1.1319,-0.8363,-0.7881,-0.8755,-0.8084,-0.8354,-0.894,-0.8043,-0.7719,-0.7716,-0.7639,-0.8424,-0.9354,-0.9023,-0.7633,0.0,0.0,-0.4917,-0.3694,-0.3406,-0.4187,-0.4422,-0.2066,-0.0735,0.1355,0.6293,0.849,1.025,1.2794,1.2924,1.2351,1.142,0.0,1.0921,1.0708,1.2271,1.3419,1.326,1.3372,1.3703,1.4294,1.4304,1.4114,1.3715,1.3747,1.3453,1.2652,1.2871,1.2908,1.2633,1.2568,1.2013,1.0955,1.2056,0.0,0.0,0.0,0.0,0.0,0.0,0.0,0.0,0.0,0.0,0.0,0.0,0.0,0.0,0.0,0.0,0.0,0.0,0.0,0.0,0.0,0.0,0.0,0.0,0.0,0.0,0.0,0.0,0.4019,0.3357,0.0,0.0528,-0.048,-0.2086,-0.4642,-0.713,-0.8807,-0.9417,-1.2007,-1.3193,-1.2638,-1.2303,-1.2358,-1.2846,-1.1708,-1.1708,-1.2846,-1.2901,-1.3333,-1.4101,-1.4397,-1.4652,-1.4902,-1.503,-1.5772,-1.6737,-1.5031,-1.4239,-1.4114,-1.3865,-1.3403,-1.301,-1.3923,-1.4109,-1.3927,-1.4169,-1.3933,-1.3395,-1.2844,-1.2606,-1.223,-1.0395,-0.8906,-0.7422,-0.5346,-0.4346,-0.3927,-0.4045,-0.4549,-0.463,-0.3013,-0.1171,0.1327,0.5414,0.8182,1.0325,1.1897,1.2931,1.2937,1.1024,1.1996,1.2521,1.1022,1.2345,1.3475,1.3427,1.3573,1.3907,1.4521,1.453,1.4362,1.4047,1.3895,1.3532,1.2908,1.2942,1.2813,1.2372,1.2514,1.2389,1.1895,1.2735,1.1919,0.0,0.0,0.0,0.0,0.0,0.0,0.0,0.0,0.0,0.0,0.0,0.0,0.0,0.0,0.0,0.0,0.0,0.0,0.0,0.0,0.0,0.0,0.0,0.0,0.0,0.3867,0.3806,0.3618,0.3034,0.1795,-0.0388,-0.1799,-0.3851,-0.7006,-0.9903,-1.1856,-1.2632,-1.5008,-1.5945,-1.5152,-1.4538,-1.4365,-1.4702,-1.3682,-1.3682,-1.4702,-1.4628,-1.5005,-1.5737,-1.5834,-1.602,-1.6289,-1.6341,-1.7093,-1.8191,-1.7323,-1.6507,-1.5931,-1.7032,-1.6965,-1.6375,-1.7412,-1.7679,-1.7558,-1.7831,-1.7572,-1.7034,-1.6454,-1.5667,-1.4574,-1.2735,-1.0821,-0.879,-0.6593,-0.5662,-0.5359,-0.5542,-0.574,-0.5585,-0.4448,-0.202,0.1284,0.5847,0.8349,1.0166,1.1696,1.3056,1.3326,1.1479,1.2848,1.3704,1.2184,1.3055,1.3893,1.3897,1.4056,1.4333,1.4795,1.5114,1.5052,1.4447,1.4232,1.3902,1.3339,1.3038,1.2807,1.264,1.2233,1.2056,1.2091,1.2521,1.1849,1.0015,0.0,0.0,0.0,0.0,0.0,0.0,0.0,0.0,0.0,0.0,0.0,0.0,0.0,0.0,0.0,0.0,0.0,0.0,0.0,0.0,0.0,0.0,0.0,0.347,0.3889,0.3875,0.3095,0.265,0.1268,-0.1567,-0.3806,-0.6705,-1.0627,-1.3264,-1.4917,-1.5406,-1.6904,-1.7223,-1.6115,-1.6341,-1.6689,-1.7146,-1.6212,-1.6212,-1.7166,-1.6823,-1.7027,-1.7673,-1.7437,-1.7746,-1.8444,-1.8152,-1.8506,-1.9175,-1.8084,-1.7297,-1.6856,-1.7408,-1.7938,-1.8332,-1.7838,-1.8368,-1.9199,-1.834,-1.8047,-1.8001,-1.788,-1.7082,-1.6107,-1.5725,-1.3138,-1.0278,-1.006,-0.9074,-0.8077,-0.8133,-0.8021,-0.7632,-0.6615,-0.3343,0.1296,0.7633,0.9151,1.0016,1.244,1.3315,1.3487,1.2906,1.3739,1.4422,1.4228,1.451,0.0,1.4712,1.4843,1.4977,1.5093,1.6049,1.6172,1.4953,1.482,1.4549,1.3993,1.3143,1.2902,1.3494,1.1903,1.114,1.14,1.1594,1.1898,1.229,0.0,0.0,0.0,0.0,0.0,0.0,0.0,0.0,0.0,0.0,0.0,0.0,0.0,0.0,0.0,0.0,0.0,0.0,0.0,0.0,0.0,0.4394,0.4592,0.3821,0.3367,0.3093,0.3066,0.1093,-0.0918,-0.2585,-0.5439,-0.845,-1.1538,-1.3213,-1.4841,-1.6474,-1.7885,-1.8431,-1.7949,-1.8179,-1.8321,-1.8397,-1.7159,-1.7374,-1.8906,-1.8425,-1.8716,-1.9727,-2.0038,-2.0183,-2.0241,-2.0776,-2.0939,-2.0775,-2.0455,-1.896,-1.6955,-1.7685,-1.73,-1.6516,-1.8162,-1.9161,-1.9668,-1.9121,-1.8887,-1.83,-1.5268,-1.3834,-1.2723,-0.9885,-0.7927,-0.685,-0.7525,-0.7427,-0.7532,-0.9185,-0.9693,-0.8725,-0.4636,-0.1414,0.262,0.9512,1.2517,1.4143,1.502,1.5267,1.4871,1.3419,1.3624,1.4069,1.4316,1.5178,1.5571,1.4937,1.5433,1.5705,1.5358,1.5573,1.576,1.5807,1.5188,1.4895,1.5115,1.4316,1.3819,1.3799,1.3519,1.347,1.3679,1.2478,1.2666,0.0,0.0,0.0,0.0,0.0,0.0,0.0,0.0,0.0,0.0,0.0,0.0,0.0,0.0,0.0,0.0,0.0,0.0,0.0,0.0,0.0,0.0,0.5425,0.5843,0.5391,0.438,0.3438,0.2714,0.0392,-0.1854,-0.373,-0.6788,-0.9703,-1.2337,-1.3991,-1.5598,-1.7263,-1.8578,-1.9212,-1.8998,-1.9181,-1.9269,-1.9236,-1.8446,-1.8593,-1.9651,-1.9165,-1.9593,-2.0768,-2.0916,-2.126,-2.1727,-2.1968,-2.1957,-2.1365,-1.581,-1.3781,0.0,0.0,0.0,0.0,0.0,-1.8558,-1.9331,-1.8934,-1.922,-1.902,-1.4648,-1.0912,-0.7846,-0.6529,-0.5232,-0.4301,-0.4864,-0.4836,-0.4798,-0.5591,-0.4797,-0.3214,-0.0855,0.2816,0.7298,1.2901,1.4879,1.5715,1.6215,1.644,0.0,1.5228,1.4911,1.4775,1.4664,1.5543,1.5866,1.4931,1.5254,1.5463,1.5226,1.5818,1.6269,1.6363,1.5848,0.0,0.0,0.0,1.3703,1.3132,1.3244,0.0,0.0,0.0,0.0,0.0,0.0,0.0,0.0,1.2075,1.2572,0.0,0.0,0.0,0.0,0.0,0.0,0.0,0.0,0.0,0.0,0.0,0.0,0.0,0.0,0.0,0.0,0.6461,0.7412,0.78,0.6539,0.4845,0.2828,0.0565,-0.1847,-0.4435,-0.7315,-1.0043,-1.2428,-1.4182,-1.5648,-1.6634,-1.8121,0.0,0.0,0.0,-1.95,-1.9699,-1.9499,-1.9325,-1.9214,-1.8866,-1.9311,-2.0389,-2.0807,-2.1698,-2.284,-2.1287,-2.0438,-1.9221,-0.7393,-0.4798,-0.8725,-1.2782,-1.47,-1.5225,-1.5873,-1.7062,-1.8197,-1.7193,0.0,0.0,-1.3094,-0.7168,-0.2116,-0.355,-0.2646,-0.1206,-0.1426,-0.0973,-0.0233,0.067,0.3444,0.5623,0.4174,0.8397,1.361,1.6675,1.6509,1.6007,1.6845,1.7267,1.7512,1.7615,1.6828,1.5925,1.5173,1.5654,1.5738,1.4709,1.4734,1.4828,1.4807,0.0,0.0,1.6597,1.6421,1.6362,1.6425,1.4684,1.3264,1.2367,1.2289,1.2385,1.2598,1.2683,1.3596,1.5354,1.541,1.5404,1.5303,1.2704,1.2306,0.0,0.0,0.0,0.0,0.0,0.0,0.0,0.0,0.0,0.0,0.0,0.0,0.0,0.0,0.0,0.7367,0.9223,1.066,1.0791,0.9607,0.8145,0.6464,0.2457,-0.0849,-0.256,-0.4832,-0.7091,-0.9285,-0.8733,-0.882,-0.989,-1.268,-1.4256,-1.4324,-1.6453,-1.828,-1.9694,-1.8186,-1.7049,-1.6228,-1.5887,0.0,-1.6266,-2.114,-2.3501,-2.3358,-1.5987,-1.0469,-0.6471,-0.3386,0.029,0.2893,-0.8102,-1.3163,-1.4455,-1.5315,-1.5843,-1.544,-1.0718,-0.7723,-0.5174,-0.0162,0.1791,0.28,0.6172,0.7477,0.0,0.5838,0.5986,0.6336,0.4996,0.6799,0.9068,0.9496,1.3264,1.6935,1.7497,1.7803,1.8289,1.9386,1.9093,1.8618,1.8425,1.7077,1.5892,1.5459,1.5434,1.5081,1.3959,1.4899,1.5287,1.4278,1.5094,1.5849,1.6234,1.5724,1.5702,1.6512,1.5405,1.4601,1.4357,1.4074,1.4119,1.4474,1.4285,1.4908,1.6336,1.6288,1.6496,1.6918,1.4865,1.3941,0.0,0.0,0.0,0.0,0.0,0.0,0.0,0.0,0.0,0.0,0.0,0.4948,0.5583,0.0,0.9729,1.035,1.2216,1.3685,1.4059,1.3072,1.1336,0.8693,0.4036,0.0584,-0.0514,-0.355,-0.54,-0.5443,-0.53,-0.593,-0.7608,-1.0038,-1.3868,-1.9252,-1.235,-1.1035,-1.625,-1.543,-1.4219,-1.2616,-1.0255,-1.1205,-1.4907,-1.238,-1.1881,-1.2747,-0.8229,-0.3584,0.1148,0.5394,0.8794,1.0689,0.5108,-0.0907,-0.6413,-0.6714,-0.7107,-0.6859,-0.2758,0.0211,0.3042,0.8157,1.0011,1.0454,1.1486,1.2005,1.2124,1.1486,1.1823,1.22,1.128,1.2796,1.4726,1.5449,1.7037,1.8414,1.8488,1.8823,1.928,1.9838,1.9464,1.91,1.9273,1.7737,1.6196,1.5325,1.5342,1.4918,1.3447,1.3923,1.4188,1.3614,1.4431,1.5255,1.5907,1.5834,1.5738,1.5705,1.5153,1.5015,1.5382,1.485,1.489,1.5639,1.5543,1.5835,1.6501,1.693,1.7317,1.7572,1.6562,1.5617,0.0,0.0,0.0,0.0,0.0,0.0,0.0,0.4005,0.4216,0.5556,0.6353,0.7215,0.8611,1.0482,1.218,1.3467,1.5191,1.6499,1.6952,1.615,1.4326,1.1119,0.6507,0.2987,0.1628,-0.1199,-0.2559,-0.1742,-0.1469,-0.2204,-0.416,-0.5564,-1.0214,-1.8793,-0.6639,-0.3225,-0.9933,-1.0777,-1.0131,-0.808,-0.3331,-0.3799,-0.8566,-0.0118,0.3371,0.278,0.2493,0.4362,0.8033,1.4373,1.6524,1.5991,1.7183,1.2412,0.4917,0.5322,0.5249,0.527,0.7336,0.8685,1.0245,1.4597,1.6804,1.7406,1.5535,1.5351,1.5932,1.6574,1.7186,1.7664,1.7694,1.8776,1.9876,2.0041,1.9432,1.8889,1.916,1.9367,1.9612,1.9888,1.9651,1.9568,2.0089,1.8649,1.6958,1.5488,1.5427,1.4978,1.3328,1.3103,1.3148,1.3189,1.4007,1.4802,1.5428,1.6041,1.6025,1.5171,1.521,1.5542,1.6181,1.5596,1.5651,1.6554,1.6648,1.6759,1.6947,1.7709,1.8153,1.8324,1.8204,1.7337,0.5514,0.4713,0.4075,0.4523,0.4475,0.4713,0.0,0.6172,0.6227,0.7825,0.8529,0.9309,1.0708,1.3132,1.5151,1.5908,1.7924,1.9206,1.8625,1.7582,1.6555,1.5714,1.1495,0.7366,0.4045,0.5031,0.4401,0.0814,0.5253,0.7695,0.6619,0.6544,0.5979,0.479,0.1657,0.0102,0.033,-0.2691,-0.3397,-0.1754,0.4352,0.9438,1.3461,1.2203,1.4679,1.9883,1.8593,1.8068,1.8078,1.9006,1.9091,1.8596,1.8067,1.7757,1.7623,1.833,1.9415,2.0694,2.1512,2.0513,1.9163,2.0862,2.069,1.9929,2.0694,2.1199,2.154,2.187,2.2406,2.2774,2.2445,2.2071,2.1531,2.0576,1.9427,1.8601,1.8815,1.9063,1.9617,2.0945,2.0823,2.0577,2.0763,1.9835,1.8477,1.6846,1.593,1.5045,1.4008,1.3866,1.3797,1.3573,1.3822,1.4186,1.4684,1.5748,1.6341,1.6227,1.6875,1.7295,1.7329,1.7233,1.7305,1.7534,1.7602,1.805,1.8895,1.8981,1.9448,2.0204,2.0122,1.9103,0.693,0.6496,0.6099,0.6462,0.6466,0.6642,0.7637,0.7903,0.8429,1.0216,1.1272,1.2424,1.427,1.6233,1.7948,1.9229,2.0418,2.1077,2.0767,1.9078,1.7605,1.6738,1.3176,0.986,0.7455,0.6226,0.5826,0.6441,0.9618,1.2685,1.5213,1.513,1.6085,1.8474,1.6196,1.3056,0.9085,0.7618,0.6104,0.4532,0.9701,1.3893,1.7137,1.8435,2.0351,2.2634,2.108,2.038,2.0307,1.9962,2.0255,2.0911,2.0152,2.066,2.1709,2.0743,2.1169,2.2392,2.3581,2.2794,2.1396,2.2168,2.1658,2.0891,2.1666,2.2391,2.3053,2.3717,2.43,2.4496,2.343,2.2524,2.1655,2.0838,1.9921,1.947,2.0261,2.0756,2.1195,2.1605,2.0934,2.0389,2.0684,1.963,1.8708,1.8475,1.7131,1.5891,1.5125,1.47,1.4405,1.4257,1.4381,1.4803,1.5637,1.6571,1.7301,1.7774,1.8259,1.8707,1.9116,1.8728,1.8496,1.852,1.9041,1.9258,1.9138,2.0115,2.0527,2.0371,2.0355,1.9914,0.7671,0.7592,0.7528,0.7826,0.7968,0.8213,0.8835,0.9303,1.0148,1.201,1.348,1.5036,1.7133,1.8686,2.0136,2.1663,2.2099,2.2107,2.1645,1.9645,1.7685,1.6337,1.3037,1.0424,0.9387,0.7147,0.6842,0.9403,1.2273,1.5569,1.9492,2.0407,2.2126,2.4984,2.5476,2.2426,1.5595,1.5932,1.4116,1.0126,1.425,1.6945,1.8323,2.1675,2.3086,2.2813,2.1372,2.0875,2.1098,2.1089,2.1717,2.265,2.2363,2.2905,2.3686,2.212,2.1953,2.2656,2.3809,2.3438,2.2491,2.2625,2.2188,2.168,2.202,2.2658,2.3453,2.4346,2.4804,2.4755,2.3679,2.2605,2.1636,2.1041,2.0361,2.0138,2.1225,2.1782,2.2103,2.2192,2.1272,2.0572,2.0897,1.9809,1.9089,1.9572,1.8433,1.7311,1.6668,1.5836,1.5391,1.557,1.5606,1.6076,1.7229,1.8084,1.8862,1.9566,2.002,2.0497,2.1047,2.057,2.0227,2.0095,2.0711,2.0718,2.0096,2.1065,2.1243,2.0683,2.0447,2.0326,0.7168,0.7206,0.7448,0.8031,0.8425,0.8916,0.9905,1.0459,1.1198,1.2749,1.4588,1.6547,1.8491,2.0034,2.1404,2.2496,2.2678,2.2101,2.049,1.8695,1.6798,1.4798,1.1089,0.8676,0.8717,0.9153,0.888,0.7479,1.2914,1.678,1.7915,2.1724,2.3739,2.3477,2.4929,2.3586,1.9193,2.0557,1.9,1.4559,1.8331,2.0439,2.1019,2.2181,2.2967,2.3326,2.2286,2.1849,2.2007,2.367,2.4073,2.3731,2.4433,2.4839,2.5034,2.4976,2.4841,2.4707,2.4754,2.4359,2.3756,2.3244,2.2904,2.2659,2.2669,2.2919,2.3382,2.4182,2.4095,2.3766,2.3858,2.2999,2.1921,2.1247,2.0538,2.0213,2.095,2.1189,2.1582,2.2739,2.2245,2.1662,2.1761,2.0907,2.0112,1.9732,1.963,1.9331,1.8597,1.7418,1.6946,1.7718,1.7568,1.797,1.9292,2.0376,2.1168,2.1589,2.2419,2.2925,2.3005,2.2981,2.2859,2.2603,2.2615,2.2622,2.2583,2.1791,2.1499,2.1636,2.078,2.0395,0.8213,0.8597,0.8936,0.9349,0.9597,0.9903,1.055,1.1472,1.2773,1.4632,1.4843,1.5244,1.7094,1.7711,1.8222,1.9083,2.0451,2.0953,1.9699,1.7734,1.562,1.3349,1.0061,0.7406,0.5986,0.6929,0.7942,0.8741,1.3161,1.6498,1.8091,2.1875,2.3951,2.3802,2.5045,2.4159,2.0925,2.2273,2.1096,1.7434,2.0146,2.0957,2.0191,2.2595,2.3667,2.3562,2.3101,2.2997,2.3231,2.4072,2.4536,2.4704,2.4767,2.4945,2.5158,2.5119,2.5072,2.4995,2.4995,2.4459,2.3762,2.3725,2.3533,2.3397,2.3523,2.381,2.4155,2.4554,2.4561,2.431,2.3761,2.2977,2.2218,2.1955,2.1487,2.1285,2.2162,2.2542,2.2702,2.262,2.2153,2.1545,2.0923,2.0286,1.9839,1.9711,1.969,1.9577,1.9186,1.8686,1.8597,1.9243,1.9447,1.9932,2.0877,2.1699,2.2425,2.3054,2.3578,2.3828,2.3774,2.3681,2.33,2.2585,2.314,2.316,2.2637,2.302,2.2948,2.2487,2.2015,2.1786,0.9474,0.9856,0.9962,1.0059,1.0123,1.0242,1.058,1.1909,1.349,1.4972,1.4708,1.4523,1.5704,1.547,1.527,1.5832,1.7084,1.7917,1.7721,1.5674,1.3673,1.2261,0.9249,0.6811,0.5666,0.6211,0.72,0.8752,1.2583,1.6005,1.8527,2.2172,2.4229,2.4315,2.5212,2.4801,2.2924,2.3771,2.2598,1.943,2.096,2.1147,2.0219,2.2962,2.4326,2.4537,2.4132,2.4166,2.4543,2.4955,2.5034,2.4908,2.4903,2.4892,2.4886,2.5011,2.5018,2.4992,2.4935,2.449,2.389,2.3715,2.352,2.3351,2.3365,2.3541,2.3769,2.4081,2.41,2.3952,2.3599,2.3006,2.2498,2.2443,2.2141,2.2022,2.273,2.2952,2.2845,2.2384,2.1832,2.1212,2.0436,1.9965,1.9747,1.9909,1.9909,1.9917,1.9953,1.991,2.0194,2.1155,2.1349,2.1829,2.2825,2.3307,2.3802,2.4373,2.4602,2.4672,2.4569,2.4416,2.4013,2.3341,2.379,2.3841,2.3381,2.372,2.3679,2.3327,2.2766,2.2498,1.0909,1.1006,1.0625,1.0192,1.0007,0.9974,1.0116,1.1648,1.3249,1.3753,1.404,1.4181,1.4156,1.3358,1.2727,1.288,1.3095,1.3638,1.4869,1.2851,1.1366,1.164,0.8741,0.6999,0.7606,0.7116,0.7078,0.7725,1.1597,1.5488,1.9085,2.2664,2.4702,2.4936,2.552,2.5605,2.5152,2.5034,2.3552,2.0732,2.1,2.1199,2.1342,2.3398,2.5007,2.6083,2.5412,2.537,2.5829,2.6217,2.5642,2.4521,2.4973,2.4835,2.4396,2.4858,2.4942,2.4771,2.4657,2.4467,2.415,2.3329,2.2909,2.266,2.2398,2.2321,2.2409,2.2849,2.286,2.2838,2.3338,2.3077,2.2695,2.2669,2.249,2.236,2.2608,2.2361,2.2068,2.2068,2.1343,2.0621,2.0333,1.9965,1.9874,2.028,2.0366,2.0534,2.0991,2.1081,2.171,2.3361,2.3216,2.3577,2.4985,2.512,2.5227,2.5488,2.5508,2.5464,2.5379,2.5186,2.4992,2.479,2.4607,2.4607,2.4804,2.3992,2.3783,2.4139,2.3108,2.262,1.2327,1.2373,1.208,1.0348,1.0188,1.0215,0.9486,1.0452,1.1582,1.1926,1.0854,0.984,0.9678,0.9649,0.9783,1.034,1.2901,1.4962,1.5405,1.4407,1.3294,1.2464,1.0314,0.8802,0.8469,0.9017,1.0049,1.1546,1.4092,1.663,1.9084,2.3281,2.5577,2.5508,2.6891,2.7064,2.5859,2.4011,2.3345,2.3833,2.2447,2.2404,2.3614,2.5448,2.6388,2.6556,2.6683,2.6282,2.5609,2.601,2.5978,2.5689,2.5912,2.5542,2.4947,2.5368,2.5115,2.4591,2.4708,2.4447,2.4045,2.3815,2.3249,2.2608,2.2548,2.2513,2.2548,2.2675,2.2877,2.3045,2.2919,2.2848,2.2712,2.2453,2.2349,2.2338,2.2388,2.2039,2.1655,2.1336,2.0601,1.9949,1.9874,2.0035,2.0265,2.0605,2.1224,2.1678,2.1795,2.2168,2.2792,2.3759,2.422,2.4645,2.5072,2.5282,2.541,2.5421,2.5473,2.5374,2.5116,2.4955,2.4776,2.4575,2.467,2.4746,2.4804,2.4827,2.4896,2.4976,2.4454,2.4217,1.4408,1.4047,1.3186,1.1049,1.0473,1.003,0.864,0.9403,1.0339,1.0123,0.878,0.7557,0.723,0.7038,0.7098,0.7615,1.0218,1.2778,1.4381,1.3934,1.353,1.3716,1.2077,1.0945,1.1129,1.1492,1.2909,1.5736,1.7079,1.8635,2.0705,2.4617,2.6688,2.6448,2.7647,2.793,2.7167,2.474,2.4212,2.5522,2.3934,2.3694,2.4724,2.6373,2.7103,2.7061,2.7315,2.6965,2.6236,2.6567,2.6282,2.5636,2.5937,2.5623,2.5058,2.5184,2.5144,2.5037,2.5001,2.48,2.4494,2.3953,2.3271,2.2626,2.2495,2.2317,2.2201,2.2415,2.2495,2.2495,2.2537,2.2544,2.2535,2.2349,2.231,2.231,2.231,2.1811,2.115,2.0532,2.0015,1.9747,1.9929,2.0158,2.0536,2.1252,2.1866,2.241,2.288,2.3195,2.3606,2.4205,2.4714,2.5067,2.526,2.5396,2.5457,2.5447,2.5445,2.536,2.5133,2.4923,2.4771,2.4723,2.4682,2.4741,2.4891,2.5084,2.5214,2.5284,2.4968,2.4804,1.6563,1.5561,1.4052,1.1818,1.0729,0.9681,0.778,0.8459,0.9196,0.8198,0.7224,0.6365,0.5859,0.5283,0.511,0.5738,0.7253,0.9541,1.2943,1.28,1.302,1.4932,1.375,1.3224,1.445,1.4286,1.5691,1.9488,2.0286,2.136,2.3142,2.6269,2.7964,2.7847,2.8281,2.8606,2.883,2.6479,2.576,2.6641,2.545,2.5069,2.5506,2.6848,2.7458,2.7438,2.7582,2.7325,2.6868,2.7194,2.6446,2.5166,2.5561,2.5437,2.5011,2.485,2.5099,2.5541,2.5314,2.5201,2.498,2.4004,2.3193,2.2569,2.2264,2.1817,2.1521,2.202,2.1869,2.1718,2.218,2.2406,2.253,2.253,2.253,2.253,2.253,2.1771,2.0829,2.0015,1.9889,1.9965,2.0314,2.0467,2.0911,2.2006,2.2427,2.297,2.3988,2.41,2.4223,2.4601,2.4885,2.5178,2.5469,2.5431,2.543,2.5469,2.5434,2.5352,2.5243,2.4962,2.485,2.4937,2.4693,2.4708,2.501,2.5022,2.5141,2.5284,2.4975,2.4832,1.7532,1.6021,1.4239,1.1902,1.0729,0.9651,0.7532,0.7503,0.7443,0.5771,0.5291,0.4911,0.4096,0.4435,0.5575,0.7826,0.8997,1.0556,1.3342,1.3628,1.3879,1.4852,1.4821,1.5037,1.597,1.7216,1.8795,2.0611,2.3427,2.5048,2.4968,2.7601,2.9433,3.0115,2.9807,2.9894,3.0481,2.8103,2.7614,2.898,2.6818,2.6519,2.79,2.8163,2.785,2.7118,2.7579,2.6911,2.5568,2.6067,2.6101,2.5811,2.5798,2.5547,2.5283,2.5552,2.5344,2.492,2.5322,2.4975,2.4403,2.4542,2.3519,2.2102,2.1621,2.1023,2.0601,2.1086,2.1415,2.1718,2.218,2.3014,2.3707,2.3707,2.3707,2.3707,2.3707,2.2546,2.1337,2.0862,2.0764,2.0797,2.0862,2.1395,2.1933,2.2435,2.3191,2.3952,2.4582,2.4554,2.4605,2.4898,2.5168,2.5344,2.5408,2.5461,2.5457,2.5415,2.5413,2.5254,2.4896,2.4943,2.4845,2.4588,2.4804,2.493,2.501,2.5163,2.5264,2.5284,2.5065,2.4962,1.7812,1.6172,1.4326,1.1939,1.0639,0.9345,0.7072,0.6671,0.634,0.4842,0.4438,0.4134,0.3508,0.416,0.526,0.669,0.852,1.0457,1.244,1.3816,1.4999,1.6117,1.648,1.6997,1.8068,1.9232,2.0707,2.2607,2.5165,2.667,2.6795,2.8744,2.995,3.0171,3.0164,3.021,3.0321,2.9107,2.9097,3.0254,2.8241,2.7881,2.8952,2.8389,2.7776,2.7157,2.7128,2.655,2.5652,2.5822,2.5786,2.5577,2.5512,2.5557,2.5647,2.5412,2.536,2.5375,2.542,2.512,2.4738,2.4862,2.3849,2.2537,2.224,2.1806,2.149,2.2197,2.2378,2.2557,2.3261,2.3682,2.3952,2.3952,2.3623,2.3231,2.283,2.2158,2.1491,2.1086,2.0991,2.1102,2.1502,2.1869,2.2337,2.3047,2.3737,2.4307,2.4737,2.4939,2.5079,2.5197,2.536,2.5459,2.544,2.5449,2.5434,2.5408,2.5371,2.5255,2.508,2.503,2.4974,2.4923,2.4962,2.5046,2.5152,2.5253,2.5303,2.5303,2.5099,2.4962,1.7483,1.5951,1.4172,1.182,1.0383,0.8955,0.6628,0.6106,0.5749,0.455,0.4089,0.3809,0.3486,0.4038,0.4719,0.5373,0.731,0.9352,1.1107,1.3184,1.514,1.6784,1.7634,1.8561,1.9902,2.0803,2.2219,2.4457,2.6447,2.7897,2.8628,2.9695,3.0171,2.9921,3.0236,3.0283,3.0037,2.9923,3.0136,3.0652,2.9466,2.9,2.9117,2.8191,2.7538,2.7095,2.6505,2.6005,2.5652,2.5538,2.533,2.5028,2.5028,2.5297,2.557,2.5072,2.5219,2.5628,2.5411,2.5206,2.5012,2.4916,2.4046,2.307,2.2959,2.2664,2.2487,2.3349,2.3434,2.3466,2.4271,2.4452,2.4382,2.4382,2.3786,2.2986,2.2145,2.1864,2.1675,2.1354,2.1321,2.1562,2.2124,2.2354,2.2728,2.3617,2.4137,2.4527,2.482,2.5194,2.5428,2.5441,2.5474,2.55,2.5488,2.5427,2.5396,2.5391,2.533,2.5274,2.5243,2.5141,2.5111,2.5224,2.5111,2.5152,2.5303,2.5303,2.5303,2.5303,2.5141,2.4993,1.6284,1.5104,1.3717,1.1353,0.9952,0.8615,0.6576,0.6106,0.5749,0.455,0.4089,0.3875,0.3846,0.3716,0.4219,0.6096,0.6205,0.7033,0.9753,1.1237,1.2869,1.5115,1.7246,1.9096,2.0584,2.2267,2.38,2.5193,2.7867,2.9749,3.0425,3.036,3.0392,3.0595,3.0463,3.0529,3.0798,3.0781,3.0484,2.9908,3.0128,2.959,2.839,2.787,2.724,2.6522,2.568,2.5051,2.4552,2.4536,2.4496,2.4471,2.4471,2.4511,2.4617,2.5026,2.4886,2.4617,2.5048,2.487,2.4471,2.4455,2.3958,2.3289,2.2849,2.2592,2.2508,2.2996,2.3466,2.3935,2.4382,2.5253,2.5969,2.5969,2.5409,2.4579,2.3468,2.2709,2.2209,2.218,2.2375,2.2574,2.2626,2.3165,2.3638,2.3929,2.4416,2.4839,2.5032,2.5323,2.5503,2.5587,2.5538,2.5488,2.5412,2.5406,2.5372,2.5313,2.5293,2.5214,2.5034,2.5192,2.5203,2.5034,2.5192,2.5274,2.5303,2.5303,2.5303,2.5303,2.5274,2.5163,1.4456,1.3337,1.1871,1.0317,0.9168,0.8045,0.6464,0.6168,0.5956,0.4978,0.4567,0.4333,0.4171,0.3931,0.3952,0.4602,0.5115,0.5869,0.7022,0.859,1.0754,1.374,1.5684,1.7846,2.0552,2.2412,2.4414,2.6549,2.8419,2.9678,3.0179,3.0235,3.0191,3.0094,3.0283,3.0345,3.0238,3.0238,3.0222,3.0146,2.9468,2.8967,2.8611,2.7459,2.6785,2.6421,2.5233,2.4592,2.4389,2.4389,2.4184,2.3948,2.4266,2.4389,2.443,2.4632,2.4592,2.443,2.4617,2.4592,2.4389,2.4389,2.4444,2.4343,2.35,2.3427,2.3702,2.4201,2.4733,2.5259,2.5713,2.5962,2.6044,2.5576,2.5259,2.4919,2.4511,2.419,2.404,2.4234,2.4357,2.4512,2.4711,2.5091,2.5472,2.5708,2.6177,2.6536,2.6706,2.6922,2.6907,2.6498,2.5917,2.5529,2.5469,2.542,2.5379,2.5293,2.5303,2.5264,2.5173,2.5264,2.5264,2.5173,2.5264,2.5303,2.5303,2.5303,2.5243,2.5111,2.5111,2.4981,1.2582,1.187,1.0702,0.9493,0.8574,0.7658,0.6395,0.6207,0.6065,0.5268,0.4893,0.4646,0.4446,0.413,0.3828,0.3647,0.4347,0.5047,0.5357,0.6929,0.9103,1.2004,1.3707,1.6013,1.9549,2.2353,2.475,2.6731,2.8054,2.8896,2.9292,2.9718,2.9936,2.9907,3.0225,3.031,3.0127,3.0127,3.016,3.0218,2.9228,2.876,2.8672,2.7128,2.6387,2.6217,2.4792,2.4266,0.0,2.4389,2.4199,2.3879,2.443,2.443,2.4184,2.4348,2.4389,2.4389,2.4389,2.4511,2.4632,2.4632,2.4894,2.5067,2.4307,2.4471,2.491,2.5144,2.5689,2.6297,2.6607,2.6499,2.6141,2.5639,2.5347,2.5235,2.5409,2.5247,2.5212,2.5533,2.5743,2.5937,2.6182,2.651,2.6823,2.7073,2.7395,2.7654,2.7849,2.801,2.792,2.7417,2.6747,2.6116,2.5552,2.5415,2.5357,2.5293,2.5303,2.5303,2.5303,2.5303,2.5303,2.5303,2.5303,2.5303,2.5303,2.5234,2.5141,2.501,2.4962,2.478,1.0875,1.1013,1.062,0.9076,0.8363,0.7658,0.6395,0.6207,0.6065,0.5268,0.4893,0.4686,0.4686,0.4273,0.3911,0.389,0.3962,0.4415,0.5544,0.6675,0.8027,0.9632,1.1376,1.3807,1.737,2.2109,2.5035,2.5201,2.6601,2.7565,2.7912,2.8802,2.9633,3.0372,3.0403,3.0556,3.0898,3.0898,3.0518,2.9801,2.986,2.9327,2.8269,2.6922,2.6134,2.5724,2.4261,2.3921,0.0,2.4389,2.4389,2.443,2.4973,2.4536,2.3681,2.4184,2.4389,2.4389,2.4389,2.4752,2.5182,2.5182,2.5182,2.5221,2.5182,2.5577,2.5888,2.5335,2.5928,2.6691,2.6691,2.6691,2.6674,2.6674,2.6116,2.5703,2.6117,2.5629,2.5212,2.5533,2.6082,2.6491,2.6512,2.695,2.735,2.7573,2.7599,2.7711,2.7959,2.8061,2.8116,2.819,2.8127,2.7376,2.5644,2.5387,2.5303,2.5303,2.5303,2.5303,2.5303,2.5303,2.5303,2.5303,2.5303,2.5303,2.5303,2.5099,2.501,2.4998,2.485,2.47,0.8288,0.8344,0.8026,0.7366,0.7006,0.6639,0.5913,0.5854,0.5795,0.5214,0.503,0.4873,0.4486,0.4293,0.4181,0.4224,0.4252,0.4462,0.5007,0.6844,0.8937,1.1113,1.5369,1.8917,2.0908,2.2439,2.3405,2.3752,2.4657,2.5646,2.6626,2.713,2.8101,2.9663,2.9939,3.0104,3.0211,2.9993,2.9867,2.9874,2.9613,2.9062,2.8269,2.7431,2.6449,2.5363,2.4894,2.4592,2.4424,2.4601,2.4296,2.3771,2.4252,2.3842,2.3095,2.403,2.4389,2.4471,2.4816,2.5297,2.5742,2.5742,2.5944,2.6175,2.5835,2.5852,2.6033,2.6158,2.6454,2.6691,2.6691,2.6691,2.6691,2.6691,2.6719,2.6878,2.7268,2.7368,2.7458,2.7846,2.8239,2.8474,2.8474,2.8851,2.9174,2.9217,2.9398,2.9563,2.9678,2.977,2.962,2.9146,2.9079,2.8579,2.7381,2.7147,2.7082,2.7082,2.7082,2.7082,2.7082,2.7082,2.7082,2.7082,2.7082,2.6774,2.6197,2.6118,2.5669,2.4869,2.4685,2.4495,0.663,0.673,0.6578,0.6507,0.6332,0.6052,0.5694,0.5703,0.5654,0.5195,0.5108,0.4971,0.4527,0.4366,0.4292,0.4216,0.4117,0.4432,0.5442,0.6909,0.8887,1.1579,1.6247,1.9516,2.0165,2.1411,2.2221,2.2243,2.308,2.3897,2.4714,2.5647,2.6708,2.7926,2.8983,2.9584,2.9698,2.9751,2.9861,3.0055,2.9571,2.9025,2.843,2.7485,2.6332,2.5045,2.5185,2.4946,0.0,2.474,2.4454,2.3962,2.4237,2.3897,2.3388,2.4532,2.4941,2.5089,2.5684,2.6057,2.6297,2.6437,2.6607,2.6657,2.6367,2.6156,2.6085,2.659,2.6691,2.6691,2.6691,2.6691,2.6758,2.6906,2.7115,2.7439,2.7964,2.8264,2.8515,2.8929,2.927,2.9513,2.9513,2.9864,3.015,3.015,3.0299,3.0425,3.0452,3.0513,3.0393,2.9959,2.992,2.9684,2.9094,2.8349,2.7933,2.7901,2.789,2.789,2.789,2.7923,2.7933,2.789,2.7933,2.7663,2.7082,2.7009,2.6333,2.5152,2.5007,2.4688,0.0,0.5997,0.6103,0.631,0.6112,0.5807,0.5608,0.5662,0.0,0.5195,0.5088,0.5,0.4751,0.4472,0.4215,0.4,0.3765,0.4385,0.6658,0.7256,0.8657,1.1764,1.4971,1.681,1.6537,1.9551,2.1315,2.0743,2.1755,2.2448,2.2523,2.4445,2.5563,2.574,2.7781,2.9026,2.936,3.0044,3.0331,3.0235,2.9648,2.9117,2.8584,2.7198,2.595,2.4886,2.5216,2.5208,2.4906,2.4857,2.4875,2.4893,2.4875,2.458,2.4317,2.5461,2.5952,2.6177,2.6879,2.698,2.6841,2.721,2.7083,2.6791,2.6758,2.6436,2.6156,2.659,2.6725,2.6758,2.6758,2.6741,2.6873,2.7255,2.7348,2.7572,2.8246,2.842,2.8565,2.8929,2.9377,2.9696,2.9696,3.0099,3.0398,3.0398,3.0398,3.0398,3.0398,3.0462,3.0521,3.0594,3.0604,3.0618,3.0603,2.9116,2.8152,2.8074,2.8082,2.8082,2.8082,2.8134,2.8143,2.8082,2.8076,2.8038,2.7986,2.7713,2.6982,2.5811,2.5777,2.5282,0.4681,0.0,0.5353,0.5177,0.5213,0.5272,0.0,0.525,0.5234,0.5127,0.4932,0.4784,0.4784,0.4353,0.4134,0.4521,0.4522,0.5223,0.7292,1.0804,1.449,1.7948,1.8796,1.9242,1.9664,2.0038,2.0015,1.9482,2.0518,2.1769,2.3038,2.402,2.5346,2.7061,2.7972,2.8635,2.9008,2.989,3.0073,2.9602,2.9207,2.8647,2.7979,2.7439,2.6656,2.5749,2.6505,2.6538,2.6051,2.5597,2.5554,2.5764,2.5423,2.5161,2.5161,2.6345,2.6813,2.6897,2.7155,2.7422,2.7619,2.7725,2.7695,2.756,2.7241,2.6856,2.6556,2.6657,2.6939,2.7147,2.7147,2.7396,2.7619,2.7754,2.7946,2.8192,2.835,2.8633,2.8905,2.8994,2.9377,2.9696,2.9696,3.0099,3.0398,3.0398,3.0398,3.0398,3.0398,3.0462,3.0521,3.0594,3.0657,3.0682,3.0687,3.0218,2.9883,2.9825,2.9813,2.9813,2.9813,2.9828,2.9828,2.9813,2.9173,2.8837,2.8813,2.7937,2.7277,2.6839,2.669,2.6412,0.4666,0.4875,0.5098,0.5038,0.5131,0.5276,0.5389,0.5253,0.5108,0.5108,0.4991,0.4818,0.4611,0.4738,0.4782,0.448,0.5532,0.7136,0.9321,1.3058,1.6412,1.8637,1.9004,1.932,1.9909,1.9648,1.9334,1.8995,2.0099,2.1301,2.2435,2.3866,2.5351,2.6825,2.8157,2.8907,2.9,2.9594,2.9686,2.9269,2.8826,2.8417,2.798,2.7745,2.7073,2.6117,2.6943,2.686,2.6065,2.5951,2.5962,2.6132,2.6073,2.6039,2.6103,2.7098,2.7455,2.7502,2.773,2.7946,2.8102,2.7954,2.7897,2.7823,2.7409,2.7147,2.6939,2.6758,2.6841,2.7051,2.7241,2.7439,2.7707,2.8047,2.8264,2.8446,2.8633,2.8839,2.904,2.9156,2.9375,2.9626,2.9796,3.0047,3.0254,3.0367,3.0398,3.0398,3.0398,3.0462,3.0521,3.0594,3.0665,3.0681,3.0654,3.0594,3.0524,3.0462,3.0425,3.0398,3.0398,3.0439,3.0451,3.0451,2.9836,2.9513,2.9513,2.8831,2.8196,2.7619,2.7494,2.7135,0.5351,0.546,0.55,0.5379,0.5417,0.5489,0.565,0.5391,0.5108,0.5108,0.5069,0.4949,0.4697,0.5293,0.5557,0.4737,0.704,0.9614,1.1668,1.463,1.6746,1.719,1.7953,1.8606,1.8933,1.8983,1.8982,1.8992,2.0188,2.1274,2.2121,2.4268,2.5788,2.6517,2.848,2.9436,2.9242,2.9425,2.9341,2.8981,2.8484,2.8239,2.8136,2.7949,2.7338,2.6504,2.7118,0.0,2.5968,2.626,2.644,2.6568,2.6924,2.7032,2.7121,2.7733,2.7936,2.7954,2.829,2.8394,2.835,2.8129,2.8065,2.7982,2.753,2.7378,2.7286,2.6841,2.6758,2.6873,2.7303,2.7439,2.7631,2.8342,2.8471,2.859,2.8929,2.8994,2.9067,2.9289,2.9412,2.9551,2.9893,3.0013,3.0136,3.0367,3.0398,3.0398,3.0398,3.0462,3.0521,3.0594,3.0654,3.0664,3.0619,3.06,3.0554,3.0507,3.043,3.0398,3.0398,3.0452,3.0472,3.0472,3.0203,3.0061,3.0061,2.9813,2.9231,2.8353,2.8257,2.7742,0.6494,0.7317,0.7444,0.5597,0.5445,0.5641,0.5292,0.5156,0.5108,0.5108,0.4912,0.5041,0.6001,0.5521,0.5502,0.7122,1.0069,1.2313,1.2695,1.594,1.8305,1.8272,1.9035,1.9422,1.907,1.8983,1.9001,1.9074,2.064,2.2485,2.4553,2.5987,2.7411,2.8922,2.9418,2.972,2.9869,3.0005,2.9524,2.8415,2.8206,2.807,2.7946,2.7802,2.7692,2.7653,0.0,2.7712,2.752,2.7252,2.7484,2.8066,2.8136,2.8162,2.818,2.8288,2.8129,2.7954,2.829,2.8394,2.8446,2.8725,2.8815,2.87,2.8037,2.7811,2.7648,2.6906,2.6939,2.7303,2.7707,2.802,2.8342,2.8797,2.8905,2.8929,2.8994,2.8994,2.9017,2.9044,2.9377,2.9678,2.9748,3.0066,3.0355,3.0398,3.0398,3.0398,3.0398,3.0462,3.0521,3.0594,3.0601,3.0624,3.0671,3.0581,3.0516,3.0498,3.043,3.0398,3.0398,3.0402,3.0425,3.0425,3.0348,3.0343,3.0343,2.9912,2.9603,2.9436,2.9045,2.8589,0.5847,0.6494,0.6904,0.6577,0.7549,0.8496,0.8301,0.8076,0.7715,0.7021,0.6771,0.6678,0.662,0.7032,0.8372,1.1414,1.2323,1.3268,1.4893,1.621,1.7225,1.7792,1.7946,1.8053,1.8129,1.8405,1.8729,1.9054,2.1167,2.3456,2.5815,2.751,2.9207,3.0967,3.0718,3.0464,3.0278,2.9945,2.9349,2.8572,2.8354,2.8218,2.8183,2.8112,2.8021,2.7897,0.0,2.7439,2.7272,2.75,2.7823,2.8156,2.8583,2.859,2.8394,2.8394,2.8183,2.7982,2.8515,2.8707,2.8725,2.8682,2.8682,2.854,2.7794,2.7577,2.7439,2.6873,2.6841,2.7115,2.7754,2.7992,2.8281,2.8863,2.8994,2.904,2.9181,2.9222,2.9291,2.9495,2.9624,2.9782,3.0037,3.0142,3.0222,3.0367,3.0398,3.0398,3.0398,3.05,3.0542,3.0555,3.0604,3.0638,3.0611,3.0537,3.0472,3.0451,3.0425,3.0398,3.0398,3.0398,3.0398,3.0398,3.0254,3.0177,3.0182,2.9748,2.9551,2.9532,2.916,2.8905,0.5487,0.5908,0.6553,0.7822,0.8945,0.9893,1.0596,1.0205,0.9521,0.8979,0.8861,0.8581,0.7719,0.9131,1.145,1.4426,1.4312,1.4575,1.664,1.676,1.6821,1.7374,1.7343,1.7413,1.7739,1.8282,1.8975,1.9792,2.2034,2.4526,2.7227,2.8968,3.0672,3.2343,3.1882,3.1348,3.081,2.9956,2.923,2.8579,2.846,2.8368,2.829,2.829,2.8129,2.7869,2.747,2.7115,2.6906,2.7607,2.7897,2.7982,2.87,2.87,2.829,2.829,2.8129,2.7982,2.8551,2.8791,2.8815,2.8394,2.829,2.8166,2.75,2.7365,2.7334,2.6841,2.6858,2.7115,2.7754,2.7954,2.8183,2.8839,2.8994,2.9067,2.9351,2.9412,2.9513,2.9861,2.9845,2.9896,3.0241,3.0196,3.0163,3.0367,3.0414,3.0494,3.0698,3.0836,3.0988,3.1116,3.1049,3.0847,3.0519,3.0472,3.0452,3.039,3.0398,3.0398,3.0398,3.0398,3.0398,3.0398,3.0196,3.0089,3.0089,2.9661,2.9474,2.9455,2.9156,2.8952,0.6621,0.7266,0.7861,0.9145,0.7812,0.6911,0.9687,0.9072,0.8308,0.9834,1.0146,1.0127,1.0059,1.1696,1.322,1.3903,1.6075,1.7471,1.6882,1.8355,1.908,1.7981,1.888,1.9397,1.8908,1.949,2.048,2.1936,2.3394,2.5777,2.9386,3.0363,3.1371,3.2633,3.2559,3.2263,3.1707,3.0545,2.93,2.7964,2.8264,2.8237,2.7954,2.7954,2.7926,2.7869,2.747,2.7286,2.7303,2.7725,2.7897,2.7982,2.87,2.8558,2.7954,2.7954,2.7926,2.7897,2.7954,2.8183,2.8394,2.8047,2.7954,2.7869,2.7409,2.756,2.7695,2.6939,2.7241,2.784,2.7897,2.8129,2.8471,2.8905,2.8994,2.9067,2.9351,2.9412,2.9474,2.9678,2.9861,2.9984,3.0013,3.0209,3.0367,3.0398,3.0442,3.078,3.1592,3.1816,3.2172,3.293,3.2283,3.1428,3.0483,3.0402,3.041,3.0398,3.0398,3.0398,3.0398,3.0398,3.0398,3.0398,3.0367,3.0367,3.0367,2.9896,2.9678,2.9661,2.9206,2.8797,0.572,0.7097,0.8469,0.8793,0.8664,0.9078,1.1387,1.1974,1.2276,1.3253,1.3576,1.3456,1.2795,1.4384,1.5695,1.5439,1.7168,1.8611,1.8758,1.8783,1.8905,1.9175,1.8967,1.8864,1.905,1.9867,2.1383,2.3674,2.5526,2.8008,3.1355,3.2191,3.3093,3.4223,3.3334,3.2627,3.2182,3.1042,2.9958,2.8882,2.834,2.802,2.7897,2.7619,2.7547,2.75,2.7083,2.7051,2.7317,2.7736,2.802,2.821,2.8281,2.8147,2.7869,2.7619,2.7547,2.756,2.7794,2.8129,2.8298,2.7736,2.7851,2.8102,2.75,2.7426,2.7517,2.7439,2.7666,2.7897,2.7897,2.8156,2.8496,2.8887,2.8994,2.9067,2.9351,2.9783,3.0261,3.0606,3.0773,3.0848,3.1027,3.0688,3.0414,3.0452,3.0945,3.1432,3.1805,3.2384,3.2851,3.3112,3.2771,3.2171,3.1287,3.124,3.1042,3.0501,3.0417,3.0398,3.0398,3.0398,3.0398,3.0398,3.0398,3.0398,3.0398,2.9946,2.9696,2.9696,2.9228,2.8929,0.5516,0.6735,0.823,0.9052,0.9737,1.0833,1.3309,1.3931,1.4387,1.5801,1.628,1.6242,1.5453,1.6727,1.7713,1.728,1.8436,1.9546,1.9932,1.9429,1.9343,2.0187,1.953,1.9326,2.0112,2.1441,2.3253,2.5598,2.7745,3.0113,3.28,3.3392,3.4061,3.4925,3.3797,3.2884,3.2318,3.1283,3.0353,2.9504,2.8644,2.825,2.8233,2.7834,2.7667,2.7618,2.725,2.7241,2.75,2.7908,2.8183,2.8394,2.8156,2.7908,2.7678,2.753,2.7409,2.7317,2.7636,2.7936,2.8112,2.7348,2.7542,2.7974,2.747,2.7378,2.7547,2.7823,2.8065,2.8228,2.8075,2.8316,2.8682,2.9048,2.9318,2.9573,2.9827,3.0523,3.1223,3.161,3.1676,3.1756,3.2026,3.163,3.1272,3.1303,3.1853,3.2389,3.2708,3.3289,3.3647,3.354,3.343,3.3014,3.2204,3.2193,3.1992,3.1398,3.1303,3.1033,3.0482,3.0441,3.0439,3.0439,3.0414,3.0355,3.0267,2.988,2.9661,2.9607,2.9185,2.8994,0.6387,0.644,0.7224,1.0338,1.0816,1.1449,1.5168,1.4321,1.3706,1.6964,1.793,1.8106,1.8004,1.8632,1.9136,1.9086,2.0069,2.0574,1.9998,2.0422,2.0815,2.0923,2.0873,2.1266,2.2403,2.4384,2.6282,2.7806,2.9983,3.1961,3.3612,3.3762,3.4005,3.4393,3.3889,3.3113,3.2105,3.1188,3.0335,2.9606,2.921,2.9028,2.8994,2.8595,2.8432,2.838,2.8059,2.7915,2.7926,2.8264,2.8394,2.8394,2.8394,2.7964,2.7382,2.7771,2.7654,2.7321,2.7303,2.7577,2.7783,2.6971,2.6971,2.7303,2.7303,2.7607,2.7915,2.7915,2.8448,2.8923,2.8515,2.8743,2.9085,2.9349,3.0029,3.0652,3.0866,3.16,3.2278,3.2466,3.2515,3.2596,3.2865,3.3012,3.3093,3.3093,3.3223,3.3629,3.4507,3.4664,3.466,3.4522,3.4395,3.3994,3.317,3.3179,3.3212,3.3192,3.3192,3.2427,3.0703,3.0556,3.0518,3.0498,3.0449,3.0286,2.9999,2.9796,2.9607,2.9392,2.9134,2.8994,0.5234,0.8394,1.1773,1.1306,1.4505,1.7774,1.776,1.7704,1.8337,2.0822,2.1209,2.075,1.9553,2.0244,2.0555,1.9166,2.0338,2.1407,2.1341,2.1391,2.1626,2.2107,2.2084,2.2481,2.3736,2.5638,2.7766,3.0039,3.1661,3.3176,3.46,3.4389,3.4226,3.4267,3.3642,3.3021,3.2375,3.1794,3.1212,3.0725,3.059,3.0142,2.9403,2.9297,2.9126,2.8881,2.8469,2.8306,2.8264,2.8368,2.8737,2.9206,2.8635,2.8572,2.8814,2.8698,2.8596,2.8407,2.7862,2.7923,2.8077,2.7044,2.733,2.8136,2.8458,2.882,2.9278,3.0114,3.0348,3.0418,3.072,3.0898,3.0835,3.0344,3.0441,3.0822,3.1638,3.2468,3.3109,3.3372,3.3408,3.3517,3.382,3.3451,3.3134,3.3234,3.3754,3.4433,3.5275,3.5392,3.5388,3.534,3.5313,3.4967,3.4158,3.415,3.3914,3.3314,3.33,3.3077,3.2453,3.2357,3.2046,3.1426,3.1356,3.0982,3.0267,2.9896,2.9962,3.0415,2.9444,2.931,0.7633,1.0897,1.4284,1.5375,1.8466,2.1358,2.1895,2.105,2.068,2.2528,2.297,2.2623,2.1263,2.1903,2.2114,2.0519,2.1267,2.2137,2.2216,2.2351,2.2673,2.3288,2.3258,2.3882,2.5683,2.7157,2.9095,3.1722,3.2921,3.3955,3.4943,3.4693,3.4419,3.42,3.3375,3.2634,3.2057,3.1722,3.1295,3.0768,3.1055,3.095,3.0473,3.0144,2.9706,2.9211,2.8553,2.8235,2.8228,2.8506,2.8834,2.9113,2.892,2.9007,2.9264,2.9066,2.9011,2.8924,2.8433,2.834,2.8247,2.7403,2.7844,2.872,2.9005,2.9579,3.0314,3.1162,3.1341,3.1336,3.1693,3.1888,3.1859,3.1487,3.1657,3.2053,3.2691,3.3504,3.4128,3.4285,3.432,3.4412,3.4765,3.4438,3.416,3.4239,3.4665,3.5178,3.5699,3.5723,3.5717,3.5766,3.5772,3.5577,3.5095,3.5123,3.4929,3.4404,3.4413,3.4388,3.4287,3.3543,3.2865,3.2289,3.1896,3.1392,3.0772,3.0468,3.0536,3.0922,3.0358,3.0383,1.1911,1.3673,1.577,2.1082,2.2233,2.3011,2.6538,2.4225,2.1716,2.3063,2.3825,2.4016,2.3193,2.3587,2.3699,2.276,2.2714,2.2847,2.2908,2.3345,2.3846,2.4415,2.4489,2.5486,2.7966,2.8965,3.0456,3.2888,3.3802,3.4409,3.4761,3.4699,3.4508,3.42,3.3164,3.2261,3.1487,3.1386,3.093,3.0226,3.0908,3.1411,3.1735,3.1026,3.0266,2.9453,2.8504,2.8028,2.7999,2.8729,2.8886,2.8641,2.9299,2.9418,2.9178,2.9178,2.9178,2.9214,2.911,2.8851,2.849,2.81,2.8533,2.9213,2.9343,3.0155,3.1148,3.1543,3.1816,3.2027,3.2091,3.2277,3.252,3.281,3.3356,3.3821,3.3936,3.4585,3.5138,3.5138,3.5138,3.5247,3.554,3.5663,3.5705,3.5703,3.5689,3.5743,3.5869,3.5791,3.5761,3.5884,3.5907,3.5907,3.5907,3.5953,3.5996,3.5996,3.5996,3.5951,3.5877,3.4305,3.332,3.3113,3.2328,3.1776,3.1435,3.142,3.1366,3.1258,3.1652,3.1862,1.1127,1.5852,2.0899,2.2173,2.3839,2.5629,2.7367,2.6209,2.5121,2.647,2.6447,2.6103,2.575,2.5301,2.4927,2.4777,2.4272,2.4071,2.4571,2.476,2.4879,2.5012,2.6159,2.7469,2.8766,3.0866,3.258,3.3551,3.4284,3.4674,3.4718,3.4449,3.4269,3.42,3.365,3.2997,3.2269,3.2228,3.1809,3.0954,3.1422,3.1528,3.1351,3.1487,3.0837,2.9572,2.9597,2.9123,2.8352,2.9099,2.9693,3.011,2.9994,3.0268,3.0717,3.0717,3.0717,3.0632,3.0057,2.9827,2.9683,2.9334,2.9542,3.0166,3.1164,3.1828,3.2423,3.3339,3.3631,3.3792,3.4283,3.4429,3.4547,3.4873,3.4351,3.406,3.4942,3.5283,3.5398,3.5398,3.5398,3.5464,3.5655,3.5689,3.5693,3.5693,3.5667,3.5657,3.5723,3.5717,3.5777,3.5953,3.5975,3.5975,3.5975,3.5996,3.5996,3.5996,3.5948,3.5877,3.5755,3.5366,3.4804,3.4042,3.3786,3.3301,3.2551,3.2393,3.2626,3.3189,3.2448,3.2349,1.2958,1.7216,2.1574,2.5265,2.742,2.8802,2.9422,2.912,2.8905,2.9724,2.8351,2.704,2.7176,2.654,2.5923,2.5721,2.5296,2.515,2.5642,2.5776,2.6033,2.6616,2.7673,2.9024,3.0742,3.1792,3.2955,3.4312,3.4378,3.4473,3.4695,3.4379,3.42,3.42,3.3687,3.3212,3.284,3.2616,3.2282,3.1823,3.2039,3.1897,3.147,3.1148,3.0659,3.0109,2.9944,2.9656,2.9358,3.0112,3.0522,3.0681,3.0844,3.1145,3.147,3.1252,3.1312,3.1418,3.1042,3.0702,3.0398,3.0468,3.0848,3.1418,3.2092,3.2907,3.3724,3.4308,3.4585,3.4754,3.5115,3.529,3.5427,3.5611,3.5132,3.4822,3.5418,3.5546,3.554,3.552,3.5493,3.5534,3.5675,3.5692,3.5698,3.569,3.5621,3.5579,3.5689,3.5703,3.5788,3.5976,3.5996,3.5996,3.5996,3.5996,3.5996,3.5996,3.5942,3.5841,3.571,3.5679,3.5418,3.4882,3.4443,3.3968,3.3526,3.3426,3.358,3.3968,3.358,3.3619,1.4433,1.7863,2.1312,2.8415,3.0705,3.117,3.1072,3.1385,3.1778,3.2185,2.9952,2.8051,2.8499,2.7809,2.7049,2.6604,2.6378,2.6369,2.6656,2.6908,2.7459,2.8438,2.9265,3.0602,3.2761,3.2577,3.3075,3.4962,3.4497,3.4312,3.4756,3.451,3.4338,3.4288,3.375,3.3382,3.3214,3.2872,3.2648,3.2484,3.2484,3.2316,3.1898,3.0986,3.0625,3.0682,3.0312,3.0307,3.0612,3.1403,3.1455,3.1148,3.176,3.1969,3.1897,3.1562,3.1657,3.1915,3.1987,3.1585,3.1179,3.1684,3.2283,3.2791,3.2892,3.3773,3.4775,3.4849,3.5042,3.523,3.533,3.5519,3.5669,3.5688,3.5651,3.5618,3.5611,3.5621,3.5591,3.5546,3.5553,3.5599,3.5723,3.572,3.5703,3.5703,3.56,3.5562,3.5682,3.5717,3.5797,3.5976,3.5996,3.5996,3.5996,3.5996,3.5996,3.5976,3.5916,3.5802,3.5682,3.5631,3.555,3.5507,3.4795,3.441,3.441,3.441,3.441,3.443,3.4656,3.4851,1.1441,1.7347,2.4324,2.902,3.0283,3.0244,2.9771,3.0412,3.1372,3.2352,3.1588,3.0773,3.0849,2.9916,2.9027,2.8727,2.8434,2.8233,2.8282,2.8895,2.9418,2.9576,3.1265,3.2627,3.3185,3.4152,3.4822,3.5076,3.5059,3.5023,3.5051,3.4999,3.487,3.4653,3.4551,3.4086,3.3214,3.3476,3.3255,3.2484,3.2484,3.2484,3.24,3.2509,3.1859,3.0751,3.1965,3.2139,3.165,3.2648,3.2863,3.2619,3.2709,3.2602,3.2417,3.235,3.235,3.2449,3.2675,3.2691,3.2726,3.3483,3.3815,3.3977,3.4448,3.4721,3.4927,3.5164,3.5224,3.5278,3.5565,3.5596,3.5564,3.5662,3.5699,3.5686,3.5684,3.5689,3.5682,3.5687,3.5768,3.5856,3.5869,3.5788,3.5703,3.5703,3.5639,3.5621,3.5689,3.5802,3.5913,3.5996,3.5996,3.5996,3.5996,3.5996,3.5974,3.5913,3.5802,3.5682,3.5621,3.5546,3.5501,3.5507,3.5391,3.5334,3.5334,3.5334,3.5334,3.532,3.5133,3.4944,1.3671,2.0007,2.6202,3.0655,3.1779,3.1755,3.1647,3.1637,3.1787,3.2425,3.1886,3.1451,3.1936,3.0696,2.9584,2.9457,2.9133,2.9122,2.9846,3.006,3.0541,3.168,3.2629,3.3486,3.4242,3.4885,3.5268,3.5329,3.5271,3.5207,3.5102,3.4963,3.4754,3.4423,3.4593,3.4311,3.355,3.4043,3.4104,3.371,3.3302,3.3198,3.3351,3.334,3.2967,3.2379,3.3177,3.3474,3.3473,3.3906,3.3857,3.3537,3.3537,3.345,3.3323,3.3042,3.3117,3.336,3.3524,3.3573,3.3673,3.4337,3.4661,3.4817,3.5051,3.5231,3.5368,3.5499,3.5506,3.5511,3.5664,3.5667,3.5623,3.5681,3.5701,3.5692,3.5699,3.5767,3.5797,3.5717,3.5807,3.5903,3.5903,3.5786,3.5703,3.5703,3.5611,3.5588,3.5689,3.5716,3.5794,3.5921,3.5871,3.5838,3.5838,3.5838,3.5825,3.5797,3.5694,3.563,3.5591,3.554,3.5493,3.5493,3.5493,3.5493,3.5493,3.5493,3.5493,3.5493,3.507,3.4908,1.4562,1.9664,2.4003,2.9628,3.1117,3.15,3.2539,3.243,3.2147,3.2181,3.1764,3.1584,3.2161,3.0966,2.9877,2.9905,2.9649,2.9846,3.1026,3.1121,3.1656,3.3408,3.3805,3.4272,3.5136,3.533,3.5444,3.5527,3.5457,3.5353,3.5203,3.4999,3.4755,3.4427,3.4593,3.4442,3.3902,3.4353,3.4572,3.4572,3.4096,3.3993,3.4166,3.4113,3.403,3.4018,3.4252,3.4509,3.4832,3.4905,3.4661,3.4277,3.4277,3.4233,3.4124,3.3799,3.39,3.4199,3.4333,3.4372,3.4423,3.4921,3.5219,3.5403,3.5431,3.5599,3.5767,3.5762,3.5737,3.5703,3.5696,3.5667,3.5655,3.5659,3.5667,3.5675,3.5703,3.5779,3.5815,3.5715,3.5788,3.5857,3.5857,3.5756,3.5667,3.5667,3.559,3.5562,3.5663,3.5657,3.569,3.5836,3.5761,3.5703,3.5703,3.5703,3.5696,3.5687,3.5621,3.559,3.5577,3.5534,3.5479,3.5398,3.5383,3.5432,3.5493,3.5432,3.5499,3.5676,3.5154,3.5128,1.1015,1.2857,1.5213,2.3538,2.6053,2.7262,3.0321,3.1619,3.2032,3.1489,3.1531,3.1616,3.1412,3.0822,3.0375,3.0453,3.0389,3.0671,3.1613,3.2336,3.3121,3.4038,3.4883,3.5432,3.5549,3.5635,3.5654,3.5603,3.565,3.562,3.5488,3.5479,3.532,3.5051,3.4813,3.4529,3.4176,3.42,3.4242,3.4223,3.4508,3.4653,3.4675,3.4977,3.5119,3.5119,3.5191,3.5198,3.5185,3.5446,3.5347,3.5051,3.5051,3.4889,3.4656,3.4716,3.469,3.4718,3.5029,3.5106,3.5103,3.5445,3.5621,3.5703,3.5827,3.5912,3.5976,3.5918,3.5792,3.5697,3.571,3.5601,3.5534,3.559,3.5601,3.5611,3.5682,3.5717,3.571,3.569,3.571,3.5704,3.5704,3.5655,3.5601,3.5601,3.5611,3.56,3.5601,3.5663,3.5703,3.571,3.571,3.5703,3.5703,3.5703,3.5667,3.5611,3.5591,3.5566,3.5501,3.5507,3.5383,3.5122,3.5122,3.5258,3.5493,3.5239,3.5505,3.625,3.5713,3.5882,1.0604,1.2183,1.4048,2.0523,2.3934,2.6228,2.8137,3.0162,3.1594,3.1569,3.1188,3.0847,3.0727,3.0554,3.0402,3.0439,3.0425,3.0929,3.2425,3.2851,3.3536,3.4936,3.538,3.5566,3.56,3.5626,3.5628,3.5597,3.5619,3.56,3.5488,3.5493,3.5369,3.5105,3.5155,3.5069,3.4794,3.4614,3.4529,3.4529,3.4653,3.4774,3.4963,3.5143,3.5284,3.5469,3.5523,3.5524,3.5458,3.557,3.5507,3.5354,3.5354,3.5321,3.5276,3.5256,3.5271,3.5288,3.5419,3.5449,3.5442,3.5602,3.5685,3.5728,3.5861,3.5913,3.5921,3.5907,3.5802,3.5689,3.5638,3.5574,3.552,3.5528,3.554,3.5534,3.5574,3.5648,3.5703,3.5703,3.5703,3.5703,3.5703,3.5638,3.5611,3.5611,3.5562,3.5558,3.56,3.5568,3.5579,3.563,3.56,3.5566,3.5566,3.5566,3.5562,3.554,3.5378,3.5277,3.5239,3.5088,3.4944,3.4851,3.4561,3.4582,3.4981,3.4889,3.5268,3.6023,3.5324,3.5164,0.8442,0.9645,1.1421,1.7026,1.9794,2.2288,2.6697,2.8626,2.9859,3.1159,3.1142,3.0744,3.0337,3.0352,3.0419,3.0419,3.0419,3.1081,3.2876,3.3125,3.3766,3.5426,3.5639,3.5627,3.5638,3.5635,3.5625,3.5597,3.5607,0.0,3.5488,3.5493,3.5369,3.5105,3.5273,3.5239,3.4963,3.4774,3.4694,3.4694,3.4774,3.4926,3.5105,3.5249,3.5427,3.5601,3.5659,3.5663,3.5591,3.5621,3.56,3.554,3.555,3.5582,3.5609,3.5577,3.5567,3.5566,3.5587,3.5587,3.5573,3.5618,3.5646,3.5687,3.5768,3.5856,3.59,3.5841,3.5766,3.5682,3.5621,3.5558,3.5493,3.5493,3.5493,3.5493,3.5493,3.5566,3.5639,3.5639,3.5639,3.5639,3.5639,3.56,3.5574,3.5574,3.5534,3.5528,3.5562,3.5534,3.5528,3.5562,3.5534,3.5493,3.5493,3.5417,3.5369,3.5369,3.5105,3.4888,3.4737,3.4559,3.4349,3.4088,3.3778,3.3746,3.3957,3.4059,3.4516,3.5274,3.4668,3.4304,0.0,0.0,0.0,1.2743,1.3357,1.5231,2.5706,2.6823,2.6654,3.0092,3.1238,3.1302,3.0289,3.0337,3.0537,3.0546,3.0546,3.1161,3.2954,3.3239,3.3842,3.5516,3.571,3.569,3.5702,3.5703,3.5678,3.5602,3.56,3.5574,3.5507,3.5493,3.5383,3.5122,3.5105,3.4981,3.4714,3.4694,3.4713,3.4694,3.4944,3.5069,3.5105,3.5432,3.56,3.5581,3.5652,3.5663,3.5591,3.5659,3.5663,3.5601,3.5667,3.566,3.5617,3.5663,3.5617,3.5507,3.5563,3.5538,3.5493,3.5493,3.5534,3.56,3.5611,3.5748,3.5869,3.5729,3.5703,3.5682,3.5621,3.5546,3.5493,3.5493,3.5493,3.5493,3.5479,3.5493,3.5493,3.5493,3.5493,3.5493,3.5493,3.5493,3.5493,3.5493,3.5493,3.5493,3.5493,3.5493,3.5493,3.5493,3.5493,3.5493,3.5493,3.5239,3.5088,3.5069,3.4813,3.4454,3.3995,3.3971,3.3615,3.2895,3.2865,3.2724,3.2484,3.2755,3.331,3.4073,3.3815,3.3459,0.4448,0.0,0.0,0.0,0.0,0.0,1.7201,1.9323,2.1945,2.7395,2.7707,2.8095,3.16,3.1797,3.1454,3.1501,3.1476,3.186,3.3106,3.3821,3.462,3.5704,3.5841,3.5809,3.5703,3.5657,3.5617,0.0,3.557,3.5509,3.5507,3.5493,3.5479,3.5383,3.5383,3.5273,3.4981,3.4812,3.4572,3.4334,3.4405,3.4449,3.447,3.5011,3.5243,3.5258,3.5457,3.5546,3.554,3.5655,3.5663,3.5592,3.5618,3.5656,3.5663,3.5571,3.5567,3.5534,3.532,3.5216,3.5207,3.5207,3.5216,3.5268,3.5527,3.564,3.5718,3.5802,3.5742,3.5611,3.5546,3.536,3.5207,3.5207,3.5207,3.5174,3.4963,3.507,3.5273,3.546,3.5493,3.5493,3.5493,3.5493,3.5493,3.5493,3.5493,3.5493,3.5493,3.5493,3.5493,3.5493,3.5339,3.5207,3.5207,3.4963,3.4658,3.4339,3.4064,3.3681,3.3222,3.3027,3.2827,3.2592,3.2296,3.2074,3.1986,3.2413,3.3033,3.3799,3.3459,3.3003,0.5169,0.5235,0.5604,0.6463,0.0,0.0,1.6156,1.8217,2.1047,2.8491,2.9468,2.9822,3.2529,3.2677,3.2392,3.2428,3.2746,3.3048,3.3269,3.4068,3.4972,3.5847,3.5945,3.5877,3.5723,3.5654,3.5626,3.5554,3.5522,3.5493,3.5493,3.5493,3.5493,3.5493,3.5493,3.5369,3.5105,3.4832,3.4529,3.42,3.42,3.42,3.42,3.4715,3.4999,3.5105,3.5273,3.5403,3.5501,3.5621,3.5646,3.5663,3.5701,3.5701,3.5692,3.558,3.5544,3.5526,3.533,3.519,3.5105,3.5105,3.5016,3.498,3.5311,3.5405,3.5472,3.5702,3.5609,3.5418,3.536,3.5122,3.4944,3.4944,3.4944,3.4889,3.4734,3.4813,3.4999,3.5289,3.532,3.532,3.532,3.532,3.5289,3.519,3.5174,3.5288,3.5615,3.5384,3.5288,3.5615,3.5226,3.4944,3.4944,3.4655,3.43,3.3864,3.356,3.311,3.2471,3.2279,3.2144,3.195,3.1677,3.1528,3.1528,3.1806,3.2212,3.2647,3.2424,3.2154,0.6341,0.6472,0.7138,0.8065,0.6994,0.0,1.7966,1.9254,2.0797,2.9413,3.1541,3.1776,3.1542,3.1639,3.1728,3.1643,3.2892,3.3763,3.3495,3.4254,3.5137,3.5918,3.5996,3.5929,3.5735,3.571,3.5646,3.5522,3.5488,3.5493,3.5446,3.5493,3.5493,3.5493,3.546,3.5354,3.5105,3.4793,3.4489,3.42,3.42,3.42,3.42,3.4572,3.487,3.5105,3.5122,3.5289,3.552,3.5588,3.5657,3.571,3.5818,3.5817,3.571,3.5621,3.5574,3.5522,3.5482,3.5315,3.5119,3.5105,3.4944,3.4793,3.507,3.5189,3.5284,3.5496,3.5367,3.5149,3.5064,3.4851,3.4653,3.4653,3.4653,3.4632,3.4612,3.4632,3.4714,3.4944,3.5034,3.507,3.507,3.507,3.4981,3.4753,3.4694,3.4996,3.5805,3.5298,3.5147,3.5956,3.5369,3.4898,3.4804,3.4483,3.4055,3.3524,3.3259,3.2695,3.1752,3.1716,3.1565,3.119,3.119,3.119,3.119,3.119,3.119,3.119,3.119,3.119,0.7781,0.6956,0.6952,0.6527,0.7091,0.0,0.8707,0.9205,1.0978,1.622,1.6932,1.7869,2.2003,2.2753,2.253,2.1942,2.603,3.0498,3.3942,3.5195,3.5801,3.5976,3.5996,3.5954,3.5873,3.5761,3.5671,3.5599,3.5528,3.5417,3.519,3.5383,3.5493,3.5493,3.5289,3.5138,3.5105,3.4574,3.4246,3.42,3.42,3.42,3.4223,3.4774,3.5053,3.5105,3.5339,3.5446,3.5501,3.563,3.5689,3.569,3.5662,3.574,3.5836,3.5657,3.5621,3.5618,3.5348,3.521,3.5172,3.5117,3.5051,3.507,3.5354,3.5441,3.5402,3.5247,3.5051,3.4854,3.4794,3.4551,3.4311,3.4311,3.4311,3.4242,3.4012,3.4141,3.4292,3.436,3.4574,3.4774,3.4774,3.4774,3.4754,3.4694,3.4694,3.4996,3.5805,3.5748,3.5975,3.6782,3.6517,3.6061,3.5413,3.5036,3.4217,3.2809,3.2663,3.2248,3.1351,3.1329,3.1291,3.119,3.119,3.119,3.119,3.119,3.119,3.119,3.119,3.119,0.9,0.804,0.812,0.7344,0.7407,0.0,0.0,0.9576,1.1128,1.6145,1.6649,1.7145,2.0277,2.0527,2.0258,2.0292,2.4661,2.8084,2.8153,3.2668,3.5951,3.5996,3.5996,0.0,3.5907,3.5841,3.5736,3.5601,3.554,3.5383,3.5105,3.5223,3.5239,3.5105,3.4963,3.4832,3.4656,3.4338,3.4123,3.4012,3.4012,3.4068,3.42,3.4513,3.4813,3.5105,3.5239,3.5369,3.5501,3.5611,3.5659,3.569,3.574,3.5806,3.5873,3.5702,3.5659,3.567,3.5504,3.5356,3.5244,3.5172,3.5054,3.4971,3.5066,3.5105,3.507,3.4944,3.4543,3.4239,3.4408,3.408,3.375,3.3943,3.4012,3.3961,3.3815,3.3902,3.4012,3.4012,3.4136,3.4284,3.4442,3.4445,3.442,3.426,3.4255,3.4703,3.5926,3.5721,3.5926,3.7173,3.6811,3.6149,3.5325,3.4926,3.4063,3.2603,3.2282,3.1878,3.123,3.119,3.119,3.119,3.119,3.119,3.119,3.119,3.119,3.119,3.119,3.119,1.0257,0.9362,0.9705,0.8501,0.7972,0.8422,0.0,0.0,0.0,1.698,1.7482,1.7382,1.8073,1.7844,1.7708,1.8214,2.241,2.4233,2.0425,2.7537,0.0,3.3221,3.4821,0.0,0.0,3.5355,3.5744,3.5532,3.5509,3.5369,3.5034,3.507,3.4981,3.4694,3.4632,3.4467,3.42,3.4147,3.4018,3.3807,3.3868,3.4018,3.4311,3.4338,3.4676,3.519,3.519,3.53,3.5522,3.559,3.5663,3.5752,3.5839,3.5896,3.591,3.5777,3.5761,3.5752,3.5735,3.5604,3.5388,3.5314,3.5081,3.4842,3.4679,3.4555,3.447,3.4367,3.3889,3.347,3.3799,3.3533,3.3273,3.3606,3.3734,3.3807,3.3807,3.3807,3.3807,3.3807,3.3807,3.385,3.4093,3.4123,3.4043,3.3842,3.3807,3.4412,3.6083,3.5697,3.5899,3.7533,3.7147,3.6358,3.532,3.4872,3.402,3.257,3.2057,3.164,3.123,3.119,3.119,3.119,3.119,3.119,3.119,3.119,3.119,3.119,3.119,3.119,1.1911,1.0663,1.1095,0.8155,0.896,0.9607,0.6392,0.0,0.7547,0.6725,0.0,0.656,0.6673,0.0,0.0,0.6879,1.2249,1.5834,1.3975,1.92,2.3232,2.3227,3.0633,0.0,0.0,3.3431,3.5522,3.5277,3.5405,3.5289,3.4774,3.4963,3.4981,3.4694,3.4401,3.4223,3.42,3.3961,3.3815,3.3788,3.4043,3.4334,3.4653,3.4889,3.5155,3.5446,3.5446,3.5515,3.56,3.5663,3.5761,3.5861,3.576,3.5839,3.5975,3.589,3.5918,3.5954,3.591,3.5849,3.5807,3.563,3.5315,3.4977,3.4547,3.4106,3.3621,3.3203,3.2865,3.2663,3.2677,3.2934,3.3214,3.3243,3.355,3.3807,3.3807,3.3807,3.3807,3.3807,3.3807,3.3815,3.3842,3.3842,3.3842,3.3788,3.3807,3.4412,3.6083,3.6211,3.6762,3.8395,3.8487,3.7808,3.6285,3.5739,3.4613,3.2639,3.2057,3.164,3.123,3.119,3.119,3.119,3.119,3.119,3.119,3.119,3.119,3.119,3.119,3.119,1.1377,1.2008,1.3382,0.9067,1.0282,1.1274,0.6526,0.563,0.5758,0.5561,0.0,0.0,0.0,0.0,0.0,0.0,1.0134,1.2514,0.9365,1.5815,2.0878,2.0945,0.0,0.0,0.0,0.0,0.0,0.0,3.2714,3.2119,3.4563,3.4812,3.4674,3.4184,3.4037,3.3961,3.3961,3.3868,3.3807,3.3788,3.4068,3.4379,3.4694,3.4981,3.5258,3.5493,3.5493,3.5528,3.5546,3.5621,3.5682,3.5728,3.5714,3.5823,3.5996,3.5973,3.5957,3.5947,3.5916,3.5898,3.5878,3.5704,3.5321,3.4826,3.4327,3.379,3.327,3.2796,3.2431,3.2214,3.2451,3.2433,3.2466,3.2745,3.2934,3.3057,3.3057,3.3255,3.3447,3.3447,3.3634,3.3807,3.3807,3.3807,3.3972,3.4431,3.4504,3.511,3.678,3.6982,3.7422,3.8579,3.8707,3.8046,3.6431,3.5612,3.4436,3.2606,3.1842,3.1389,3.119,3.119,3.119,3.119,3.119,3.1015,3.0699,3.1015,3.0838,3.0166,3.0878,3.119,1.2972,1.4088,1.5393,0.9642,1.0276,1.1144,0.6724,0.5624,0.5648,0.6052,0.6049,0.0,0.0,0.0,0.5808,0.6173,0.0,0.9952,0.6402,1.1997,1.6496,1.6561,0.0,0.0,0.0,0.0,0.0,0.0,0.0,0.0,3.4412,3.4694,3.442,3.3815,3.3807,3.3807,3.3807,3.3807,3.3807,3.3788,3.4012,3.4242,3.4572,3.4851,3.5138,3.5383,3.5479,3.5515,3.5528,3.5588,3.5611,3.563,3.5675,3.5744,3.5818,3.5886,3.5893,3.5841,3.5841,3.5841,3.5833,3.5713,3.5278,3.4694,3.4012,3.3424,3.289,3.2316,3.1932,3.1785,3.2056,3.1968,3.1897,3.2248,3.2417,3.2484,3.2484,3.2777,3.3014,3.3014,3.3225,3.3447,3.3447,3.3634,3.4082,3.4862,3.499,3.5624,3.7276,3.7507,3.7808,3.8615,3.8707,3.8046,3.6431,3.5432,3.4111,3.2249,3.1562,3.119,3.119,3.119,3.119,3.119,3.1055,3.074,3.0293,3.0559,3.0251,2.9406,3.0477,3.0958,1.8497,1.7235,1.6734,0.9287,0.8098,0.8117,0.5603,0.6274,0.7189,0.6362,0.7513,0.8425,0.7605,0.7445,0.7167,0.6419,0.7072,0.0,0.0,0.6078,0.6734,0.6671,0.0,0.0,0.0,0.0,0.0,0.0,0.0,0.0,3.4356,3.4694,3.442,3.3815,3.3807,3.3807,3.3807,3.3807,3.3807,3.3807,3.3807,3.3961,3.4242,3.4551,3.487,3.5122,3.5383,3.554,3.56,3.5611,3.5648,3.5703,3.5703,3.5554,3.534,3.5604,3.571,3.571,3.571,3.572,3.5703,3.5623,3.5234,3.4621,3.3623,3.2954,3.235,3.1487,3.123,3.123,3.123,3.1507,3.1808,3.1825,3.2161,3.2484,3.2484,3.2517,3.2517,3.2517,3.2517,3.255,3.255,3.3255,3.4082,3.4862,3.499,3.5624,3.7276,3.7507,3.7808,3.8615,3.8707,3.8046,3.6431,3.5432,3.3863,3.1392,3.123,3.119,3.119,3.119,3.119,3.119,3.0617,3.0293,3.0293,2.9717,2.9451,2.9406,3.0038,3.0351,0.0,0.0,2.3386,1.4618,1.4379,1.4437,0.7399,0.667,0.7273,0.6429,0.7607,0.8555,0.7723,0.7573,0.7289,0.0,0.0,0.0,0.0,0.5341,0.5474,0.0,0.0,0.0,0.0,0.0,0.0,0.0,0.0,0.0,0.0,3.4718,3.442,3.3815,3.3807,3.3807,3.3807,3.3807,3.3807,3.3788,3.3986,3.4099,3.4223,3.4735,3.5016,3.5105,3.5383,3.5515,3.5528,3.5528,3.5546,3.5574,3.5574,3.55,3.5418,3.5437,3.5298,3.513,3.5319,3.5397,3.5455,3.5561,3.5269,3.4674,3.3616,3.2925,3.2316,3.1466,3.119,3.119,3.119,3.1291,3.1411,3.1411,3.1507,3.162,3.162,3.1842,3.2039,3.2039,3.2282,3.2484,3.2484,3.2727,3.3507,3.5139,3.5681,3.645,3.8083,3.8285,3.8395,3.867,3.8707,3.8046,3.6431,3.4447,3.2827,3.1674,3.1351,3.119,3.119,3.119,3.1015,3.0617,3.0393,2.9908,2.9088,2.9316,2.8996,2.8207,2.8826,2.954,2.5324,2.6929,0.0,1.9326,1.9072,0.0,1.0802,0.9913,1.0324,0.8876,0.9191,1.004,1.1002,0.9486,0.8082,0.0,0.0,0.0,0.0,0.5097,0.0,0.0,0.0,0.0,0.0,0.0,0.0,0.0,0.0,0.0,0.0,0.0,3.442,3.3815,3.3807,3.3807,3.3807,3.3807,3.3807,3.3788,3.3986,3.4068,3.4068,3.4574,3.4794,3.4794,3.5105,3.5207,3.5223,3.532,3.5369,3.5369,3.546,3.5383,3.5219,3.5232,3.5091,3.4931,3.5094,3.5283,3.5453,3.5547,3.5166,3.4522,3.3579,3.2817,3.2109,3.1389,3.119,3.119,3.119,3.119,3.119,3.119,3.119,3.119,3.119,3.1411,3.1603,3.1603,3.1842,3.2108,3.237,3.2564,3.321,3.4694,3.5164,3.5859,3.7166,3.7494,3.7606,3.7606,3.7735,3.7186,3.5514,3.3591,3.2248,3.164,3.1589,3.1461,3.1207,3.1268,3.1083,3.0672,3.0222,2.9765,2.919,2.937,2.8969,2.7934,2.8373,2.8919]}]]